<?xml version="1.0" encoding="UTF-8" standalone="no" ?>
<gpx xmlns="http://www.topografix.com/GPX/1/1" xmlns:xsi="http://www.w3.org/2001/XMLSchema-instance" xsi:schemaLocation="http://www.topografix.com/GPX/1/1 http://www.topografix.com/GPX/1/1/gpx.xsd" version="1.1" creator="VisuGPX - https://www.visugpx.com">
  <metadata>
    <name>Suin depuis Chiddes</name>
    <desc><![CDATA[Trace AlpineQuest 25/09/2022 09:10:37]]></desc>
  </metadata>
  <trk>
    <name><![CDATA[Suin depuis Chiddes_1]]></name>
    <trkseg>
      <trkpt lat="46.45429" lon="4.51735">
        <ele>332.976</ele>
        <time>2022-09-25T07:10:37Z</time>
      </trkpt>
      <trkpt lat="46.45423" lon="4.51742">
        <ele>332.376</ele>
        <time>2022-09-25T07:10:43Z</time>
      </trkpt>
      <trkpt lat="46.45418" lon="4.5175">
        <ele>330.976</ele>
        <time>2022-09-25T07:10:49Z</time>
      </trkpt>
      <trkpt lat="46.45413" lon="4.51757">
        <ele>328.676</ele>
        <time>2022-09-25T07:10:56Z</time>
      </trkpt>
      <trkpt lat="46.45408" lon="4.51764">
        <ele>327.076</ele>
        <time>2022-09-25T07:11:02Z</time>
      </trkpt>
      <trkpt lat="46.45404" lon="4.51774">
        <ele>325.576</ele>
        <time>2022-09-25T07:11:33Z</time>
      </trkpt>
      <trkpt lat="46.45401" lon="4.51783">
        <ele>325.176</ele>
        <time>2022-09-25T07:11:39Z</time>
      </trkpt>
      <trkpt lat="46.45397" lon="4.5179">
        <ele>323.376</ele>
        <time>2022-09-25T07:11:44Z</time>
      </trkpt>
      <trkpt lat="46.45394" lon="4.51799">
        <ele>322.276</ele>
        <time>2022-09-25T07:11:49Z</time>
      </trkpt>
      <trkpt lat="46.4539" lon="4.51809">
        <ele>322.876</ele>
        <time>2022-09-25T07:11:55Z</time>
      </trkpt>
      <trkpt lat="46.45387" lon="4.51819">
        <ele>323.076</ele>
        <time>2022-09-25T07:12:00Z</time>
      </trkpt>
      <trkpt lat="46.45384" lon="4.51828">
        <ele>324.176</ele>
        <time>2022-09-25T07:12:05Z</time>
      </trkpt>
      <trkpt lat="46.45381" lon="4.51837">
        <ele>323.576</ele>
        <time>2022-09-25T07:12:11Z</time>
      </trkpt>
      <trkpt lat="46.45378" lon="4.51847">
        <ele>322.476</ele>
        <time>2022-09-25T07:12:16Z</time>
      </trkpt>
      <trkpt lat="46.45374" lon="4.51856">
        <ele>322.176</ele>
        <time>2022-09-25T07:12:22Z</time>
      </trkpt>
      <trkpt lat="46.45371" lon="4.51866">
        <ele>322.476</ele>
        <time>2022-09-25T07:12:27Z</time>
      </trkpt>
      <trkpt lat="46.45368" lon="4.51874">
        <ele>322.776</ele>
        <time>2022-09-25T07:12:32Z</time>
      </trkpt>
      <trkpt lat="46.45366" lon="4.51884">
        <ele>323.476</ele>
        <time>2022-09-25T07:12:38Z</time>
      </trkpt>
      <trkpt lat="46.45362" lon="4.51894">
        <ele>323.576</ele>
        <time>2022-09-25T07:12:44Z</time>
      </trkpt>
      <trkpt lat="46.4536" lon="4.51904">
        <ele>325.276</ele>
        <time>2022-09-25T07:12:49Z</time>
      </trkpt>
      <trkpt lat="46.45358" lon="4.51917">
        <ele>326.076</ele>
        <time>2022-09-25T07:12:55Z</time>
      </trkpt>
      <trkpt lat="46.45358" lon="4.51927">
        <ele>325.976</ele>
        <time>2022-09-25T07:13:00Z</time>
      </trkpt>
      <trkpt lat="46.45356" lon="4.51937">
        <ele>325.876</ele>
        <time>2022-09-25T07:13:06Z</time>
      </trkpt>
      <trkpt lat="46.45354" lon="4.51946">
        <ele>324.976</ele>
        <time>2022-09-25T07:13:11Z</time>
      </trkpt>
      <trkpt lat="46.45353" lon="4.51957">
        <ele>323.976</ele>
        <time>2022-09-25T07:13:17Z</time>
      </trkpt>
      <trkpt lat="46.45352" lon="4.51967">
        <ele>322.776</ele>
        <time>2022-09-25T07:13:23Z</time>
      </trkpt>
      <trkpt lat="46.4535" lon="4.51977">
        <ele>322.276</ele>
        <time>2022-09-25T07:13:29Z</time>
      </trkpt>
      <trkpt lat="46.45349" lon="4.51988">
        <ele>319.276</ele>
        <time>2022-09-25T07:13:35Z</time>
      </trkpt>
      <trkpt lat="46.45348" lon="4.51997">
        <ele>318.776</ele>
        <time>2022-09-25T07:13:40Z</time>
      </trkpt>
      <trkpt lat="46.45347" lon="4.52007">
        <ele>318.376</ele>
        <time>2022-09-25T07:13:46Z</time>
      </trkpt>
      <trkpt lat="46.45344" lon="4.52017">
        <ele>318.576</ele>
        <time>2022-09-25T07:13:51Z</time>
      </trkpt>
      <trkpt lat="46.45344" lon="4.52027">
        <ele>317.676</ele>
        <time>2022-09-25T07:13:57Z</time>
      </trkpt>
      <trkpt lat="46.45343" lon="4.52039">
        <ele>314.676</ele>
        <time>2022-09-25T07:14:03Z</time>
      </trkpt>
      <trkpt lat="46.4534" lon="4.52049">
        <ele>313.476</ele>
        <time>2022-09-25T07:14:08Z</time>
      </trkpt>
      <trkpt lat="46.45338" lon="4.5206">
        <ele>314.176</ele>
        <time>2022-09-25T07:14:14Z</time>
      </trkpt>
      <trkpt lat="46.45335" lon="4.5207">
        <ele>313.976</ele>
        <time>2022-09-25T07:14:20Z</time>
      </trkpt>
      <trkpt lat="46.45331" lon="4.52078">
        <ele>313.376</ele>
        <time>2022-09-25T07:14:25Z</time>
      </trkpt>
      <trkpt lat="46.45326" lon="4.52087">
        <ele>312.676</ele>
        <time>2022-09-25T07:14:31Z</time>
      </trkpt>
      <trkpt lat="46.45321" lon="4.52094">
        <ele>312.576</ele>
        <time>2022-09-25T07:14:36Z</time>
      </trkpt>
      <trkpt lat="46.45316" lon="4.52102">
        <ele>312.876</ele>
        <time>2022-09-25T07:14:42Z</time>
      </trkpt>
      <trkpt lat="46.45314" lon="4.52111">
        <ele>313.176</ele>
        <time>2022-09-25T07:14:50Z</time>
      </trkpt>
      <trkpt lat="46.45306" lon="4.52104">
        <ele>312.176</ele>
        <time>2022-09-25T07:15:17Z</time>
      </trkpt>
      <trkpt lat="46.45298" lon="4.52094">
        <ele>310.876</ele>
        <time>2022-09-25T07:15:27Z</time>
      </trkpt>
      <trkpt lat="46.45292" lon="4.5209">
        <ele>310.476</ele>
        <time>2022-09-25T07:15:32Z</time>
      </trkpt>
      <trkpt lat="46.45286" lon="4.52081">
        <ele>309.976</ele>
        <time>2022-09-25T07:15:38Z</time>
      </trkpt>
      <trkpt lat="46.45282" lon="4.52074">
        <ele>309.576</ele>
        <time>2022-09-25T07:15:43Z</time>
      </trkpt>
      <trkpt lat="46.45277" lon="4.52067">
        <ele>309.976</ele>
        <time>2022-09-25T07:15:48Z</time>
      </trkpt>
      <trkpt lat="46.45272" lon="4.52061">
        <ele>309.376</ele>
        <time>2022-09-25T07:15:54Z</time>
      </trkpt>
      <trkpt lat="46.45266" lon="4.52055">
        <ele>311.176</ele>
        <time>2022-09-25T07:16:01Z</time>
      </trkpt>
      <trkpt lat="46.45262" lon="4.52046">
        <ele>310.776</ele>
        <time>2022-09-25T07:16:09Z</time>
      </trkpt>
      <trkpt lat="46.45259" lon="4.52035">
        <ele>310.676</ele>
        <time>2022-09-25T07:16:15Z</time>
      </trkpt>
      <trkpt lat="46.45256" lon="4.52026">
        <ele>309.776</ele>
        <time>2022-09-25T07:16:20Z</time>
      </trkpt>
      <trkpt lat="46.45252" lon="4.52017">
        <ele>309.476</ele>
        <time>2022-09-25T07:16:25Z</time>
      </trkpt>
      <trkpt lat="46.45247" lon="4.52008">
        <ele>309.276</ele>
        <time>2022-09-25T07:16:32Z</time>
      </trkpt>
      <trkpt lat="46.45243" lon="4.52">
        <ele>309.176</ele>
        <time>2022-09-25T07:16:37Z</time>
      </trkpt>
      <trkpt lat="46.4524" lon="4.51991">
        <ele>308.476</ele>
        <time>2022-09-25T07:16:43Z</time>
      </trkpt>
      <trkpt lat="46.45236" lon="4.51981">
        <ele>308.876</ele>
        <time>2022-09-25T07:16:48Z</time>
      </trkpt>
      <trkpt lat="46.45232" lon="4.51974">
        <ele>308.076</ele>
        <time>2022-09-25T07:16:54Z</time>
      </trkpt>
      <trkpt lat="46.45225" lon="4.51976">
        <ele>308.676</ele>
        <time>2022-09-25T07:17:26Z</time>
      </trkpt>
      <trkpt lat="46.4522" lon="4.51984">
        <ele>308.676</ele>
        <time>2022-09-25T07:17:31Z</time>
      </trkpt>
      <trkpt lat="46.45215" lon="4.51993">
        <ele>309.276</ele>
        <time>2022-09-25T07:17:37Z</time>
      </trkpt>
      <trkpt lat="46.4521" lon="4.52003">
        <ele>309.776</ele>
        <time>2022-09-25T07:17:43Z</time>
      </trkpt>
      <trkpt lat="46.45207" lon="4.52012">
        <ele>309.876</ele>
        <time>2022-09-25T07:17:48Z</time>
      </trkpt>
      <trkpt lat="46.45204" lon="4.5202">
        <ele>310.176</ele>
        <time>2022-09-25T07:17:53Z</time>
      </trkpt>
      <trkpt lat="46.452" lon="4.52029">
        <ele>310.576</ele>
        <time>2022-09-25T07:17:59Z</time>
      </trkpt>
      <trkpt lat="46.45197" lon="4.52038">
        <ele>311.076</ele>
        <time>2022-09-25T07:18:05Z</time>
      </trkpt>
      <trkpt lat="46.45193" lon="4.52047">
        <ele>311.276</ele>
        <time>2022-09-25T07:18:11Z</time>
      </trkpt>
      <trkpt lat="46.4519" lon="4.52056">
        <ele>311.776</ele>
        <time>2022-09-25T07:18:16Z</time>
      </trkpt>
      <trkpt lat="46.45186" lon="4.52064">
        <ele>311.676</ele>
        <time>2022-09-25T07:18:22Z</time>
      </trkpt>
      <trkpt lat="46.4518" lon="4.52069">
        <ele>311.276</ele>
        <time>2022-09-25T07:18:28Z</time>
      </trkpt>
      <trkpt lat="46.45173" lon="4.5207">
        <ele>309.876</ele>
        <time>2022-09-25T07:18:33Z</time>
      </trkpt>
      <trkpt lat="46.45166" lon="4.52069">
        <ele>308.376</ele>
        <time>2022-09-25T07:18:39Z</time>
      </trkpt>
      <trkpt lat="46.45159" lon="4.52064">
        <ele>306.676</ele>
        <time>2022-09-25T07:18:45Z</time>
      </trkpt>
      <trkpt lat="46.45153" lon="4.52061">
        <ele>305.876</ele>
        <time>2022-09-25T07:18:51Z</time>
      </trkpt>
      <trkpt lat="46.45146" lon="4.52057">
        <ele>304.676</ele>
        <time>2022-09-25T07:18:57Z</time>
      </trkpt>
      <trkpt lat="46.45139" lon="4.52052">
        <ele>304.376</ele>
        <time>2022-09-25T07:19:03Z</time>
      </trkpt>
      <trkpt lat="46.45132" lon="4.52048">
        <ele>302.776</ele>
        <time>2022-09-25T07:19:09Z</time>
      </trkpt>
      <trkpt lat="46.45126" lon="4.52044">
        <ele>302.576</ele>
        <time>2022-09-25T07:19:15Z</time>
      </trkpt>
      <trkpt lat="46.4512" lon="4.52039">
        <ele>301.676</ele>
        <time>2022-09-25T07:19:21Z</time>
      </trkpt>
      <trkpt lat="46.45113" lon="4.52035">
        <ele>299.076</ele>
        <time>2022-09-25T07:19:27Z</time>
      </trkpt>
      <trkpt lat="46.45107" lon="4.52031">
        <ele>299.876</ele>
        <time>2022-09-25T07:19:32Z</time>
      </trkpt>
      <trkpt lat="46.45101" lon="4.52027">
        <ele>299.876</ele>
        <time>2022-09-25T07:19:38Z</time>
      </trkpt>
      <trkpt lat="46.45094" lon="4.52022">
        <ele>300.176</ele>
        <time>2022-09-25T07:19:44Z</time>
      </trkpt>
      <trkpt lat="46.45087" lon="4.52017">
        <ele>300.176</ele>
        <time>2022-09-25T07:19:50Z</time>
      </trkpt>
      <trkpt lat="46.45081" lon="4.52012">
        <ele>300.876</ele>
        <time>2022-09-25T07:19:56Z</time>
      </trkpt>
      <trkpt lat="46.45074" lon="4.52009">
        <ele>299.776</ele>
        <time>2022-09-25T07:20:02Z</time>
      </trkpt>
      <trkpt lat="46.45068" lon="4.52011">
        <ele>300.275</ele>
        <time>2022-09-25T07:20:07Z</time>
      </trkpt>
      <trkpt lat="46.45063" lon="4.52018">
        <ele>302.075</ele>
        <time>2022-09-25T07:20:13Z</time>
      </trkpt>
      <trkpt lat="46.4506" lon="4.52029">
        <ele>302.375</ele>
        <time>2022-09-25T07:20:19Z</time>
      </trkpt>
      <trkpt lat="46.45058" lon="4.52038">
        <ele>302.775</ele>
        <time>2022-09-25T07:20:25Z</time>
      </trkpt>
      <trkpt lat="46.45058" lon="4.5205">
        <ele>303.375</ele>
        <time>2022-09-25T07:20:31Z</time>
      </trkpt>
      <trkpt lat="46.45057" lon="4.52061">
        <ele>303.676</ele>
        <time>2022-09-25T07:20:37Z</time>
      </trkpt>
      <trkpt lat="46.45058" lon="4.52072">
        <ele>304.376</ele>
        <time>2022-09-25T07:20:43Z</time>
      </trkpt>
      <trkpt lat="46.45059" lon="4.52082">
        <ele>303.876</ele>
        <time>2022-09-25T07:20:49Z</time>
      </trkpt>
      <trkpt lat="46.45059" lon="4.52094">
        <ele>303.776</ele>
        <time>2022-09-25T07:20:56Z</time>
      </trkpt>
      <trkpt lat="46.4506" lon="4.52103">
        <ele>303.876</ele>
        <time>2022-09-25T07:21:01Z</time>
      </trkpt>
      <trkpt lat="46.45061" lon="4.52114">
        <ele>303.476</ele>
        <time>2022-09-25T07:21:07Z</time>
      </trkpt>
      <trkpt lat="46.45062" lon="4.52124">
        <ele>304.076</ele>
        <time>2022-09-25T07:21:12Z</time>
      </trkpt>
      <trkpt lat="46.45062" lon="4.52134">
        <ele>303.876</ele>
        <time>2022-09-25T07:21:18Z</time>
      </trkpt>
      <trkpt lat="46.45063" lon="4.52144">
        <ele>303.676</ele>
        <time>2022-09-25T07:21:23Z</time>
      </trkpt>
      <trkpt lat="46.45062" lon="4.52154">
        <ele>302.876</ele>
        <time>2022-09-25T07:21:29Z</time>
      </trkpt>
      <trkpt lat="46.45064" lon="4.52166">
        <ele>302.576</ele>
        <time>2022-09-25T07:21:35Z</time>
      </trkpt>
      <trkpt lat="46.45064" lon="4.52177">
        <ele>301.876</ele>
        <time>2022-09-25T07:21:41Z</time>
      </trkpt>
      <trkpt lat="46.45065" lon="4.52187">
        <ele>302.176</ele>
        <time>2022-09-25T07:21:46Z</time>
      </trkpt>
      <trkpt lat="46.45065" lon="4.52196">
        <ele>301.676</ele>
        <time>2022-09-25T07:21:52Z</time>
      </trkpt>
      <trkpt lat="46.45066" lon="4.52207">
        <ele>301.276</ele>
        <time>2022-09-25T07:21:57Z</time>
      </trkpt>
      <trkpt lat="46.45066" lon="4.52218">
        <ele>300.476</ele>
        <time>2022-09-25T07:22:04Z</time>
      </trkpt>
      <trkpt lat="46.45061" lon="4.52227">
        <ele>298.676</ele>
        <time>2022-09-25T07:22:09Z</time>
      </trkpt>
      <trkpt lat="46.45055" lon="4.52229">
        <ele>296.076</ele>
        <time>2022-09-25T07:22:15Z</time>
      </trkpt>
      <trkpt lat="46.45048" lon="4.52231">
        <ele>294.476</ele>
        <time>2022-09-25T07:22:20Z</time>
      </trkpt>
      <trkpt lat="46.45042" lon="4.52235">
        <ele>294.176</ele>
        <time>2022-09-25T07:22:26Z</time>
      </trkpt>
      <trkpt lat="46.45034" lon="4.52238">
        <ele>293.476</ele>
        <time>2022-09-25T07:22:31Z</time>
      </trkpt>
      <trkpt lat="46.45028" lon="4.52241">
        <ele>292.276</ele>
        <time>2022-09-25T07:22:37Z</time>
      </trkpt>
      <trkpt lat="46.45021" lon="4.52244">
        <ele>292.676</ele>
        <time>2022-09-25T07:22:43Z</time>
      </trkpt>
      <trkpt lat="46.45014" lon="4.52246">
        <ele>293.176</ele>
        <time>2022-09-25T07:22:49Z</time>
      </trkpt>
      <trkpt lat="46.45006" lon="4.52251">
        <ele>291.476</ele>
        <time>2022-09-25T07:22:56Z</time>
      </trkpt>
      <trkpt lat="46.44999" lon="4.52254">
        <ele>289.875</ele>
        <time>2022-09-25T07:23:01Z</time>
      </trkpt>
      <trkpt lat="46.44993" lon="4.52257">
        <ele>289.275</ele>
        <time>2022-09-25T07:23:07Z</time>
      </trkpt>
      <trkpt lat="46.44986" lon="4.5226">
        <ele>289.375</ele>
        <time>2022-09-25T07:23:12Z</time>
      </trkpt>
      <trkpt lat="46.44979" lon="4.52263">
        <ele>290.475</ele>
        <time>2022-09-25T07:23:18Z</time>
      </trkpt>
      <trkpt lat="46.44973" lon="4.52265">
        <ele>290.875</ele>
        <time>2022-09-25T07:23:23Z</time>
      </trkpt>
      <trkpt lat="46.44965" lon="4.52268">
        <ele>289.875</ele>
        <time>2022-09-25T07:23:30Z</time>
      </trkpt>
      <trkpt lat="46.44959" lon="4.52271">
        <ele>287.675</ele>
        <time>2022-09-25T07:23:35Z</time>
      </trkpt>
      <trkpt lat="46.44953" lon="4.52277">
        <ele>286.975</ele>
        <time>2022-09-25T07:23:41Z</time>
      </trkpt>
      <trkpt lat="46.44949" lon="4.52287">
        <ele>286.575</ele>
        <time>2022-09-25T07:23:47Z</time>
      </trkpt>
      <trkpt lat="46.4495" lon="4.52297">
        <ele>286.275</ele>
        <time>2022-09-25T07:23:53Z</time>
      </trkpt>
      <trkpt lat="46.44952" lon="4.52309">
        <ele>286.175</ele>
        <time>2022-09-25T07:23:59Z</time>
      </trkpt>
      <trkpt lat="46.44951" lon="4.52318">
        <ele>286.175</ele>
        <time>2022-09-25T07:24:05Z</time>
      </trkpt>
      <trkpt lat="46.44952" lon="4.52328">
        <ele>286.975</ele>
        <time>2022-09-25T07:24:11Z</time>
      </trkpt>
      <trkpt lat="46.44953" lon="4.52338">
        <ele>287.075</ele>
        <time>2022-09-25T07:24:16Z</time>
      </trkpt>
      <trkpt lat="46.44955" lon="4.52347">
        <ele>287.775</ele>
        <time>2022-09-25T07:24:22Z</time>
      </trkpt>
      <trkpt lat="46.44957" lon="4.52358">
        <ele>288.275</ele>
        <time>2022-09-25T07:24:28Z</time>
      </trkpt>
      <trkpt lat="46.44958" lon="4.52368">
        <ele>288.475</ele>
        <time>2022-09-25T07:24:34Z</time>
      </trkpt>
      <trkpt lat="46.4496" lon="4.52379">
        <ele>288.275</ele>
        <time>2022-09-25T07:24:39Z</time>
      </trkpt>
      <trkpt lat="46.44961" lon="4.5239">
        <ele>288.075</ele>
        <time>2022-09-25T07:24:45Z</time>
      </trkpt>
      <trkpt lat="46.44964" lon="4.52401">
        <ele>287.876</ele>
        <time>2022-09-25T07:24:51Z</time>
      </trkpt>
      <trkpt lat="46.44966" lon="4.52411">
        <ele>287.576</ele>
        <time>2022-09-25T07:24:57Z</time>
      </trkpt>
      <trkpt lat="46.44968" lon="4.52423">
        <ele>287.376</ele>
        <time>2022-09-25T07:25:03Z</time>
      </trkpt>
      <trkpt lat="46.44967" lon="4.52433">
        <ele>286.276</ele>
        <time>2022-09-25T07:25:10Z</time>
      </trkpt>
      <trkpt lat="46.44961" lon="4.52441">
        <ele>285.076</ele>
        <time>2022-09-25T07:25:15Z</time>
      </trkpt>
      <trkpt lat="46.44956" lon="4.52447">
        <ele>282.676</ele>
        <time>2022-09-25T07:25:22Z</time>
      </trkpt>
      <trkpt lat="46.4495" lon="4.52453">
        <ele>281.876</ele>
        <time>2022-09-25T07:25:29Z</time>
      </trkpt>
      <trkpt lat="46.44944" lon="4.52459">
        <ele>281.375</ele>
        <time>2022-09-25T07:25:35Z</time>
      </trkpt>
      <trkpt lat="46.44939" lon="4.52466">
        <ele>280.175</ele>
        <time>2022-09-25T07:25:40Z</time>
      </trkpt>
      <trkpt lat="46.44934" lon="4.52472">
        <ele>279.475</ele>
        <time>2022-09-25T07:25:45Z</time>
      </trkpt>
      <trkpt lat="46.44928" lon="4.52479">
        <ele>278.375</ele>
        <time>2022-09-25T07:25:51Z</time>
      </trkpt>
      <trkpt lat="46.44922" lon="4.52486">
        <ele>277.375</ele>
        <time>2022-09-25T07:25:57Z</time>
      </trkpt>
      <trkpt lat="46.44911" lon="4.52485">
        <ele>276.275</ele>
        <time>2022-09-25T07:26:25Z</time>
      </trkpt>
      <trkpt lat="46.44902" lon="4.52488">
        <ele>275.175</ele>
        <time>2022-09-25T07:26:31Z</time>
      </trkpt>
      <trkpt lat="46.44896" lon="4.52491">
        <ele>273.675</ele>
        <time>2022-09-25T07:26:38Z</time>
      </trkpt>
      <trkpt lat="46.44889" lon="4.52494">
        <ele>273.275</ele>
        <time>2022-09-25T07:26:44Z</time>
      </trkpt>
      <trkpt lat="46.44882" lon="4.52497">
        <ele>273.675</ele>
        <time>2022-09-25T07:26:49Z</time>
      </trkpt>
      <trkpt lat="46.44874" lon="4.52502">
        <ele>272.775</ele>
        <time>2022-09-25T07:26:55Z</time>
      </trkpt>
      <trkpt lat="46.44868" lon="4.52508">
        <ele>273.075</ele>
        <time>2022-09-25T07:27:01Z</time>
      </trkpt>
      <trkpt lat="46.44861" lon="4.52516">
        <ele>274.175</ele>
        <time>2022-09-25T07:27:07Z</time>
      </trkpt>
      <trkpt lat="46.44855" lon="4.52524">
        <ele>273.675</ele>
        <time>2022-09-25T07:27:14Z</time>
      </trkpt>
      <trkpt lat="46.44849" lon="4.5253">
        <ele>273.775</ele>
        <time>2022-09-25T07:27:19Z</time>
      </trkpt>
      <trkpt lat="46.44844" lon="4.52538">
        <ele>272.775</ele>
        <time>2022-09-25T07:27:25Z</time>
      </trkpt>
      <trkpt lat="46.44838" lon="4.52547">
        <ele>272.075</ele>
        <time>2022-09-25T07:27:31Z</time>
      </trkpt>
      <trkpt lat="46.44834" lon="4.52554">
        <ele>273.075</ele>
        <time>2022-09-25T07:27:37Z</time>
      </trkpt>
      <trkpt lat="46.4483" lon="4.52564">
        <ele>272.875</ele>
        <time>2022-09-25T07:27:43Z</time>
      </trkpt>
      <trkpt lat="46.44827" lon="4.52573">
        <ele>272.575</ele>
        <time>2022-09-25T07:27:48Z</time>
      </trkpt>
      <trkpt lat="46.44823" lon="4.52581">
        <ele>271.475</ele>
        <time>2022-09-25T07:27:53Z</time>
      </trkpt>
      <trkpt lat="46.44818" lon="4.52589">
        <ele>269.875</ele>
        <time>2022-09-25T07:27:59Z</time>
      </trkpt>
      <trkpt lat="46.44814" lon="4.52595">
        <ele>268.375</ele>
        <time>2022-09-25T07:28:04Z</time>
      </trkpt>
      <trkpt lat="46.44808" lon="4.52603">
        <ele>267.175</ele>
        <time>2022-09-25T07:28:09Z</time>
      </trkpt>
      <trkpt lat="46.44802" lon="4.52609">
        <ele>264.575</ele>
        <time>2022-09-25T07:28:15Z</time>
      </trkpt>
      <trkpt lat="46.44796" lon="4.52615">
        <ele>262.975</ele>
        <time>2022-09-25T07:28:20Z</time>
      </trkpt>
      <trkpt lat="46.4479" lon="4.52616">
        <ele>262.475</ele>
        <time>2022-09-25T07:28:27Z</time>
      </trkpt>
      <trkpt lat="46.44783" lon="4.5262">
        <ele>262.575</ele>
        <time>2022-09-25T07:28:33Z</time>
      </trkpt>
      <trkpt lat="46.44775" lon="4.52625">
        <ele>263.975</ele>
        <time>2022-09-25T07:28:39Z</time>
      </trkpt>
      <trkpt lat="46.44768" lon="4.52628">
        <ele>263.675</ele>
        <time>2022-09-25T07:28:44Z</time>
      </trkpt>
      <trkpt lat="46.44762" lon="4.52631">
        <ele>263.175</ele>
        <time>2022-09-25T07:28:52Z</time>
      </trkpt>
      <trkpt lat="46.44759" lon="4.52639">
        <ele>263.475</ele>
        <time>2022-09-25T07:28:58Z</time>
      </trkpt>
      <trkpt lat="46.44758" lon="4.5265">
        <ele>263.775</ele>
        <time>2022-09-25T07:29:04Z</time>
      </trkpt>
      <trkpt lat="46.44758" lon="4.52661">
        <ele>264.775</ele>
        <time>2022-09-25T07:29:09Z</time>
      </trkpt>
      <trkpt lat="46.44756" lon="4.52671">
        <ele>265.575</ele>
        <time>2022-09-25T07:29:15Z</time>
      </trkpt>
      <trkpt lat="46.44756" lon="4.52681">
        <ele>265.775</ele>
        <time>2022-09-25T07:29:20Z</time>
      </trkpt>
      <trkpt lat="46.44758" lon="4.5269">
        <ele>264.175</ele>
        <time>2022-09-25T07:29:27Z</time>
      </trkpt>
      <trkpt lat="46.44758" lon="4.527">
        <ele>264.075</ele>
        <time>2022-09-25T07:29:32Z</time>
      </trkpt>
      <trkpt lat="46.44759" lon="4.5271">
        <ele>262.875</ele>
        <time>2022-09-25T07:29:38Z</time>
      </trkpt>
      <trkpt lat="46.4476" lon="4.5272">
        <ele>262.675</ele>
        <time>2022-09-25T07:29:43Z</time>
      </trkpt>
      <trkpt lat="46.44761" lon="4.52731">
        <ele>262.475</ele>
        <time>2022-09-25T07:29:48Z</time>
      </trkpt>
      <trkpt lat="46.44763" lon="4.52741">
        <ele>262.975</ele>
        <time>2022-09-25T07:29:53Z</time>
      </trkpt>
      <trkpt lat="46.44761" lon="4.52752">
        <ele>263.275</ele>
        <time>2022-09-25T07:29:59Z</time>
      </trkpt>
      <trkpt lat="46.44761" lon="4.52763">
        <ele>262.975</ele>
        <time>2022-09-25T07:30:04Z</time>
      </trkpt>
      <trkpt lat="46.44762" lon="4.52774">
        <ele>263.375</ele>
        <time>2022-09-25T07:30:10Z</time>
      </trkpt>
      <trkpt lat="46.44762" lon="4.52784">
        <ele>263.875</ele>
        <time>2022-09-25T07:30:15Z</time>
      </trkpt>
      <trkpt lat="46.44763" lon="4.52804">
        <ele>265.275</ele>
        <time>2022-09-25T07:30:28Z</time>
      </trkpt>
      <trkpt lat="46.44768" lon="4.52823">
        <ele>266.275</ele>
        <time>2022-09-25T07:30:42Z</time>
      </trkpt>
      <trkpt lat="46.44765" lon="4.52841">
        <ele>266.775</ele>
        <time>2022-09-25T07:30:55Z</time>
      </trkpt>
      <trkpt lat="46.44764" lon="4.5286">
        <ele>267.375</ele>
        <time>2022-09-25T07:31:07Z</time>
      </trkpt>
      <trkpt lat="46.44762" lon="4.52877">
        <ele>268.075</ele>
        <time>2022-09-25T07:31:17Z</time>
      </trkpt>
      <trkpt lat="46.44761" lon="4.52894">
        <ele>269.075</ele>
        <time>2022-09-25T07:31:23Z</time>
      </trkpt>
      <trkpt lat="46.44761" lon="4.52909">
        <ele>269.475</ele>
        <time>2022-09-25T07:31:30Z</time>
      </trkpt>
      <trkpt lat="46.44763" lon="4.52927">
        <ele>269.375</ele>
        <time>2022-09-25T07:31:39Z</time>
      </trkpt>
      <trkpt lat="46.44765" lon="4.52938">
        <ele>269.775</ele>
        <time>2022-09-25T07:31:44Z</time>
      </trkpt>
      <trkpt lat="46.44767" lon="4.52948">
        <ele>269.375</ele>
        <time>2022-09-25T07:31:50Z</time>
      </trkpt>
      <trkpt lat="46.4477" lon="4.52957">
        <ele>268.875</ele>
        <time>2022-09-25T07:31:56Z</time>
      </trkpt>
      <trkpt lat="46.44771" lon="4.52967">
        <ele>268.775</ele>
        <time>2022-09-25T07:32:01Z</time>
      </trkpt>
      <trkpt lat="46.44774" lon="4.52977">
        <ele>267.075</ele>
        <time>2022-09-25T07:32:08Z</time>
      </trkpt>
      <trkpt lat="46.44776" lon="4.52986">
        <ele>266.375</ele>
        <time>2022-09-25T07:32:13Z</time>
      </trkpt>
      <trkpt lat="46.44778" lon="4.52998">
        <ele>265.975</ele>
        <time>2022-09-25T07:32:19Z</time>
      </trkpt>
      <trkpt lat="46.4478" lon="4.53008">
        <ele>266.275</ele>
        <time>2022-09-25T07:32:24Z</time>
      </trkpt>
      <trkpt lat="46.4478" lon="4.5302">
        <ele>267.775</ele>
        <time>2022-09-25T07:32:30Z</time>
      </trkpt>
      <trkpt lat="46.44782" lon="4.53031">
        <ele>269.576</ele>
        <time>2022-09-25T07:32:35Z</time>
      </trkpt>
      <trkpt lat="46.44783" lon="4.53043">
        <ele>270.176</ele>
        <time>2022-09-25T07:32:42Z</time>
      </trkpt>
      <trkpt lat="46.44784" lon="4.53053">
        <ele>270.676</ele>
        <time>2022-09-25T07:32:47Z</time>
      </trkpt>
      <trkpt lat="46.44786" lon="4.53063">
        <ele>271.176</ele>
        <time>2022-09-25T07:32:53Z</time>
      </trkpt>
      <trkpt lat="46.44788" lon="4.53075">
        <ele>270.876</ele>
        <time>2022-09-25T07:32:59Z</time>
      </trkpt>
      <trkpt lat="46.44789" lon="4.53086">
        <ele>269.776</ele>
        <time>2022-09-25T07:33:05Z</time>
      </trkpt>
      <trkpt lat="46.44791" lon="4.53097">
        <ele>268.476</ele>
        <time>2022-09-25T07:33:11Z</time>
      </trkpt>
      <trkpt lat="46.44792" lon="4.53108">
        <ele>267.576</ele>
        <time>2022-09-25T07:33:18Z</time>
      </trkpt>
      <trkpt lat="46.44794" lon="4.53119">
        <ele>268.776</ele>
        <time>2022-09-25T07:33:24Z</time>
      </trkpt>
      <trkpt lat="46.44797" lon="4.53131">
        <ele>269.276</ele>
        <time>2022-09-25T07:33:32Z</time>
      </trkpt>
      <trkpt lat="46.44799" lon="4.53142">
        <ele>268.676</ele>
        <time>2022-09-25T07:33:38Z</time>
      </trkpt>
      <trkpt lat="46.448" lon="4.53155">
        <ele>270.176</ele>
        <time>2022-09-25T07:33:45Z</time>
      </trkpt>
      <trkpt lat="46.44804" lon="4.53173">
        <ele>270.876</ele>
        <time>2022-09-25T07:33:56Z</time>
      </trkpt>
      <trkpt lat="46.4481" lon="4.5319">
        <ele>271.476</ele>
        <time>2022-09-25T07:34:07Z</time>
      </trkpt>
      <trkpt lat="46.44815" lon="4.53208">
        <ele>271.776</ele>
        <time>2022-09-25T07:34:17Z</time>
      </trkpt>
      <trkpt lat="46.44821" lon="4.5322">
        <ele>272.676</ele>
        <time>2022-09-25T07:34:23Z</time>
      </trkpt>
      <trkpt lat="46.44822" lon="4.53232">
        <ele>272.576</ele>
        <time>2022-09-25T07:34:29Z</time>
      </trkpt>
      <trkpt lat="46.44825" lon="4.53243">
        <ele>272.376</ele>
        <time>2022-09-25T07:34:35Z</time>
      </trkpt>
      <trkpt lat="46.44827" lon="4.53253">
        <ele>271.876</ele>
        <time>2022-09-25T07:34:41Z</time>
      </trkpt>
      <trkpt lat="46.44831" lon="4.53263">
        <ele>273.776</ele>
        <time>2022-09-25T07:34:47Z</time>
      </trkpt>
      <trkpt lat="46.44834" lon="4.53272">
        <ele>274.876</ele>
        <time>2022-09-25T07:34:52Z</time>
      </trkpt>
      <trkpt lat="46.44836" lon="4.53283">
        <ele>276.076</ele>
        <time>2022-09-25T07:34:57Z</time>
      </trkpt>
      <trkpt lat="46.44839" lon="4.53294">
        <ele>276.676</ele>
        <time>2022-09-25T07:35:03Z</time>
      </trkpt>
      <trkpt lat="46.44841" lon="4.53303">
        <ele>276.776</ele>
        <time>2022-09-25T07:35:08Z</time>
      </trkpt>
      <trkpt lat="46.44843" lon="4.53314">
        <ele>276.276</ele>
        <time>2022-09-25T07:35:13Z</time>
      </trkpt>
      <trkpt lat="46.44845" lon="4.53324">
        <ele>275.076</ele>
        <time>2022-09-25T07:35:21Z</time>
      </trkpt>
      <trkpt lat="46.4485" lon="4.53343">
        <ele>275.876</ele>
        <time>2022-09-25T07:35:33Z</time>
      </trkpt>
      <trkpt lat="46.44852" lon="4.53354">
        <ele>276.776</ele>
        <time>2022-09-25T07:35:39Z</time>
      </trkpt>
      <trkpt lat="46.44854" lon="4.53364">
        <ele>277.576</ele>
        <time>2022-09-25T07:35:44Z</time>
      </trkpt>
      <trkpt lat="46.44856" lon="4.53374">
        <ele>278.376</ele>
        <time>2022-09-25T07:35:49Z</time>
      </trkpt>
      <trkpt lat="46.44858" lon="4.53385">
        <ele>278.176</ele>
        <time>2022-09-25T07:35:55Z</time>
      </trkpt>
      <trkpt lat="46.4486" lon="4.53395">
        <ele>278.576</ele>
        <time>2022-09-25T07:36:02Z</time>
      </trkpt>
      <trkpt lat="46.44861" lon="4.53406">
        <ele>277.676</ele>
        <time>2022-09-25T07:36:09Z</time>
      </trkpt>
      <trkpt lat="46.44862" lon="4.53418">
        <ele>276.476</ele>
        <time>2022-09-25T07:36:15Z</time>
      </trkpt>
      <trkpt lat="46.44862" lon="4.53429">
        <ele>276.076</ele>
        <time>2022-09-25T07:36:22Z</time>
      </trkpt>
      <trkpt lat="46.4486" lon="4.53439">
        <ele>275.576</ele>
        <time>2022-09-25T07:36:28Z</time>
      </trkpt>
      <trkpt lat="46.44858" lon="4.53449">
        <ele>275.176</ele>
        <time>2022-09-25T07:36:35Z</time>
      </trkpt>
      <trkpt lat="46.44854" lon="4.53458">
        <ele>274.976</ele>
        <time>2022-09-25T07:36:42Z</time>
      </trkpt>
      <trkpt lat="46.44847" lon="4.53466">
        <ele>276.876</ele>
        <time>2022-09-25T07:36:51Z</time>
      </trkpt>
      <trkpt lat="46.44842" lon="4.53473">
        <ele>277.676</ele>
        <time>2022-09-25T07:36:59Z</time>
      </trkpt>
      <trkpt lat="46.44837" lon="4.53481">
        <ele>277.676</ele>
        <time>2022-09-25T07:37:06Z</time>
      </trkpt>
      <trkpt lat="46.44832" lon="4.53489">
        <ele>278.276</ele>
        <time>2022-09-25T07:37:14Z</time>
      </trkpt>
      <trkpt lat="46.44827" lon="4.53499">
        <ele>279.276</ele>
        <time>2022-09-25T07:37:30Z</time>
      </trkpt>
      <trkpt lat="46.44826" lon="4.5351">
        <ele>278.476</ele>
        <time>2022-09-25T07:37:36Z</time>
      </trkpt>
      <trkpt lat="46.44826" lon="4.535">
        <ele>277.576</ele>
        <time>2022-09-25T07:38:15Z</time>
      </trkpt>
      <trkpt lat="46.44819" lon="4.53494">
        <ele>281.376</ele>
        <time>2022-09-25T07:40:44Z</time>
      </trkpt>
      <trkpt lat="46.44812" lon="4.53493">
        <ele>279.976</ele>
        <time>2022-09-25T07:40:51Z</time>
      </trkpt>
      <trkpt lat="46.44805" lon="4.53493">
        <ele>278.876</ele>
        <time>2022-09-25T07:40:59Z</time>
      </trkpt>
      <trkpt lat="46.448" lon="4.53486">
        <ele>276.376</ele>
        <time>2022-09-25T07:41:05Z</time>
      </trkpt>
      <trkpt lat="46.44797" lon="4.53475">
        <ele>276.076</ele>
        <time>2022-09-25T07:41:12Z</time>
      </trkpt>
      <trkpt lat="46.44794" lon="4.53467">
        <ele>277.576</ele>
        <time>2022-09-25T07:41:17Z</time>
      </trkpt>
      <trkpt lat="46.44791" lon="4.53457">
        <ele>278.876</ele>
        <time>2022-09-25T07:41:24Z</time>
      </trkpt>
      <trkpt lat="46.44788" lon="4.53447">
        <ele>279.476</ele>
        <time>2022-09-25T07:41:30Z</time>
      </trkpt>
      <trkpt lat="46.44786" lon="4.53438">
        <ele>279.676</ele>
        <time>2022-09-25T07:41:36Z</time>
      </trkpt>
      <trkpt lat="46.44783" lon="4.53428">
        <ele>280.776</ele>
        <time>2022-09-25T07:41:43Z</time>
      </trkpt>
      <trkpt lat="46.4478" lon="4.53418">
        <ele>281.576</ele>
        <time>2022-09-25T07:41:50Z</time>
      </trkpt>
      <trkpt lat="46.44778" lon="4.53406">
        <ele>283.576</ele>
        <time>2022-09-25T07:41:58Z</time>
      </trkpt>
      <trkpt lat="46.44772" lon="4.53387">
        <ele>283.376</ele>
        <time>2022-09-25T07:42:12Z</time>
      </trkpt>
      <trkpt lat="46.44768" lon="4.53374">
        <ele>284.276</ele>
        <time>2022-09-25T07:42:21Z</time>
      </trkpt>
      <trkpt lat="46.44766" lon="4.53364">
        <ele>285.076</ele>
        <time>2022-09-25T07:42:27Z</time>
      </trkpt>
      <trkpt lat="46.44764" lon="4.53354">
        <ele>285.876</ele>
        <time>2022-09-25T07:42:33Z</time>
      </trkpt>
      <trkpt lat="46.44761" lon="4.53344">
        <ele>286.976</ele>
        <time>2022-09-25T07:42:40Z</time>
      </trkpt>
      <trkpt lat="46.44757" lon="4.53333">
        <ele>288.076</ele>
        <time>2022-09-25T07:42:48Z</time>
      </trkpt>
      <trkpt lat="46.44754" lon="4.53324">
        <ele>289.476</ele>
        <time>2022-09-25T07:42:54Z</time>
      </trkpt>
      <trkpt lat="46.44751" lon="4.53315">
        <ele>290.576</ele>
        <time>2022-09-25T07:43:00Z</time>
      </trkpt>
      <trkpt lat="46.44747" lon="4.53306">
        <ele>289.976</ele>
        <time>2022-09-25T07:43:06Z</time>
      </trkpt>
      <trkpt lat="46.44743" lon="4.53292">
        <ele>289.176</ele>
        <time>2022-09-25T07:43:16Z</time>
      </trkpt>
      <trkpt lat="46.44741" lon="4.53282">
        <ele>288.976</ele>
        <time>2022-09-25T07:43:22Z</time>
      </trkpt>
      <trkpt lat="46.4474" lon="4.53272">
        <ele>288.676</ele>
        <time>2022-09-25T07:43:28Z</time>
      </trkpt>
      <trkpt lat="46.44738" lon="4.5326">
        <ele>287.876</ele>
        <time>2022-09-25T07:43:37Z</time>
      </trkpt>
      <trkpt lat="46.44735" lon="4.53248">
        <ele>287.276</ele>
        <time>2022-09-25T07:43:43Z</time>
      </trkpt>
      <trkpt lat="46.44731" lon="4.5323">
        <ele>288.576</ele>
        <time>2022-09-25T07:43:54Z</time>
      </trkpt>
      <trkpt lat="46.4473" lon="4.53212">
        <ele>290.175</ele>
        <time>2022-09-25T07:44:05Z</time>
      </trkpt>
      <trkpt lat="46.44728" lon="4.532">
        <ele>291.275</ele>
        <time>2022-09-25T07:44:11Z</time>
      </trkpt>
      <trkpt lat="46.44725" lon="4.53192">
        <ele>291.775</ele>
        <time>2022-09-25T07:44:16Z</time>
      </trkpt>
      <trkpt lat="46.44724" lon="4.53179">
        <ele>292.075</ele>
        <time>2022-09-25T07:44:26Z</time>
      </trkpt>
      <trkpt lat="46.4472" lon="4.53162">
        <ele>291.075</ele>
        <time>2022-09-25T07:44:38Z</time>
      </trkpt>
      <trkpt lat="46.44717" lon="4.53152">
        <ele>289.475</ele>
        <time>2022-09-25T07:44:43Z</time>
      </trkpt>
      <trkpt lat="46.44713" lon="4.53143">
        <ele>289.575</ele>
        <time>2022-09-25T07:44:48Z</time>
      </trkpt>
      <trkpt lat="46.44709" lon="4.53133">
        <ele>289.875</ele>
        <time>2022-09-25T07:44:54Z</time>
      </trkpt>
      <trkpt lat="46.44705" lon="4.53125">
        <ele>289.775</ele>
        <time>2022-09-25T07:45:00Z</time>
      </trkpt>
      <trkpt lat="46.447" lon="4.53118">
        <ele>290.375</ele>
        <time>2022-09-25T07:45:07Z</time>
      </trkpt>
      <trkpt lat="46.44696" lon="4.5311">
        <ele>290.075</ele>
        <time>2022-09-25T07:45:13Z</time>
      </trkpt>
      <trkpt lat="46.44691" lon="4.53097">
        <ele>290.375</ele>
        <time>2022-09-25T07:45:23Z</time>
      </trkpt>
      <trkpt lat="46.44685" lon="4.53089">
        <ele>291.475</ele>
        <time>2022-09-25T07:45:30Z</time>
      </trkpt>
      <trkpt lat="46.44678" lon="4.53079">
        <ele>292.675</ele>
        <time>2022-09-25T07:45:38Z</time>
      </trkpt>
      <trkpt lat="46.4467" lon="4.53067">
        <ele>294.275</ele>
        <time>2022-09-25T07:45:50Z</time>
      </trkpt>
      <trkpt lat="46.44657" lon="4.53052">
        <ele>293.475</ele>
        <time>2022-09-25T07:46:06Z</time>
      </trkpt>
      <trkpt lat="46.44646" lon="4.53039">
        <ele>294.075</ele>
        <time>2022-09-25T07:46:18Z</time>
      </trkpt>
      <trkpt lat="46.44635" lon="4.5303">
        <ele>293.775</ele>
        <time>2022-09-25T07:46:33Z</time>
      </trkpt>
      <trkpt lat="46.44623" lon="4.53021">
        <ele>293.075</ele>
        <time>2022-09-25T07:46:43Z</time>
      </trkpt>
      <trkpt lat="46.4461" lon="4.53012">
        <ele>294.375</ele>
        <time>2022-09-25T07:46:53Z</time>
      </trkpt>
      <trkpt lat="46.44603" lon="4.53008">
        <ele>294.375</ele>
        <time>2022-09-25T07:46:59Z</time>
      </trkpt>
      <trkpt lat="46.44595" lon="4.53002">
        <ele>295.575</ele>
        <time>2022-09-25T07:47:04Z</time>
      </trkpt>
      <trkpt lat="46.4459" lon="4.52995">
        <ele>297.975</ele>
        <time>2022-09-25T07:47:09Z</time>
      </trkpt>
      <trkpt lat="46.44584" lon="4.52986">
        <ele>299.475</ele>
        <time>2022-09-25T07:47:15Z</time>
      </trkpt>
      <trkpt lat="46.44578" lon="4.5298">
        <ele>298.375</ele>
        <time>2022-09-25T07:47:21Z</time>
      </trkpt>
      <trkpt lat="46.44571" lon="4.52973">
        <ele>297.875</ele>
        <time>2022-09-25T07:47:27Z</time>
      </trkpt>
      <trkpt lat="46.44565" lon="4.52967">
        <ele>297.475</ele>
        <time>2022-09-25T07:47:32Z</time>
      </trkpt>
      <trkpt lat="46.44559" lon="4.52962">
        <ele>296.375</ele>
        <time>2022-09-25T07:47:37Z</time>
      </trkpt>
      <trkpt lat="46.44553" lon="4.52955">
        <ele>295.475</ele>
        <time>2022-09-25T07:47:43Z</time>
      </trkpt>
      <trkpt lat="46.44547" lon="4.52948">
        <ele>295.575</ele>
        <time>2022-09-25T07:47:49Z</time>
      </trkpt>
      <trkpt lat="46.44542" lon="4.5294">
        <ele>297.075</ele>
        <time>2022-09-25T07:47:55Z</time>
      </trkpt>
      <trkpt lat="46.44537" lon="4.52933">
        <ele>299.275</ele>
        <time>2022-09-25T07:48:02Z</time>
      </trkpt>
      <trkpt lat="46.4453" lon="4.52931">
        <ele>298.175</ele>
        <time>2022-09-25T07:48:08Z</time>
      </trkpt>
      <trkpt lat="46.44523" lon="4.52926">
        <ele>297.675</ele>
        <time>2022-09-25T07:48:13Z</time>
      </trkpt>
      <trkpt lat="46.44516" lon="4.5292">
        <ele>297.175</ele>
        <time>2022-09-25T07:48:19Z</time>
      </trkpt>
      <trkpt lat="46.44509" lon="4.52917">
        <ele>297.075</ele>
        <time>2022-09-25T07:48:25Z</time>
      </trkpt>
      <trkpt lat="46.44501" lon="4.52912">
        <ele>298.475</ele>
        <time>2022-09-25T07:48:31Z</time>
      </trkpt>
      <trkpt lat="46.44494" lon="4.52909">
        <ele>302.075</ele>
        <time>2022-09-25T07:48:45Z</time>
      </trkpt>
      <trkpt lat="46.44488" lon="4.529">
        <ele>303.075</ele>
        <time>2022-09-25T07:48:51Z</time>
      </trkpt>
      <trkpt lat="46.44485" lon="4.5289">
        <ele>303.375</ele>
        <time>2022-09-25T07:48:57Z</time>
      </trkpt>
      <trkpt lat="46.44483" lon="4.5288">
        <ele>302.775</ele>
        <time>2022-09-25T07:49:03Z</time>
      </trkpt>
      <trkpt lat="46.44478" lon="4.52861">
        <ele>302.675</ele>
        <time>2022-09-25T07:49:14Z</time>
      </trkpt>
      <trkpt lat="46.44474" lon="4.5285">
        <ele>302.575</ele>
        <time>2022-09-25T07:49:21Z</time>
      </trkpt>
      <trkpt lat="46.44472" lon="4.52841">
        <ele>303.275</ele>
        <time>2022-09-25T07:49:27Z</time>
      </trkpt>
      <trkpt lat="46.44469" lon="4.52828">
        <ele>303.174</ele>
        <time>2022-09-25T07:49:34Z</time>
      </trkpt>
      <trkpt lat="46.44467" lon="4.52819">
        <ele>303.174</ele>
        <time>2022-09-25T07:49:39Z</time>
      </trkpt>
      <trkpt lat="46.44464" lon="4.5281">
        <ele>302.674</ele>
        <time>2022-09-25T07:49:44Z</time>
      </trkpt>
      <trkpt lat="46.44459" lon="4.52794">
        <ele>301.074</ele>
        <time>2022-09-25T07:49:54Z</time>
      </trkpt>
      <trkpt lat="46.44456" lon="4.52784">
        <ele>298.674</ele>
        <time>2022-09-25T07:50:00Z</time>
      </trkpt>
      <trkpt lat="46.44451" lon="4.52775">
        <ele>297.374</ele>
        <time>2022-09-25T07:50:06Z</time>
      </trkpt>
      <trkpt lat="46.44447" lon="4.52766">
        <ele>296.074</ele>
        <time>2022-09-25T07:50:12Z</time>
      </trkpt>
      <trkpt lat="46.44444" lon="4.52756">
        <ele>295.274</ele>
        <time>2022-09-25T07:50:17Z</time>
      </trkpt>
      <trkpt lat="46.4444" lon="4.52743">
        <ele>295.374</ele>
        <time>2022-09-25T07:50:26Z</time>
      </trkpt>
      <trkpt lat="46.44437" lon="4.52733">
        <ele>294.674</ele>
        <time>2022-09-25T07:50:32Z</time>
      </trkpt>
      <trkpt lat="46.44434" lon="4.52724">
        <ele>294.774</ele>
        <time>2022-09-25T07:50:37Z</time>
      </trkpt>
      <trkpt lat="46.4443" lon="4.52711">
        <ele>295.574</ele>
        <time>2022-09-25T07:50:43Z</time>
      </trkpt>
      <trkpt lat="46.44427" lon="4.52701">
        <ele>296.674</ele>
        <time>2022-09-25T07:50:49Z</time>
      </trkpt>
      <trkpt lat="46.44424" lon="4.52692">
        <ele>297.774</ele>
        <time>2022-09-25T07:50:55Z</time>
      </trkpt>
      <trkpt lat="46.4442" lon="4.52683">
        <ele>298.274</ele>
        <time>2022-09-25T07:51:00Z</time>
      </trkpt>
      <trkpt lat="46.44416" lon="4.52674">
        <ele>300.274</ele>
        <time>2022-09-25T07:51:06Z</time>
      </trkpt>
      <trkpt lat="46.44412" lon="4.52666">
        <ele>301.174</ele>
        <time>2022-09-25T07:51:12Z</time>
      </trkpt>
      <trkpt lat="46.44408" lon="4.52657">
        <ele>301.674</ele>
        <time>2022-09-25T07:51:18Z</time>
      </trkpt>
      <trkpt lat="46.44404" lon="4.5265">
        <ele>302.774</ele>
        <time>2022-09-25T07:51:24Z</time>
      </trkpt>
      <trkpt lat="46.44396" lon="4.52638">
        <ele>303.474</ele>
        <time>2022-09-25T07:51:35Z</time>
      </trkpt>
      <trkpt lat="46.44392" lon="4.5263">
        <ele>303.674</ele>
        <time>2022-09-25T07:51:41Z</time>
      </trkpt>
      <trkpt lat="46.44388" lon="4.52621">
        <ele>303.774</ele>
        <time>2022-09-25T07:51:47Z</time>
      </trkpt>
      <trkpt lat="46.44383" lon="4.5261">
        <ele>304.274</ele>
        <time>2022-09-25T07:51:54Z</time>
      </trkpt>
      <trkpt lat="46.44378" lon="4.52602">
        <ele>304.674</ele>
        <time>2022-09-25T07:51:59Z</time>
      </trkpt>
      <trkpt lat="46.44374" lon="4.52593">
        <ele>304.874</ele>
        <time>2022-09-25T07:52:04Z</time>
      </trkpt>
      <trkpt lat="46.4437" lon="4.52584">
        <ele>303.874</ele>
        <time>2022-09-25T07:52:10Z</time>
      </trkpt>
      <trkpt lat="46.44366" lon="4.52575">
        <ele>304.074</ele>
        <time>2022-09-25T07:52:16Z</time>
      </trkpt>
      <trkpt lat="46.44361" lon="4.52566">
        <ele>303.974</ele>
        <time>2022-09-25T07:52:21Z</time>
      </trkpt>
      <trkpt lat="46.44357" lon="4.52557">
        <ele>304.274</ele>
        <time>2022-09-25T07:52:27Z</time>
      </trkpt>
      <trkpt lat="46.44352" lon="4.5255">
        <ele>304.274</ele>
        <time>2022-09-25T07:52:32Z</time>
      </trkpt>
      <trkpt lat="46.44348" lon="4.52541">
        <ele>304.774</ele>
        <time>2022-09-25T07:52:37Z</time>
      </trkpt>
      <trkpt lat="46.44342" lon="4.52533">
        <ele>303.774</ele>
        <time>2022-09-25T07:52:43Z</time>
      </trkpt>
      <trkpt lat="46.44337" lon="4.52526">
        <ele>302.774</ele>
        <time>2022-09-25T07:52:48Z</time>
      </trkpt>
      <trkpt lat="46.44333" lon="4.52519">
        <ele>304.174</ele>
        <time>2022-09-25T07:52:54Z</time>
      </trkpt>
      <trkpt lat="46.44329" lon="4.5251">
        <ele>304.774</ele>
        <time>2022-09-25T07:53:00Z</time>
      </trkpt>
      <trkpt lat="46.44325" lon="4.52503">
        <ele>305.274</ele>
        <time>2022-09-25T07:53:05Z</time>
      </trkpt>
      <trkpt lat="46.44319" lon="4.52494">
        <ele>304.574</ele>
        <time>2022-09-25T07:53:11Z</time>
      </trkpt>
      <trkpt lat="46.44314" lon="4.52488">
        <ele>303.874</ele>
        <time>2022-09-25T07:53:16Z</time>
      </trkpt>
      <trkpt lat="46.44309" lon="4.52479">
        <ele>302.474</ele>
        <time>2022-09-25T07:53:22Z</time>
      </trkpt>
      <trkpt lat="46.44304" lon="4.5247">
        <ele>302.174</ele>
        <time>2022-09-25T07:53:27Z</time>
      </trkpt>
      <trkpt lat="46.443" lon="4.52462">
        <ele>301.774</ele>
        <time>2022-09-25T07:53:33Z</time>
      </trkpt>
      <trkpt lat="46.44294" lon="4.52453">
        <ele>301.574</ele>
        <time>2022-09-25T07:53:39Z</time>
      </trkpt>
      <trkpt lat="46.44289" lon="4.52447">
        <ele>300.974</ele>
        <time>2022-09-25T07:53:44Z</time>
      </trkpt>
      <trkpt lat="46.44283" lon="4.52439">
        <ele>300.074</ele>
        <time>2022-09-25T07:53:50Z</time>
      </trkpt>
      <trkpt lat="46.44277" lon="4.52431">
        <ele>299.774</ele>
        <time>2022-09-25T07:53:55Z</time>
      </trkpt>
      <trkpt lat="46.44274" lon="4.52421">
        <ele>300.374</ele>
        <time>2022-09-25T07:54:02Z</time>
      </trkpt>
      <trkpt lat="46.44268" lon="4.52403">
        <ele>305.374</ele>
        <time>2022-09-25T07:54:55Z</time>
      </trkpt>
      <trkpt lat="46.44264" lon="4.52394">
        <ele>305.474</ele>
        <time>2022-09-25T07:55:02Z</time>
      </trkpt>
      <trkpt lat="46.44262" lon="4.52375">
        <ele>307.874</ele>
        <time>2022-09-25T07:55:16Z</time>
      </trkpt>
      <trkpt lat="46.44264" lon="4.52357">
        <ele>309.674</ele>
        <time>2022-09-25T07:55:47Z</time>
      </trkpt>
      <trkpt lat="46.44266" lon="4.52346">
        <ele>309.574</ele>
        <time>2022-09-25T07:55:52Z</time>
      </trkpt>
      <trkpt lat="46.44266" lon="4.5233">
        <ele>309.074</ele>
        <time>2022-09-25T07:56:00Z</time>
      </trkpt>
      <trkpt lat="46.44265" lon="4.5232">
        <ele>308.274</ele>
        <time>2022-09-25T07:56:06Z</time>
      </trkpt>
      <trkpt lat="46.44264" lon="4.5231">
        <ele>307.274</ele>
        <time>2022-09-25T07:56:12Z</time>
      </trkpt>
      <trkpt lat="46.44264" lon="4.52298">
        <ele>305.974</ele>
        <time>2022-09-25T07:56:19Z</time>
      </trkpt>
      <trkpt lat="46.44261" lon="4.5228">
        <ele>305.173</ele>
        <time>2022-09-25T07:56:29Z</time>
      </trkpt>
      <trkpt lat="46.44255" lon="4.52264">
        <ele>304.573</ele>
        <time>2022-09-25T07:56:38Z</time>
      </trkpt>
      <trkpt lat="46.44252" lon="4.52255">
        <ele>304.473</ele>
        <time>2022-09-25T07:56:43Z</time>
      </trkpt>
      <trkpt lat="46.44249" lon="4.52246">
        <ele>305.473</ele>
        <time>2022-09-25T07:56:49Z</time>
      </trkpt>
      <trkpt lat="46.44246" lon="4.52236">
        <ele>306.973</ele>
        <time>2022-09-25T07:56:55Z</time>
      </trkpt>
      <trkpt lat="46.44243" lon="4.52226">
        <ele>308.573</ele>
        <time>2022-09-25T07:57:02Z</time>
      </trkpt>
      <trkpt lat="46.44239" lon="4.52215">
        <ele>309.473</ele>
        <time>2022-09-25T07:57:09Z</time>
      </trkpt>
      <trkpt lat="46.44234" lon="4.52205">
        <ele>309.873</ele>
        <time>2022-09-25T07:57:15Z</time>
      </trkpt>
      <trkpt lat="46.44228" lon="4.52192">
        <ele>309.973</ele>
        <time>2022-09-25T07:57:26Z</time>
      </trkpt>
      <trkpt lat="46.44222" lon="4.52182">
        <ele>310.173</ele>
        <time>2022-09-25T07:57:31Z</time>
      </trkpt>
      <trkpt lat="46.4422" lon="4.52174">
        <ele>310.173</ele>
        <time>2022-09-25T07:57:36Z</time>
      </trkpt>
      <trkpt lat="46.44216" lon="4.52165">
        <ele>310.473</ele>
        <time>2022-09-25T07:57:41Z</time>
      </trkpt>
      <trkpt lat="46.44213" lon="4.52154">
        <ele>310.373</ele>
        <time>2022-09-25T07:57:47Z</time>
      </trkpt>
      <trkpt lat="46.44211" lon="4.52145">
        <ele>310.973</ele>
        <time>2022-09-25T07:57:52Z</time>
      </trkpt>
      <trkpt lat="46.44206" lon="4.52138">
        <ele>313.173</ele>
        <time>2022-09-25T07:57:57Z</time>
      </trkpt>
      <trkpt lat="46.44201" lon="4.52127">
        <ele>316.073</ele>
        <time>2022-09-25T07:58:04Z</time>
      </trkpt>
      <trkpt lat="46.44197" lon="4.52117">
        <ele>314.973</ele>
        <time>2022-09-25T07:58:09Z</time>
      </trkpt>
      <trkpt lat="46.44194" lon="4.52108">
        <ele>314.773</ele>
        <time>2022-09-25T07:58:15Z</time>
      </trkpt>
      <trkpt lat="46.4419" lon="4.521">
        <ele>312.573</ele>
        <time>2022-09-25T07:58:23Z</time>
      </trkpt>
      <trkpt lat="46.44187" lon="4.52089">
        <ele>311.873</ele>
        <time>2022-09-25T07:58:29Z</time>
      </trkpt>
      <trkpt lat="46.44183" lon="4.52081">
        <ele>311.773</ele>
        <time>2022-09-25T07:58:34Z</time>
      </trkpt>
      <trkpt lat="46.4418" lon="4.52073">
        <ele>312.073</ele>
        <time>2022-09-25T07:58:39Z</time>
      </trkpt>
      <trkpt lat="46.44174" lon="4.52066">
        <ele>312.673</ele>
        <time>2022-09-25T07:58:45Z</time>
      </trkpt>
      <trkpt lat="46.44169" lon="4.52059">
        <ele>313.073</ele>
        <time>2022-09-25T07:58:51Z</time>
      </trkpt>
      <trkpt lat="46.44165" lon="4.52047">
        <ele>313.173</ele>
        <time>2022-09-25T07:58:56Z</time>
      </trkpt>
      <trkpt lat="46.4416" lon="4.52039">
        <ele>312.573</ele>
        <time>2022-09-25T07:59:02Z</time>
      </trkpt>
      <trkpt lat="46.4415" lon="4.52022">
        <ele>309.173</ele>
        <time>2022-09-25T07:59:19Z</time>
      </trkpt>
      <trkpt lat="46.44145" lon="4.5201">
        <ele>308.973</ele>
        <time>2022-09-25T07:59:29Z</time>
      </trkpt>
      <trkpt lat="46.44134" lon="4.51993">
        <ele>311.273</ele>
        <time>2022-09-25T07:59:43Z</time>
      </trkpt>
      <trkpt lat="46.44129" lon="4.51984">
        <ele>311.673</ele>
        <time>2022-09-25T07:59:48Z</time>
      </trkpt>
      <trkpt lat="46.44125" lon="4.51976">
        <ele>312.873</ele>
        <time>2022-09-25T07:59:54Z</time>
      </trkpt>
      <trkpt lat="46.4412" lon="4.51967">
        <ele>312.673</ele>
        <time>2022-09-25T08:00:00Z</time>
      </trkpt>
      <trkpt lat="46.44114" lon="4.51959">
        <ele>312.673</ele>
        <time>2022-09-25T08:00:05Z</time>
      </trkpt>
      <trkpt lat="46.44108" lon="4.51952">
        <ele>313.173</ele>
        <time>2022-09-25T08:00:11Z</time>
      </trkpt>
      <trkpt lat="46.44103" lon="4.51943">
        <ele>315.073</ele>
        <time>2022-09-25T08:00:16Z</time>
      </trkpt>
      <trkpt lat="46.441" lon="4.51921">
        <ele>320.273</ele>
        <time>2022-09-25T08:00:38Z</time>
      </trkpt>
      <trkpt lat="46.44099" lon="4.51911">
        <ele>320.173</ele>
        <time>2022-09-25T08:00:48Z</time>
      </trkpt>
      <trkpt lat="46.44096" lon="4.51893">
        <ele>321.273</ele>
        <time>2022-09-25T08:00:59Z</time>
      </trkpt>
      <trkpt lat="46.44094" lon="4.51883">
        <ele>322.373</ele>
        <time>2022-09-25T08:01:05Z</time>
      </trkpt>
      <trkpt lat="46.44092" lon="4.51872">
        <ele>323.073</ele>
        <time>2022-09-25T08:01:11Z</time>
      </trkpt>
      <trkpt lat="46.44089" lon="4.51863">
        <ele>324.873</ele>
        <time>2022-09-25T08:01:17Z</time>
      </trkpt>
      <trkpt lat="46.44086" lon="4.51853">
        <ele>325.473</ele>
        <time>2022-09-25T08:01:23Z</time>
      </trkpt>
      <trkpt lat="46.44083" lon="4.51845">
        <ele>323.873</ele>
        <time>2022-09-25T08:01:29Z</time>
      </trkpt>
      <trkpt lat="46.4408" lon="4.51836">
        <ele>322.473</ele>
        <time>2022-09-25T08:01:34Z</time>
      </trkpt>
      <trkpt lat="46.44078" lon="4.51826">
        <ele>322.373</ele>
        <time>2022-09-25T08:01:41Z</time>
      </trkpt>
      <trkpt lat="46.44076" lon="4.51816">
        <ele>322.673</ele>
        <time>2022-09-25T08:01:48Z</time>
      </trkpt>
      <trkpt lat="46.44076" lon="4.51806">
        <ele>322.073</ele>
        <time>2022-09-25T08:01:53Z</time>
      </trkpt>
      <trkpt lat="46.44075" lon="4.51795">
        <ele>322.973</ele>
        <time>2022-09-25T08:01:59Z</time>
      </trkpt>
      <trkpt lat="46.44072" lon="4.51776">
        <ele>324.473</ele>
        <time>2022-09-25T08:02:12Z</time>
      </trkpt>
      <trkpt lat="46.44071" lon="4.51766">
        <ele>325.673</ele>
        <time>2022-09-25T08:02:18Z</time>
      </trkpt>
      <trkpt lat="46.44071" lon="4.51756">
        <ele>326.573</ele>
        <time>2022-09-25T08:02:24Z</time>
      </trkpt>
      <trkpt lat="46.4407" lon="4.51745">
        <ele>326.873</ele>
        <time>2022-09-25T08:02:30Z</time>
      </trkpt>
      <trkpt lat="46.44068" lon="4.5173">
        <ele>326.773</ele>
        <time>2022-09-25T08:02:39Z</time>
      </trkpt>
      <trkpt lat="46.44067" lon="4.5172">
        <ele>325.473</ele>
        <time>2022-09-25T08:02:44Z</time>
      </trkpt>
      <trkpt lat="46.44066" lon="4.5171">
        <ele>325.173</ele>
        <time>2022-09-25T08:02:49Z</time>
      </trkpt>
      <trkpt lat="46.44064" lon="4.51699">
        <ele>325.372</ele>
        <time>2022-09-25T08:02:54Z</time>
      </trkpt>
      <trkpt lat="46.44063" lon="4.51688">
        <ele>325.472</ele>
        <time>2022-09-25T08:03:00Z</time>
      </trkpt>
      <trkpt lat="46.44061" lon="4.51679">
        <ele>326.472</ele>
        <time>2022-09-25T08:03:06Z</time>
      </trkpt>
      <trkpt lat="46.44061" lon="4.51655">
        <ele>328.272</ele>
        <time>2022-09-25T08:03:20Z</time>
      </trkpt>
      <trkpt lat="46.44061" lon="4.51644">
        <ele>328.072</ele>
        <time>2022-09-25T08:03:25Z</time>
      </trkpt>
      <trkpt lat="46.44065" lon="4.51631">
        <ele>328.072</ele>
        <time>2022-09-25T08:03:31Z</time>
      </trkpt>
      <trkpt lat="46.44064" lon="4.51622">
        <ele>327.572</ele>
        <time>2022-09-25T08:03:36Z</time>
      </trkpt>
      <trkpt lat="46.44065" lon="4.51611">
        <ele>328.272</ele>
        <time>2022-09-25T08:03:42Z</time>
      </trkpt>
      <trkpt lat="46.44064" lon="4.51601">
        <ele>329.072</ele>
        <time>2022-09-25T08:03:48Z</time>
      </trkpt>
      <trkpt lat="46.44064" lon="4.51584">
        <ele>327.772</ele>
        <time>2022-09-25T08:03:58Z</time>
      </trkpt>
      <trkpt lat="46.44064" lon="4.51574">
        <ele>327.272</ele>
        <time>2022-09-25T08:04:03Z</time>
      </trkpt>
      <trkpt lat="46.44065" lon="4.51564">
        <ele>326.572</ele>
        <time>2022-09-25T08:04:09Z</time>
      </trkpt>
      <trkpt lat="46.44066" lon="4.51544">
        <ele>327.372</ele>
        <time>2022-09-25T08:04:23Z</time>
      </trkpt>
      <trkpt lat="46.44065" lon="4.51533">
        <ele>326.972</ele>
        <time>2022-09-25T08:04:29Z</time>
      </trkpt>
      <trkpt lat="46.44065" lon="4.51514">
        <ele>328.172</ele>
        <time>2022-09-25T08:04:41Z</time>
      </trkpt>
      <trkpt lat="46.44063" lon="4.51501">
        <ele>328.272</ele>
        <time>2022-09-25T08:04:47Z</time>
      </trkpt>
      <trkpt lat="46.44063" lon="4.51486">
        <ele>329.372</ele>
        <time>2022-09-25T08:04:54Z</time>
      </trkpt>
      <trkpt lat="46.44064" lon="4.51475">
        <ele>329.772</ele>
        <time>2022-09-25T08:05:00Z</time>
      </trkpt>
      <trkpt lat="46.44065" lon="4.51464">
        <ele>328.872</ele>
        <time>2022-09-25T08:05:05Z</time>
      </trkpt>
      <trkpt lat="46.44066" lon="4.51453">
        <ele>327.872</ele>
        <time>2022-09-25T08:05:11Z</time>
      </trkpt>
      <trkpt lat="46.44067" lon="4.51433">
        <ele>326.972</ele>
        <time>2022-09-25T08:05:23Z</time>
      </trkpt>
      <trkpt lat="46.44068" lon="4.51419">
        <ele>325.672</ele>
        <time>2022-09-25T08:05:31Z</time>
      </trkpt>
      <trkpt lat="46.4407" lon="4.51408">
        <ele>325.772</ele>
        <time>2022-09-25T08:05:37Z</time>
      </trkpt>
      <trkpt lat="46.44071" lon="4.51397">
        <ele>326.372</ele>
        <time>2022-09-25T08:05:43Z</time>
      </trkpt>
      <trkpt lat="46.44071" lon="4.5138">
        <ele>327.872</ele>
        <time>2022-09-25T08:05:53Z</time>
      </trkpt>
      <trkpt lat="46.44072" lon="4.51369">
        <ele>328.972</ele>
        <time>2022-09-25T08:06:00Z</time>
      </trkpt>
      <trkpt lat="46.44073" lon="4.51357">
        <ele>329.472</ele>
        <time>2022-09-25T08:06:06Z</time>
      </trkpt>
      <trkpt lat="46.44075" lon="4.51339">
        <ele>330.472</ele>
        <time>2022-09-25T08:06:17Z</time>
      </trkpt>
      <trkpt lat="46.44077" lon="4.51327">
        <ele>330.772</ele>
        <time>2022-09-25T08:06:23Z</time>
      </trkpt>
      <trkpt lat="46.44079" lon="4.51318">
        <ele>331.272</ele>
        <time>2022-09-25T08:06:28Z</time>
      </trkpt>
      <trkpt lat="46.4408" lon="4.51308">
        <ele>330.872</ele>
        <time>2022-09-25T08:06:34Z</time>
      </trkpt>
      <trkpt lat="46.4408" lon="4.51297">
        <ele>331.372</ele>
        <time>2022-09-25T08:06:41Z</time>
      </trkpt>
      <trkpt lat="46.44081" lon="4.51287">
        <ele>331.572</ele>
        <time>2022-09-25T08:06:47Z</time>
      </trkpt>
      <trkpt lat="46.44082" lon="4.51277">
        <ele>332.072</ele>
        <time>2022-09-25T08:06:52Z</time>
      </trkpt>
      <trkpt lat="46.44082" lon="4.51267">
        <ele>334.272</ele>
        <time>2022-09-25T08:06:58Z</time>
      </trkpt>
      <trkpt lat="46.44085" lon="4.51252">
        <ele>342.872</ele>
        <time>2022-09-25T08:08:48Z</time>
      </trkpt>
      <trkpt lat="46.44086" lon="4.51242">
        <ele>341.372</ele>
        <time>2022-09-25T08:08:54Z</time>
      </trkpt>
      <trkpt lat="46.44089" lon="4.51231">
        <ele>339.572</ele>
        <time>2022-09-25T08:09:00Z</time>
      </trkpt>
      <trkpt lat="46.44091" lon="4.51218">
        <ele>338.472</ele>
        <time>2022-09-25T08:09:08Z</time>
      </trkpt>
      <trkpt lat="46.44094" lon="4.51199">
        <ele>336.972</ele>
        <time>2022-09-25T08:09:24Z</time>
      </trkpt>
      <trkpt lat="46.44095" lon="4.51181">
        <ele>336.572</ele>
        <time>2022-09-25T08:09:37Z</time>
      </trkpt>
      <trkpt lat="46.44094" lon="4.51163">
        <ele>335.772</ele>
        <time>2022-09-25T08:09:50Z</time>
      </trkpt>
      <trkpt lat="46.44096" lon="4.51144">
        <ele>335.972</ele>
        <time>2022-09-25T08:10:01Z</time>
      </trkpt>
      <trkpt lat="46.44096" lon="4.5113">
        <ele>336.672</ele>
        <time>2022-09-25T08:10:07Z</time>
      </trkpt>
      <trkpt lat="46.44098" lon="4.51115">
        <ele>338.272</ele>
        <time>2022-09-25T08:10:16Z</time>
      </trkpt>
      <trkpt lat="46.44099" lon="4.51104">
        <ele>340.072</ele>
        <time>2022-09-25T08:10:23Z</time>
      </trkpt>
      <trkpt lat="46.44103" lon="4.51092">
        <ele>341.572</ele>
        <time>2022-09-25T08:10:30Z</time>
      </trkpt>
      <trkpt lat="46.44114" lon="4.51086">
        <ele>344.072</ele>
        <time>2022-09-25T08:10:43Z</time>
      </trkpt>
      <trkpt lat="46.44122" lon="4.51084">
        <ele>345.372</ele>
        <time>2022-09-25T08:10:50Z</time>
      </trkpt>
      <trkpt lat="46.4413" lon="4.51078">
        <ele>346.772</ele>
        <time>2022-09-25T08:10:58Z</time>
      </trkpt>
      <trkpt lat="46.44137" lon="4.51073">
        <ele>347.372</ele>
        <time>2022-09-25T08:11:03Z</time>
      </trkpt>
      <trkpt lat="46.44143" lon="4.51069">
        <ele>348.072</ele>
        <time>2022-09-25T08:11:08Z</time>
      </trkpt>
      <trkpt lat="46.44148" lon="4.51064">
        <ele>349.172</ele>
        <time>2022-09-25T08:11:14Z</time>
      </trkpt>
      <trkpt lat="46.44155" lon="4.51059">
        <ele>349.972</ele>
        <time>2022-09-25T08:11:19Z</time>
      </trkpt>
      <trkpt lat="46.44161" lon="4.51055">
        <ele>350.272</ele>
        <time>2022-09-25T08:11:25Z</time>
      </trkpt>
      <trkpt lat="46.44167" lon="4.51049">
        <ele>350.872</ele>
        <time>2022-09-25T08:11:31Z</time>
      </trkpt>
      <trkpt lat="46.44173" lon="4.51043">
        <ele>351.472</ele>
        <time>2022-09-25T08:11:37Z</time>
      </trkpt>
      <trkpt lat="46.44177" lon="4.51036">
        <ele>352.072</ele>
        <time>2022-09-25T08:11:44Z</time>
      </trkpt>
      <trkpt lat="46.44184" lon="4.51031">
        <ele>352.972</ele>
        <time>2022-09-25T08:11:49Z</time>
      </trkpt>
      <trkpt lat="46.44191" lon="4.51023">
        <ele>352.972</ele>
        <time>2022-09-25T08:11:57Z</time>
      </trkpt>
      <trkpt lat="46.44197" lon="4.51015">
        <ele>352.172</ele>
        <time>2022-09-25T08:12:04Z</time>
      </trkpt>
      <trkpt lat="46.44201" lon="4.51006">
        <ele>350.472</ele>
        <time>2022-09-25T08:12:09Z</time>
      </trkpt>
      <trkpt lat="46.44204" lon="4.50995">
        <ele>348.972</ele>
        <time>2022-09-25T08:12:15Z</time>
      </trkpt>
      <trkpt lat="46.44206" lon="4.50985">
        <ele>348.372</ele>
        <time>2022-09-25T08:12:20Z</time>
      </trkpt>
      <trkpt lat="46.4421" lon="4.50977">
        <ele>348.272</ele>
        <time>2022-09-25T08:12:26Z</time>
      </trkpt>
      <trkpt lat="46.44214" lon="4.50969">
        <ele>348.372</ele>
        <time>2022-09-25T08:12:31Z</time>
      </trkpt>
      <trkpt lat="46.44219" lon="4.50963">
        <ele>349.672</ele>
        <time>2022-09-25T08:12:36Z</time>
      </trkpt>
      <trkpt lat="46.44226" lon="4.50958">
        <ele>350.772</ele>
        <time>2022-09-25T08:12:42Z</time>
      </trkpt>
      <trkpt lat="46.44232" lon="4.50952">
        <ele>351.272</ele>
        <time>2022-09-25T08:12:47Z</time>
      </trkpt>
      <trkpt lat="46.44238" lon="4.50945">
        <ele>351.872</ele>
        <time>2022-09-25T08:12:53Z</time>
      </trkpt>
      <trkpt lat="46.44245" lon="4.50937">
        <ele>352.272</ele>
        <time>2022-09-25T08:12:59Z</time>
      </trkpt>
      <trkpt lat="46.44248" lon="4.50928">
        <ele>351.372</ele>
        <time>2022-09-25T08:13:05Z</time>
      </trkpt>
      <trkpt lat="46.44252" lon="4.50918">
        <ele>351.072</ele>
        <time>2022-09-25T08:13:11Z</time>
      </trkpt>
      <trkpt lat="46.44256" lon="4.50909">
        <ele>350.272</ele>
        <time>2022-09-25T08:13:17Z</time>
      </trkpt>
      <trkpt lat="46.44261" lon="4.50897">
        <ele>350.872</ele>
        <time>2022-09-25T08:13:23Z</time>
      </trkpt>
      <trkpt lat="46.44262" lon="4.50887">
        <ele>350.672</ele>
        <time>2022-09-25T08:13:30Z</time>
      </trkpt>
      <trkpt lat="46.44263" lon="4.50877">
        <ele>351.272</ele>
        <time>2022-09-25T08:13:35Z</time>
      </trkpt>
      <trkpt lat="46.44266" lon="4.50867">
        <ele>351.672</ele>
        <time>2022-09-25T08:13:41Z</time>
      </trkpt>
      <trkpt lat="46.44268" lon="4.50855">
        <ele>351.772</ele>
        <time>2022-09-25T08:13:47Z</time>
      </trkpt>
      <trkpt lat="46.44269" lon="4.50845">
        <ele>352.272</ele>
        <time>2022-09-25T08:13:53Z</time>
      </trkpt>
      <trkpt lat="46.44272" lon="4.50833">
        <ele>352.772</ele>
        <time>2022-09-25T08:13:59Z</time>
      </trkpt>
      <trkpt lat="46.44275" lon="4.50822">
        <ele>353.172</ele>
        <time>2022-09-25T08:14:05Z</time>
      </trkpt>
      <trkpt lat="46.44276" lon="4.50811">
        <ele>355.072</ele>
        <time>2022-09-25T08:14:11Z</time>
      </trkpt>
      <trkpt lat="46.44278" lon="4.50802">
        <ele>355.972</ele>
        <time>2022-09-25T08:14:17Z</time>
      </trkpt>
      <trkpt lat="46.44279" lon="4.50791">
        <ele>356.272</ele>
        <time>2022-09-25T08:14:23Z</time>
      </trkpt>
      <trkpt lat="46.44281" lon="4.50781">
        <ele>356.672</ele>
        <time>2022-09-25T08:14:29Z</time>
      </trkpt>
      <trkpt lat="46.44283" lon="4.50769">
        <ele>358.072</ele>
        <time>2022-09-25T08:14:35Z</time>
      </trkpt>
      <trkpt lat="46.44283" lon="4.50759">
        <ele>358.872</ele>
        <time>2022-09-25T08:14:41Z</time>
      </trkpt>
      <trkpt lat="46.44283" lon="4.50749">
        <ele>358.772</ele>
        <time>2022-09-25T08:14:47Z</time>
      </trkpt>
      <trkpt lat="46.44282" lon="4.50739">
        <ele>358.672</ele>
        <time>2022-09-25T08:14:52Z</time>
      </trkpt>
      <trkpt lat="46.44282" lon="4.5073">
        <ele>360.072</ele>
        <time>2022-09-25T08:14:57Z</time>
      </trkpt>
      <trkpt lat="46.44282" lon="4.5072">
        <ele>360.272</ele>
        <time>2022-09-25T08:15:03Z</time>
      </trkpt>
      <trkpt lat="46.44282" lon="4.50711">
        <ele>360.872</ele>
        <time>2022-09-25T08:15:08Z</time>
      </trkpt>
      <trkpt lat="46.44284" lon="4.50701">
        <ele>362.172</ele>
        <time>2022-09-25T08:15:15Z</time>
      </trkpt>
      <trkpt lat="46.44284" lon="4.5069">
        <ele>363.872</ele>
        <time>2022-09-25T08:15:21Z</time>
      </trkpt>
      <trkpt lat="46.44284" lon="4.50679">
        <ele>365.072</ele>
        <time>2022-09-25T08:15:27Z</time>
      </trkpt>
      <trkpt lat="46.44284" lon="4.50669">
        <ele>365.572</ele>
        <time>2022-09-25T08:15:33Z</time>
      </trkpt>
      <trkpt lat="46.44284" lon="4.50658">
        <ele>365.472</ele>
        <time>2022-09-25T08:15:39Z</time>
      </trkpt>
      <trkpt lat="46.44283" lon="4.50647">
        <ele>362.972</ele>
        <time>2022-09-25T08:15:48Z</time>
      </trkpt>
      <trkpt lat="46.44282" lon="4.50636">
        <ele>362.772</ele>
        <time>2022-09-25T08:15:54Z</time>
      </trkpt>
      <trkpt lat="46.44283" lon="4.50627">
        <ele>362.772</ele>
        <time>2022-09-25T08:15:59Z</time>
      </trkpt>
      <trkpt lat="46.44285" lon="4.50617">
        <ele>364.772</ele>
        <time>2022-09-25T08:16:05Z</time>
      </trkpt>
      <trkpt lat="46.44286" lon="4.50606">
        <ele>365.272</ele>
        <time>2022-09-25T08:16:11Z</time>
      </trkpt>
      <trkpt lat="46.44289" lon="4.50597">
        <ele>365.772</ele>
        <time>2022-09-25T08:16:17Z</time>
      </trkpt>
      <trkpt lat="46.4429" lon="4.50588">
        <ele>365.472</ele>
        <time>2022-09-25T08:16:23Z</time>
      </trkpt>
      <trkpt lat="46.4429" lon="4.50577">
        <ele>366.272</ele>
        <time>2022-09-25T08:16:28Z</time>
      </trkpt>
      <trkpt lat="46.44292" lon="4.50568">
        <ele>366.972</ele>
        <time>2022-09-25T08:16:33Z</time>
      </trkpt>
      <trkpt lat="46.44293" lon="4.50557">
        <ele>367.172</ele>
        <time>2022-09-25T08:16:40Z</time>
      </trkpt>
      <trkpt lat="46.44295" lon="4.50547">
        <ele>367.272</ele>
        <time>2022-09-25T08:16:45Z</time>
      </trkpt>
      <trkpt lat="46.44296" lon="4.50538">
        <ele>366.472</ele>
        <time>2022-09-25T08:16:51Z</time>
      </trkpt>
      <trkpt lat="46.44297" lon="4.50528">
        <ele>366.172</ele>
        <time>2022-09-25T08:16:56Z</time>
      </trkpt>
      <trkpt lat="46.44298" lon="4.50519">
        <ele>365.472</ele>
        <time>2022-09-25T08:17:01Z</time>
      </trkpt>
      <trkpt lat="46.44301" lon="4.50509">
        <ele>365.772</ele>
        <time>2022-09-25T08:17:06Z</time>
      </trkpt>
      <trkpt lat="46.44304" lon="4.505">
        <ele>367.672</ele>
        <time>2022-09-25T08:17:12Z</time>
      </trkpt>
      <trkpt lat="46.44303" lon="4.50488">
        <ele>367.672</ele>
        <time>2022-09-25T08:17:17Z</time>
      </trkpt>
      <trkpt lat="46.44301" lon="4.50478">
        <ele>367.072</ele>
        <time>2022-09-25T08:17:24Z</time>
      </trkpt>
      <trkpt lat="46.44302" lon="4.50467">
        <ele>366.272</ele>
        <time>2022-09-25T08:17:30Z</time>
      </trkpt>
      <trkpt lat="46.44301" lon="4.50457">
        <ele>366.272</ele>
        <time>2022-09-25T08:17:35Z</time>
      </trkpt>
      <trkpt lat="46.44301" lon="4.50447">
        <ele>363.372</ele>
        <time>2022-09-25T08:17:40Z</time>
      </trkpt>
      <trkpt lat="46.443" lon="4.50437">
        <ele>361.272</ele>
        <time>2022-09-25T08:17:46Z</time>
      </trkpt>
      <trkpt lat="46.44298" lon="4.50428">
        <ele>360.672</ele>
        <time>2022-09-25T08:17:54Z</time>
      </trkpt>
      <trkpt lat="46.44296" lon="4.50417">
        <ele>362.172</ele>
        <time>2022-09-25T08:17:59Z</time>
      </trkpt>
      <trkpt lat="46.44293" lon="4.50407">
        <ele>363.372</ele>
        <time>2022-09-25T08:18:06Z</time>
      </trkpt>
      <trkpt lat="46.44291" lon="4.50395">
        <ele>361.972</ele>
        <time>2022-09-25T08:18:17Z</time>
      </trkpt>
      <trkpt lat="46.44288" lon="4.50382">
        <ele>361.272</ele>
        <time>2022-09-25T08:18:25Z</time>
      </trkpt>
      <trkpt lat="46.44284" lon="4.50371">
        <ele>362.072</ele>
        <time>2022-09-25T08:18:31Z</time>
      </trkpt>
      <trkpt lat="46.44282" lon="4.50362">
        <ele>360.672</ele>
        <time>2022-09-25T08:18:36Z</time>
      </trkpt>
      <trkpt lat="46.44282" lon="4.50347">
        <ele>358.672</ele>
        <time>2022-09-25T08:19:23Z</time>
      </trkpt>
      <trkpt lat="46.44281" lon="4.50336">
        <ele>358.572</ele>
        <time>2022-09-25T08:19:29Z</time>
      </trkpt>
      <trkpt lat="46.44281" lon="4.50325">
        <ele>357.772</ele>
        <time>2022-09-25T08:19:35Z</time>
      </trkpt>
      <trkpt lat="46.44283" lon="4.50315">
        <ele>357.172</ele>
        <time>2022-09-25T08:19:41Z</time>
      </trkpt>
      <trkpt lat="46.44285" lon="4.50305">
        <ele>357.072</ele>
        <time>2022-09-25T08:19:47Z</time>
      </trkpt>
      <trkpt lat="46.44286" lon="4.50295">
        <ele>356.972</ele>
        <time>2022-09-25T08:19:52Z</time>
      </trkpt>
      <trkpt lat="46.44287" lon="4.50286">
        <ele>356.972</ele>
        <time>2022-09-25T08:19:57Z</time>
      </trkpt>
      <trkpt lat="46.44286" lon="4.50266">
        <ele>355.772</ele>
        <time>2022-09-25T08:20:17Z</time>
      </trkpt>
      <trkpt lat="46.44286" lon="4.50256">
        <ele>356.272</ele>
        <time>2022-09-25T08:20:25Z</time>
      </trkpt>
      <trkpt lat="46.44283" lon="4.50247">
        <ele>353.872</ele>
        <time>2022-09-25T08:20:32Z</time>
      </trkpt>
      <trkpt lat="46.44282" lon="4.50237">
        <ele>352.772</ele>
        <time>2022-09-25T08:20:38Z</time>
      </trkpt>
      <trkpt lat="46.44281" lon="4.50227">
        <ele>352.872</ele>
        <time>2022-09-25T08:20:43Z</time>
      </trkpt>
      <trkpt lat="46.4428" lon="4.50217">
        <ele>352.672</ele>
        <time>2022-09-25T08:20:49Z</time>
      </trkpt>
      <trkpt lat="46.44278" lon="4.50207">
        <ele>352.172</ele>
        <time>2022-09-25T08:21:05Z</time>
      </trkpt>
      <trkpt lat="46.44277" lon="4.50197">
        <ele>351.772</ele>
        <time>2022-09-25T08:21:11Z</time>
      </trkpt>
      <trkpt lat="46.44275" lon="4.50186">
        <ele>349.972</ele>
        <time>2022-09-25T08:21:17Z</time>
      </trkpt>
      <trkpt lat="46.44274" lon="4.50176">
        <ele>349.772</ele>
        <time>2022-09-25T08:21:23Z</time>
      </trkpt>
      <trkpt lat="46.44273" lon="4.50165">
        <ele>349.972</ele>
        <time>2022-09-25T08:21:29Z</time>
      </trkpt>
      <trkpt lat="46.44271" lon="4.50156">
        <ele>348.572</ele>
        <time>2022-09-25T08:21:36Z</time>
      </trkpt>
      <trkpt lat="46.44269" lon="4.50144">
        <ele>347.272</ele>
        <time>2022-09-25T08:21:42Z</time>
      </trkpt>
      <trkpt lat="46.44268" lon="4.50135">
        <ele>346.572</ele>
        <time>2022-09-25T08:21:47Z</time>
      </trkpt>
      <trkpt lat="46.44268" lon="4.50124">
        <ele>346.872</ele>
        <time>2022-09-25T08:21:53Z</time>
      </trkpt>
      <trkpt lat="46.44265" lon="4.50114">
        <ele>346.972</ele>
        <time>2022-09-25T08:21:59Z</time>
      </trkpt>
      <trkpt lat="46.44262" lon="4.50104">
        <ele>346.772</ele>
        <time>2022-09-25T08:22:05Z</time>
      </trkpt>
      <trkpt lat="46.44258" lon="4.50096">
        <ele>347.572</ele>
        <time>2022-09-25T08:22:11Z</time>
      </trkpt>
      <trkpt lat="46.44252" lon="4.50091">
        <ele>346.372</ele>
        <time>2022-09-25T08:22:17Z</time>
      </trkpt>
      <trkpt lat="46.44246" lon="4.50087">
        <ele>346.372</ele>
        <time>2022-09-25T08:22:24Z</time>
      </trkpt>
      <trkpt lat="46.44238" lon="4.50088">
        <ele>343.772</ele>
        <time>2022-09-25T08:22:30Z</time>
      </trkpt>
      <trkpt lat="46.44231" lon="4.5009">
        <ele>343.072</ele>
        <time>2022-09-25T08:22:36Z</time>
      </trkpt>
      <trkpt lat="46.44224" lon="4.50092">
        <ele>342.872</ele>
        <time>2022-09-25T08:22:42Z</time>
      </trkpt>
      <trkpt lat="46.44216" lon="4.5009">
        <ele>344.672</ele>
        <time>2022-09-25T08:22:49Z</time>
      </trkpt>
      <trkpt lat="46.44207" lon="4.50084">
        <ele>344.672</ele>
        <time>2022-09-25T08:23:09Z</time>
      </trkpt>
      <trkpt lat="46.44198" lon="4.50078">
        <ele>344.372</ele>
        <time>2022-09-25T08:23:15Z</time>
      </trkpt>
      <trkpt lat="46.44191" lon="4.50073">
        <ele>343.372</ele>
        <time>2022-09-25T08:23:20Z</time>
      </trkpt>
      <trkpt lat="46.44185" lon="4.50069">
        <ele>342.872</ele>
        <time>2022-09-25T08:23:25Z</time>
      </trkpt>
      <trkpt lat="46.44177" lon="4.50066">
        <ele>340.972</ele>
        <time>2022-09-25T08:23:31Z</time>
      </trkpt>
      <trkpt lat="46.44171" lon="4.50061">
        <ele>340.472</ele>
        <time>2022-09-25T08:23:36Z</time>
      </trkpt>
      <trkpt lat="46.44166" lon="4.50055">
        <ele>339.471</ele>
        <time>2022-09-25T08:23:41Z</time>
      </trkpt>
      <trkpt lat="46.44157" lon="4.5005">
        <ele>338.671</ele>
        <time>2022-09-25T08:23:47Z</time>
      </trkpt>
      <trkpt lat="46.44151" lon="4.50046">
        <ele>340.171</ele>
        <time>2022-09-25T08:23:53Z</time>
      </trkpt>
      <trkpt lat="46.44144" lon="4.50041">
        <ele>340.971</ele>
        <time>2022-09-25T08:23:58Z</time>
      </trkpt>
      <trkpt lat="46.44138" lon="4.50035">
        <ele>341.171</ele>
        <time>2022-09-25T08:24:03Z</time>
      </trkpt>
      <trkpt lat="46.44132" lon="4.50028">
        <ele>341.471</ele>
        <time>2022-09-25T08:24:10Z</time>
      </trkpt>
      <trkpt lat="46.44126" lon="4.50022">
        <ele>340.671</ele>
        <time>2022-09-25T08:24:15Z</time>
      </trkpt>
      <trkpt lat="46.44119" lon="4.50015">
        <ele>340.571</ele>
        <time>2022-09-25T08:24:21Z</time>
      </trkpt>
      <trkpt lat="46.44112" lon="4.50007">
        <ele>342.171</ele>
        <time>2022-09-25T08:24:27Z</time>
      </trkpt>
      <trkpt lat="46.44107" lon="4.50001">
        <ele>341.371</ele>
        <time>2022-09-25T08:24:33Z</time>
      </trkpt>
      <trkpt lat="46.44101" lon="4.49993">
        <ele>339.271</ele>
        <time>2022-09-25T08:24:39Z</time>
      </trkpt>
      <trkpt lat="46.44095" lon="4.49987">
        <ele>336.871</ele>
        <time>2022-09-25T08:24:47Z</time>
      </trkpt>
      <trkpt lat="46.4409" lon="4.4998">
        <ele>336.271</ele>
        <time>2022-09-25T08:24:53Z</time>
      </trkpt>
      <trkpt lat="46.44084" lon="4.49972">
        <ele>335.571</ele>
        <time>2022-09-25T08:24:59Z</time>
      </trkpt>
      <trkpt lat="46.44079" lon="4.49966">
        <ele>337.071</ele>
        <time>2022-09-25T08:25:05Z</time>
      </trkpt>
      <trkpt lat="46.44073" lon="4.49958">
        <ele>338.771</ele>
        <time>2022-09-25T08:25:11Z</time>
      </trkpt>
      <trkpt lat="46.44068" lon="4.4995">
        <ele>339.571</ele>
        <time>2022-09-25T08:25:17Z</time>
      </trkpt>
      <trkpt lat="46.44061" lon="4.49944">
        <ele>339.471</ele>
        <time>2022-09-25T08:25:23Z</time>
      </trkpt>
      <trkpt lat="46.44056" lon="4.49939">
        <ele>339.171</ele>
        <time>2022-09-25T08:25:28Z</time>
      </trkpt>
      <trkpt lat="46.4405" lon="4.49934">
        <ele>338.271</ele>
        <time>2022-09-25T08:25:34Z</time>
      </trkpt>
      <trkpt lat="46.44043" lon="4.4993">
        <ele>336.871</ele>
        <time>2022-09-25T08:25:40Z</time>
      </trkpt>
      <trkpt lat="46.44037" lon="4.49927">
        <ele>335.871</ele>
        <time>2022-09-25T08:25:46Z</time>
      </trkpt>
      <trkpt lat="46.44029" lon="4.49922">
        <ele>334.571</ele>
        <time>2022-09-25T08:25:53Z</time>
      </trkpt>
      <trkpt lat="46.44023" lon="4.49917">
        <ele>332.771</ele>
        <time>2022-09-25T08:25:59Z</time>
      </trkpt>
      <trkpt lat="46.44016" lon="4.49914">
        <ele>330.671</ele>
        <time>2022-09-25T08:26:05Z</time>
      </trkpt>
      <trkpt lat="46.44008" lon="4.49913">
        <ele>329.871</ele>
        <time>2022-09-25T08:26:12Z</time>
      </trkpt>
      <trkpt lat="46.44001" lon="4.49912">
        <ele>328.971</ele>
        <time>2022-09-25T08:26:18Z</time>
      </trkpt>
      <trkpt lat="46.43994" lon="4.49911">
        <ele>328.771</ele>
        <time>2022-09-25T08:26:24Z</time>
      </trkpt>
      <trkpt lat="46.43987" lon="4.4991">
        <ele>328.271</ele>
        <time>2022-09-25T08:26:31Z</time>
      </trkpt>
      <trkpt lat="46.4398" lon="4.49908">
        <ele>328.871</ele>
        <time>2022-09-25T08:26:38Z</time>
      </trkpt>
      <trkpt lat="46.43973" lon="4.49908">
        <ele>328.671</ele>
        <time>2022-09-25T08:26:44Z</time>
      </trkpt>
      <trkpt lat="46.43966" lon="4.49905">
        <ele>327.271</ele>
        <time>2022-09-25T08:26:50Z</time>
      </trkpt>
      <trkpt lat="46.43959" lon="4.49905">
        <ele>325.671</ele>
        <time>2022-09-25T08:26:56Z</time>
      </trkpt>
      <trkpt lat="46.43952" lon="4.49905">
        <ele>324.871</ele>
        <time>2022-09-25T08:27:02Z</time>
      </trkpt>
      <trkpt lat="46.43945" lon="4.49906">
        <ele>324.871</ele>
        <time>2022-09-25T08:27:10Z</time>
      </trkpt>
      <trkpt lat="46.43938" lon="4.49904">
        <ele>323.171</ele>
        <time>2022-09-25T08:27:17Z</time>
      </trkpt>
      <trkpt lat="46.4393" lon="4.49903">
        <ele>321.671</ele>
        <time>2022-09-25T08:27:25Z</time>
      </trkpt>
      <trkpt lat="46.43918" lon="4.49899">
        <ele>319.871</ele>
        <time>2022-09-25T08:27:37Z</time>
      </trkpt>
      <trkpt lat="46.43906" lon="4.49898">
        <ele>316.471</ele>
        <time>2022-09-25T08:27:51Z</time>
      </trkpt>
      <trkpt lat="46.43891" lon="4.49901">
        <ele>309.571</ele>
        <time>2022-09-25T08:28:07Z</time>
      </trkpt>
      <trkpt lat="46.43884" lon="4.499">
        <ele>306.471</ele>
        <time>2022-09-25T08:28:13Z</time>
      </trkpt>
      <trkpt lat="46.43878" lon="4.49897">
        <ele>303.071</ele>
        <time>2022-09-25T08:28:19Z</time>
      </trkpt>
      <trkpt lat="46.43868" lon="4.49894">
        <ele>297.171</ele>
        <time>2022-09-25T08:28:31Z</time>
      </trkpt>
      <trkpt lat="46.43856" lon="4.49891">
        <ele>294.371</ele>
        <time>2022-09-25T08:28:43Z</time>
      </trkpt>
      <trkpt lat="46.43843" lon="4.49888">
        <ele>294.67</ele>
        <time>2022-09-25T08:28:53Z</time>
      </trkpt>
      <trkpt lat="46.43835" lon="4.49882">
        <ele>295.37</ele>
        <time>2022-09-25T08:28:59Z</time>
      </trkpt>
      <trkpt lat="46.43829" lon="4.49878">
        <ele>298.27</ele>
        <time>2022-09-25T08:29:04Z</time>
      </trkpt>
      <trkpt lat="46.4382" lon="4.49873">
        <ele>301.67</ele>
        <time>2022-09-25T08:29:13Z</time>
      </trkpt>
      <trkpt lat="46.43809" lon="4.49861">
        <ele>304.57</ele>
        <time>2022-09-25T08:29:59Z</time>
      </trkpt>
      <trkpt lat="46.43803" lon="4.49854">
        <ele>303.97</ele>
        <time>2022-09-25T08:30:07Z</time>
      </trkpt>
      <trkpt lat="46.43796" lon="4.4985">
        <ele>303.27</ele>
        <time>2022-09-25T08:30:12Z</time>
      </trkpt>
      <trkpt lat="46.43789" lon="4.4985">
        <ele>302.77</ele>
        <time>2022-09-25T08:30:18Z</time>
      </trkpt>
      <trkpt lat="46.43783" lon="4.4985">
        <ele>301.77</ele>
        <time>2022-09-25T08:30:25Z</time>
      </trkpt>
      <trkpt lat="46.43776" lon="4.49844">
        <ele>301.57</ele>
        <time>2022-09-25T08:30:31Z</time>
      </trkpt>
      <trkpt lat="46.4377" lon="4.49832">
        <ele>300.47</ele>
        <time>2022-09-25T08:30:44Z</time>
      </trkpt>
      <trkpt lat="46.43767" lon="4.49824">
        <ele>299.27</ele>
        <time>2022-09-25T08:30:49Z</time>
      </trkpt>
      <trkpt lat="46.43759" lon="4.49809">
        <ele>297.87</ele>
        <time>2022-09-25T08:30:58Z</time>
      </trkpt>
      <trkpt lat="46.43755" lon="4.49801">
        <ele>297.07</ele>
        <time>2022-09-25T08:31:03Z</time>
      </trkpt>
      <trkpt lat="46.4375" lon="4.49794">
        <ele>296.37</ele>
        <time>2022-09-25T08:31:08Z</time>
      </trkpt>
      <trkpt lat="46.43744" lon="4.49787">
        <ele>296.17</ele>
        <time>2022-09-25T08:31:14Z</time>
      </trkpt>
      <trkpt lat="46.43738" lon="4.49781">
        <ele>295.87</ele>
        <time>2022-09-25T08:31:20Z</time>
      </trkpt>
      <trkpt lat="46.43733" lon="4.49775">
        <ele>295.47</ele>
        <time>2022-09-25T08:31:26Z</time>
      </trkpt>
      <trkpt lat="46.43729" lon="4.49761">
        <ele>297.37</ele>
        <time>2022-09-25T08:31:39Z</time>
      </trkpt>
      <trkpt lat="46.43728" lon="4.4975">
        <ele>297.27</ele>
        <time>2022-09-25T08:31:44Z</time>
      </trkpt>
      <trkpt lat="46.43729" lon="4.4974">
        <ele>296.77</ele>
        <time>2022-09-25T08:31:49Z</time>
      </trkpt>
      <trkpt lat="46.4373" lon="4.49729">
        <ele>296.17</ele>
        <time>2022-09-25T08:31:56Z</time>
      </trkpt>
      <trkpt lat="46.43732" lon="4.4972">
        <ele>296.97</ele>
        <time>2022-09-25T08:32:01Z</time>
      </trkpt>
      <trkpt lat="46.43732" lon="4.4971">
        <ele>297.97</ele>
        <time>2022-09-25T08:32:07Z</time>
      </trkpt>
      <trkpt lat="46.43732" lon="4.49701">
        <ele>298.17</ele>
        <time>2022-09-25T08:32:13Z</time>
      </trkpt>
      <trkpt lat="46.43732" lon="4.49691">
        <ele>298.27</ele>
        <time>2022-09-25T08:32:19Z</time>
      </trkpt>
      <trkpt lat="46.43735" lon="4.49681">
        <ele>298.37</ele>
        <time>2022-09-25T08:32:25Z</time>
      </trkpt>
      <trkpt lat="46.43734" lon="4.4967">
        <ele>297.67</ele>
        <time>2022-09-25T08:32:31Z</time>
      </trkpt>
      <trkpt lat="46.43734" lon="4.49659">
        <ele>298.97</ele>
        <time>2022-09-25T08:32:37Z</time>
      </trkpt>
      <trkpt lat="46.43734" lon="4.49649">
        <ele>299.77</ele>
        <time>2022-09-25T08:32:43Z</time>
      </trkpt>
      <trkpt lat="46.43733" lon="4.49639">
        <ele>300.07</ele>
        <time>2022-09-25T08:32:49Z</time>
      </trkpt>
      <trkpt lat="46.43732" lon="4.49629">
        <ele>301.17</ele>
        <time>2022-09-25T08:32:56Z</time>
      </trkpt>
      <trkpt lat="46.43732" lon="4.49617">
        <ele>302.07</ele>
        <time>2022-09-25T08:33:03Z</time>
      </trkpt>
      <trkpt lat="46.43733" lon="4.49607">
        <ele>301.77</ele>
        <time>2022-09-25T08:33:10Z</time>
      </trkpt>
      <trkpt lat="46.43734" lon="4.49597">
        <ele>301.37</ele>
        <time>2022-09-25T08:33:15Z</time>
      </trkpt>
      <trkpt lat="46.43735" lon="4.49587">
        <ele>300.97</ele>
        <time>2022-09-25T08:33:21Z</time>
      </trkpt>
      <trkpt lat="46.43737" lon="4.49575">
        <ele>301.67</ele>
        <time>2022-09-25T08:33:28Z</time>
      </trkpt>
      <trkpt lat="46.43741" lon="4.49567">
        <ele>301.47</ele>
        <time>2022-09-25T08:33:34Z</time>
      </trkpt>
      <trkpt lat="46.43744" lon="4.49557">
        <ele>301.77</ele>
        <time>2022-09-25T08:33:40Z</time>
      </trkpt>
      <trkpt lat="46.43743" lon="4.49546">
        <ele>303.07</ele>
        <time>2022-09-25T08:33:45Z</time>
      </trkpt>
      <trkpt lat="46.43743" lon="4.49535">
        <ele>304.97</ele>
        <time>2022-09-25T08:33:51Z</time>
      </trkpt>
      <trkpt lat="46.43742" lon="4.49524">
        <ele>307.27</ele>
        <time>2022-09-25T08:33:57Z</time>
      </trkpt>
      <trkpt lat="46.4374" lon="4.49513">
        <ele>309.27</ele>
        <time>2022-09-25T08:34:03Z</time>
      </trkpt>
      <trkpt lat="46.43739" lon="4.49502">
        <ele>309.67</ele>
        <time>2022-09-25T08:34:08Z</time>
      </trkpt>
      <trkpt lat="46.43736" lon="4.49493">
        <ele>309.47</ele>
        <time>2022-09-25T08:34:14Z</time>
      </trkpt>
      <trkpt lat="46.43734" lon="4.49484">
        <ele>308.87</ele>
        <time>2022-09-25T08:34:28Z</time>
      </trkpt>
      <trkpt lat="46.43734" lon="4.49474">
        <ele>306.87</ele>
        <time>2022-09-25T08:34:34Z</time>
      </trkpt>
      <trkpt lat="46.4373" lon="4.49463">
        <ele>305.67</ele>
        <time>2022-09-25T08:34:39Z</time>
      </trkpt>
      <trkpt lat="46.43726" lon="4.49452">
        <ele>305.77</ele>
        <time>2022-09-25T08:34:44Z</time>
      </trkpt>
      <trkpt lat="46.43723" lon="4.49442">
        <ele>306.17</ele>
        <time>2022-09-25T08:34:49Z</time>
      </trkpt>
      <trkpt lat="46.43722" lon="4.49428">
        <ele>307.87</ele>
        <time>2022-09-25T08:34:55Z</time>
      </trkpt>
      <trkpt lat="46.4372" lon="4.49418">
        <ele>309.57</ele>
        <time>2022-09-25T08:35:00Z</time>
      </trkpt>
      <trkpt lat="46.4372" lon="4.49407">
        <ele>310.07</ele>
        <time>2022-09-25T08:35:05Z</time>
      </trkpt>
      <trkpt lat="46.43717" lon="4.49394">
        <ele>309.87</ele>
        <time>2022-09-25T08:35:11Z</time>
      </trkpt>
      <trkpt lat="46.43714" lon="4.49382">
        <ele>311.27</ele>
        <time>2022-09-25T08:35:16Z</time>
      </trkpt>
      <trkpt lat="46.43711" lon="4.49372">
        <ele>310.27</ele>
        <time>2022-09-25T08:35:22Z</time>
      </trkpt>
      <trkpt lat="46.4371" lon="4.49361">
        <ele>310.57</ele>
        <time>2022-09-25T08:35:27Z</time>
      </trkpt>
      <trkpt lat="46.43707" lon="4.4935">
        <ele>309.27</ele>
        <time>2022-09-25T08:35:33Z</time>
      </trkpt>
      <trkpt lat="46.43706" lon="4.49339">
        <ele>309.27</ele>
        <time>2022-09-25T08:35:39Z</time>
      </trkpt>
      <trkpt lat="46.43705" lon="4.4933">
        <ele>309.77</ele>
        <time>2022-09-25T08:35:44Z</time>
      </trkpt>
      <trkpt lat="46.43704" lon="4.49319">
        <ele>307.97</ele>
        <time>2022-09-25T08:35:49Z</time>
      </trkpt>
      <trkpt lat="46.43702" lon="4.49308">
        <ele>306.87</ele>
        <time>2022-09-25T08:35:55Z</time>
      </trkpt>
      <trkpt lat="46.437" lon="4.49299">
        <ele>306.57</ele>
        <time>2022-09-25T08:36:02Z</time>
      </trkpt>
      <trkpt lat="46.437" lon="4.49289">
        <ele>305.77</ele>
        <time>2022-09-25T08:36:07Z</time>
      </trkpt>
      <trkpt lat="46.43699" lon="4.49278">
        <ele>305.17</ele>
        <time>2022-09-25T08:36:13Z</time>
      </trkpt>
      <trkpt lat="46.43696" lon="4.49269">
        <ele>303.67</ele>
        <time>2022-09-25T08:36:19Z</time>
      </trkpt>
      <trkpt lat="46.43696" lon="4.49257">
        <ele>303.77</ele>
        <time>2022-09-25T08:36:25Z</time>
      </trkpt>
      <trkpt lat="46.43694" lon="4.49247">
        <ele>303.87</ele>
        <time>2022-09-25T08:36:31Z</time>
      </trkpt>
      <trkpt lat="46.43692" lon="4.49238">
        <ele>305.07</ele>
        <time>2022-09-25T08:36:36Z</time>
      </trkpt>
      <trkpt lat="46.43689" lon="4.49227">
        <ele>306.27</ele>
        <time>2022-09-25T08:36:41Z</time>
      </trkpt>
      <trkpt lat="46.43686" lon="4.49217">
        <ele>308.67</ele>
        <time>2022-09-25T08:36:47Z</time>
      </trkpt>
      <trkpt lat="46.43683" lon="4.49208">
        <ele>309.87</ele>
        <time>2022-09-25T08:36:53Z</time>
      </trkpt>
      <trkpt lat="46.43681" lon="4.49198">
        <ele>310.669</ele>
        <time>2022-09-25T08:36:59Z</time>
      </trkpt>
      <trkpt lat="46.43678" lon="4.49188">
        <ele>310.369</ele>
        <time>2022-09-25T08:37:05Z</time>
      </trkpt>
      <trkpt lat="46.43676" lon="4.49178">
        <ele>310.769</ele>
        <time>2022-09-25T08:37:11Z</time>
      </trkpt>
      <trkpt lat="46.43674" lon="4.49169">
        <ele>310.169</ele>
        <time>2022-09-25T08:37:16Z</time>
      </trkpt>
      <trkpt lat="46.43672" lon="4.49159">
        <ele>309.769</ele>
        <time>2022-09-25T08:37:22Z</time>
      </trkpt>
      <trkpt lat="46.4367" lon="4.49149">
        <ele>309.469</ele>
        <time>2022-09-25T08:37:28Z</time>
      </trkpt>
      <trkpt lat="46.43667" lon="4.4914">
        <ele>310.469</ele>
        <time>2022-09-25T08:37:34Z</time>
      </trkpt>
      <trkpt lat="46.43665" lon="4.49131">
        <ele>311.269</ele>
        <time>2022-09-25T08:37:39Z</time>
      </trkpt>
      <trkpt lat="46.43663" lon="4.49121">
        <ele>312.169</ele>
        <time>2022-09-25T08:37:44Z</time>
      </trkpt>
      <trkpt lat="46.43659" lon="4.49113">
        <ele>311.369</ele>
        <time>2022-09-25T08:37:50Z</time>
      </trkpt>
      <trkpt lat="46.43654" lon="4.49106">
        <ele>310.369</ele>
        <time>2022-09-25T08:38:30Z</time>
      </trkpt>
      <trkpt lat="46.43649" lon="4.49098">
        <ele>309.669</ele>
        <time>2022-09-25T08:38:35Z</time>
      </trkpt>
      <trkpt lat="46.43641" lon="4.49086">
        <ele>311.469</ele>
        <time>2022-09-25T08:39:38Z</time>
      </trkpt>
      <trkpt lat="46.43636" lon="4.4908">
        <ele>313.269</ele>
        <time>2022-09-25T08:39:45Z</time>
      </trkpt>
      <trkpt lat="46.43629" lon="4.49074">
        <ele>313.569</ele>
        <time>2022-09-25T08:39:51Z</time>
      </trkpt>
      <trkpt lat="46.43621" lon="4.49073">
        <ele>313.869</ele>
        <time>2022-09-25T08:39:56Z</time>
      </trkpt>
      <trkpt lat="46.43615" lon="4.49073">
        <ele>313.069</ele>
        <time>2022-09-25T08:40:01Z</time>
      </trkpt>
      <trkpt lat="46.43606" lon="4.49075">
        <ele>313.169</ele>
        <time>2022-09-25T08:40:07Z</time>
      </trkpt>
      <trkpt lat="46.43599" lon="4.49077">
        <ele>313.469</ele>
        <time>2022-09-25T08:40:13Z</time>
      </trkpt>
      <trkpt lat="46.43591" lon="4.49081">
        <ele>313.369</ele>
        <time>2022-09-25T08:40:19Z</time>
      </trkpt>
      <trkpt lat="46.43584" lon="4.49086">
        <ele>313.769</ele>
        <time>2022-09-25T08:40:24Z</time>
      </trkpt>
      <trkpt lat="46.43578" lon="4.49091">
        <ele>314.769</ele>
        <time>2022-09-25T08:40:30Z</time>
      </trkpt>
      <trkpt lat="46.43573" lon="4.49097">
        <ele>315.569</ele>
        <time>2022-09-25T08:40:36Z</time>
      </trkpt>
      <trkpt lat="46.43569" lon="4.49106">
        <ele>316.869</ele>
        <time>2022-09-25T08:40:42Z</time>
      </trkpt>
      <trkpt lat="46.43565" lon="4.49114">
        <ele>316.269</ele>
        <time>2022-09-25T08:40:48Z</time>
      </trkpt>
      <trkpt lat="46.43559" lon="4.4912">
        <ele>317.069</ele>
        <time>2022-09-25T08:40:54Z</time>
      </trkpt>
      <trkpt lat="46.43554" lon="4.49129">
        <ele>317.669</ele>
        <time>2022-09-25T08:40:59Z</time>
      </trkpt>
      <trkpt lat="46.4355" lon="4.49137">
        <ele>318.369</ele>
        <time>2022-09-25T08:41:05Z</time>
      </trkpt>
      <trkpt lat="46.43545" lon="4.49145">
        <ele>320.069</ele>
        <time>2022-09-25T08:41:12Z</time>
      </trkpt>
      <trkpt lat="46.43539" lon="4.49151">
        <ele>321.369</ele>
        <time>2022-09-25T08:41:20Z</time>
      </trkpt>
      <trkpt lat="46.43534" lon="4.49159">
        <ele>321.769</ele>
        <time>2022-09-25T08:41:26Z</time>
      </trkpt>
      <trkpt lat="46.43531" lon="4.49168">
        <ele>323.369</ele>
        <time>2022-09-25T08:41:33Z</time>
      </trkpt>
      <trkpt lat="46.43529" lon="4.49179">
        <ele>324.269</ele>
        <time>2022-09-25T08:41:39Z</time>
      </trkpt>
      <trkpt lat="46.43528" lon="4.4919">
        <ele>324.669</ele>
        <time>2022-09-25T08:41:45Z</time>
      </trkpt>
      <trkpt lat="46.43529" lon="4.49207">
        <ele>327.869</ele>
        <time>2022-09-25T08:41:59Z</time>
      </trkpt>
      <trkpt lat="46.43531" lon="4.49225">
        <ele>329.469</ele>
        <time>2022-09-25T08:42:14Z</time>
      </trkpt>
      <trkpt lat="46.43536" lon="4.49239">
        <ele>327.869</ele>
        <time>2022-09-25T08:45:04Z</time>
      </trkpt>
      <trkpt lat="46.43541" lon="4.49252">
        <ele>327.869</ele>
        <time>2022-09-25T08:45:20Z</time>
      </trkpt>
      <trkpt lat="46.43543" lon="4.4927">
        <ele>327.969</ele>
        <time>2022-09-25T08:45:32Z</time>
      </trkpt>
      <trkpt lat="46.43545" lon="4.49286">
        <ele>329.369</ele>
        <time>2022-09-25T08:45:45Z</time>
      </trkpt>
      <trkpt lat="46.43544" lon="4.49303">
        <ele>330.569</ele>
        <time>2022-09-25T08:45:54Z</time>
      </trkpt>
      <trkpt lat="46.43544" lon="4.49313">
        <ele>331.869</ele>
        <time>2022-09-25T08:46:00Z</time>
      </trkpt>
      <trkpt lat="46.43541" lon="4.49328">
        <ele>333.669</ele>
        <time>2022-09-25T08:46:13Z</time>
      </trkpt>
      <trkpt lat="46.43539" lon="4.49347">
        <ele>335.669</ele>
        <time>2022-09-25T08:46:28Z</time>
      </trkpt>
      <trkpt lat="46.43537" lon="4.49364">
        <ele>337.169</ele>
        <time>2022-09-25T08:46:41Z</time>
      </trkpt>
      <trkpt lat="46.43536" lon="4.49375">
        <ele>337.769</ele>
        <time>2022-09-25T08:46:48Z</time>
      </trkpt>
      <trkpt lat="46.43536" lon="4.49395">
        <ele>339.269</ele>
        <time>2022-09-25T08:46:59Z</time>
      </trkpt>
      <trkpt lat="46.43531" lon="4.49413">
        <ele>340.369</ele>
        <time>2022-09-25T08:47:11Z</time>
      </trkpt>
      <trkpt lat="46.43527" lon="4.4942">
        <ele>339.969</ele>
        <time>2022-09-25T08:47:16Z</time>
      </trkpt>
      <trkpt lat="46.43522" lon="4.49427">
        <ele>340.269</ele>
        <time>2022-09-25T08:47:21Z</time>
      </trkpt>
      <trkpt lat="46.43511" lon="4.49428">
        <ele>340.369</ele>
        <time>2022-09-25T08:47:33Z</time>
      </trkpt>
      <trkpt lat="46.43511" lon="4.49417">
        <ele>339.369</ele>
        <time>2022-09-25T08:48:12Z</time>
      </trkpt>
      <trkpt lat="46.43508" lon="4.49399">
        <ele>338.769</ele>
        <time>2022-09-25T08:48:23Z</time>
      </trkpt>
      <trkpt lat="46.43504" lon="4.49389">
        <ele>339.269</ele>
        <time>2022-09-25T08:48:29Z</time>
      </trkpt>
      <trkpt lat="46.43501" lon="4.49378">
        <ele>339.569</ele>
        <time>2022-09-25T08:48:35Z</time>
      </trkpt>
      <trkpt lat="46.43498" lon="4.49369">
        <ele>340.769</ele>
        <time>2022-09-25T08:48:41Z</time>
      </trkpt>
      <trkpt lat="46.43491" lon="4.49356">
        <ele>341.169</ele>
        <time>2022-09-25T08:48:52Z</time>
      </trkpt>
      <trkpt lat="46.43483" lon="4.49342">
        <ele>340.769</ele>
        <time>2022-09-25T08:49:03Z</time>
      </trkpt>
      <trkpt lat="46.43479" lon="4.49333">
        <ele>339.569</ele>
        <time>2022-09-25T08:49:08Z</time>
      </trkpt>
      <trkpt lat="46.43475" lon="4.49323">
        <ele>339.469</ele>
        <time>2022-09-25T08:49:15Z</time>
      </trkpt>
      <trkpt lat="46.43471" lon="4.49311">
        <ele>340.269</ele>
        <time>2022-09-25T08:49:23Z</time>
      </trkpt>
      <trkpt lat="46.43467" lon="4.493">
        <ele>341.869</ele>
        <time>2022-09-25T08:49:31Z</time>
      </trkpt>
      <trkpt lat="46.4346" lon="4.49282">
        <ele>341.969</ele>
        <time>2022-09-25T08:49:42Z</time>
      </trkpt>
      <trkpt lat="46.43449" lon="4.4927">
        <ele>341.669</ele>
        <time>2022-09-25T08:49:54Z</time>
      </trkpt>
      <trkpt lat="46.43439" lon="4.49256">
        <ele>340.869</ele>
        <time>2022-09-25T08:50:06Z</time>
      </trkpt>
      <trkpt lat="46.43427" lon="4.49249">
        <ele>342.369</ele>
        <time>2022-09-25T08:50:20Z</time>
      </trkpt>
      <trkpt lat="46.43417" lon="4.49237">
        <ele>343.369</ele>
        <time>2022-09-25T08:50:32Z</time>
      </trkpt>
      <trkpt lat="46.43407" lon="4.49225">
        <ele>344.469</ele>
        <time>2022-09-25T08:50:45Z</time>
      </trkpt>
      <trkpt lat="46.43398" lon="4.49214">
        <ele>348.369</ele>
        <time>2022-09-25T08:50:57Z</time>
      </trkpt>
      <trkpt lat="46.43391" lon="4.492">
        <ele>352.469</ele>
        <time>2022-09-25T08:51:10Z</time>
      </trkpt>
      <trkpt lat="46.43384" lon="4.49185">
        <ele>356.569</ele>
        <time>2022-09-25T08:51:24Z</time>
      </trkpt>
      <trkpt lat="46.4338" lon="4.49168">
        <ele>358.369</ele>
        <time>2022-09-25T08:51:39Z</time>
      </trkpt>
      <trkpt lat="46.43371" lon="4.49155">
        <ele>360.269</ele>
        <time>2022-09-25T08:51:52Z</time>
      </trkpt>
      <trkpt lat="46.43366" lon="4.49139">
        <ele>361.469</ele>
        <time>2022-09-25T08:52:04Z</time>
      </trkpt>
      <trkpt lat="46.43363" lon="4.49128">
        <ele>361.869</ele>
        <time>2022-09-25T08:52:09Z</time>
      </trkpt>
      <trkpt lat="46.4336" lon="4.4912">
        <ele>362.369</ele>
        <time>2022-09-25T08:52:15Z</time>
      </trkpt>
      <trkpt lat="46.43356" lon="4.49103">
        <ele>363.369</ele>
        <time>2022-09-25T08:52:30Z</time>
      </trkpt>
      <trkpt lat="46.43353" lon="4.49085">
        <ele>365.368</ele>
        <time>2022-09-25T08:52:43Z</time>
      </trkpt>
      <trkpt lat="46.43348" lon="4.4907">
        <ele>366.668</ele>
        <time>2022-09-25T08:52:55Z</time>
      </trkpt>
      <trkpt lat="46.43343" lon="4.49057">
        <ele>368.068</ele>
        <time>2022-09-25T08:53:05Z</time>
      </trkpt>
      <trkpt lat="46.43336" lon="4.49043">
        <ele>372.368</ele>
        <time>2022-09-25T08:53:21Z</time>
      </trkpt>
      <trkpt lat="46.43328" lon="4.49029">
        <ele>375.368</ele>
        <time>2022-09-25T08:53:36Z</time>
      </trkpt>
      <trkpt lat="46.4332" lon="4.49016">
        <ele>377.668</ele>
        <time>2022-09-25T08:53:50Z</time>
      </trkpt>
      <trkpt lat="46.43314" lon="4.49004">
        <ele>378.668</ele>
        <time>2022-09-25T08:54:00Z</time>
      </trkpt>
      <trkpt lat="46.43306" lon="4.48986">
        <ele>380.568</ele>
        <time>2022-09-25T08:54:18Z</time>
      </trkpt>
      <trkpt lat="46.43302" lon="4.48977">
        <ele>381.468</ele>
        <time>2022-09-25T08:54:23Z</time>
      </trkpt>
      <trkpt lat="46.43298" lon="4.48964">
        <ele>383.268</ele>
        <time>2022-09-25T08:54:33Z</time>
      </trkpt>
      <trkpt lat="46.4329" lon="4.48951">
        <ele>385.068</ele>
        <time>2022-09-25T08:54:43Z</time>
      </trkpt>
      <trkpt lat="46.4328" lon="4.48949">
        <ele>387.968</ele>
        <time>2022-09-25T08:58:37Z</time>
      </trkpt>
      <trkpt lat="46.43274" lon="4.48937">
        <ele>388.168</ele>
        <time>2022-09-25T08:59:24Z</time>
      </trkpt>
      <trkpt lat="46.43267" lon="4.48922">
        <ele>387.968</ele>
        <time>2022-09-25T08:59:31Z</time>
      </trkpt>
      <trkpt lat="46.43263" lon="4.48913">
        <ele>387.568</ele>
        <time>2022-09-25T08:59:36Z</time>
      </trkpt>
      <trkpt lat="46.43258" lon="4.48906">
        <ele>387.868</ele>
        <time>2022-09-25T08:59:42Z</time>
      </trkpt>
      <trkpt lat="46.43252" lon="4.489">
        <ele>388.168</ele>
        <time>2022-09-25T08:59:48Z</time>
      </trkpt>
      <trkpt lat="46.43244" lon="4.48892">
        <ele>389.968</ele>
        <time>2022-09-25T08:59:59Z</time>
      </trkpt>
      <trkpt lat="46.43233" lon="4.48881">
        <ele>392.368</ele>
        <time>2022-09-25T09:00:11Z</time>
      </trkpt>
      <trkpt lat="46.43227" lon="4.48867">
        <ele>395.468</ele>
        <time>2022-09-25T09:00:23Z</time>
      </trkpt>
      <trkpt lat="46.43216" lon="4.48856">
        <ele>396.868</ele>
        <time>2022-09-25T09:00:37Z</time>
      </trkpt>
      <trkpt lat="46.43207" lon="4.48845">
        <ele>398.968</ele>
        <time>2022-09-25T09:00:48Z</time>
      </trkpt>
      <trkpt lat="46.43199" lon="4.48834">
        <ele>401.168</ele>
        <time>2022-09-25T09:00:57Z</time>
      </trkpt>
      <trkpt lat="46.43193" lon="4.48828">
        <ele>403.568</ele>
        <time>2022-09-25T09:01:03Z</time>
      </trkpt>
      <trkpt lat="46.43187" lon="4.48822">
        <ele>405.468</ele>
        <time>2022-09-25T09:01:10Z</time>
      </trkpt>
      <trkpt lat="46.43176" lon="4.48815">
        <ele>406.768</ele>
        <time>2022-09-25T09:01:23Z</time>
      </trkpt>
      <trkpt lat="46.43169" lon="4.48802">
        <ele>406.868</ele>
        <time>2022-09-25T09:01:33Z</time>
      </trkpt>
      <trkpt lat="46.43166" lon="4.48793">
        <ele>405.468</ele>
        <time>2022-09-25T09:01:39Z</time>
      </trkpt>
      <trkpt lat="46.43156" lon="4.48777">
        <ele>407.168</ele>
        <time>2022-09-25T09:01:52Z</time>
      </trkpt>
      <trkpt lat="46.43151" lon="4.48767">
        <ele>409.368</ele>
        <time>2022-09-25T09:01:59Z</time>
      </trkpt>
      <trkpt lat="46.43145" lon="4.48762">
        <ele>411.868</ele>
        <time>2022-09-25T09:02:04Z</time>
      </trkpt>
      <trkpt lat="46.4314" lon="4.48755">
        <ele>411.968</ele>
        <time>2022-09-25T09:02:09Z</time>
      </trkpt>
      <trkpt lat="46.43135" lon="4.48745">
        <ele>410.168</ele>
        <time>2022-09-25T09:02:15Z</time>
      </trkpt>
      <trkpt lat="46.43131" lon="4.48736">
        <ele>408.568</ele>
        <time>2022-09-25T09:02:21Z</time>
      </trkpt>
      <trkpt lat="46.43127" lon="4.48728">
        <ele>406.368</ele>
        <time>2022-09-25T09:02:28Z</time>
      </trkpt>
      <trkpt lat="46.43121" lon="4.48717">
        <ele>405.268</ele>
        <time>2022-09-25T09:02:40Z</time>
      </trkpt>
      <trkpt lat="46.43113" lon="4.48712">
        <ele>403.768</ele>
        <time>2022-09-25T09:02:45Z</time>
      </trkpt>
      <trkpt lat="46.43105" lon="4.48705">
        <ele>403.568</ele>
        <time>2022-09-25T09:02:51Z</time>
      </trkpt>
      <trkpt lat="46.431" lon="4.48699">
        <ele>404.768</ele>
        <time>2022-09-25T09:02:56Z</time>
      </trkpt>
      <trkpt lat="46.43095" lon="4.48692">
        <ele>405.267</ele>
        <time>2022-09-25T09:03:02Z</time>
      </trkpt>
      <trkpt lat="46.43089" lon="4.48685">
        <ele>406.067</ele>
        <time>2022-09-25T09:03:08Z</time>
      </trkpt>
      <trkpt lat="46.43084" lon="4.48679">
        <ele>404.867</ele>
        <time>2022-09-25T09:03:13Z</time>
      </trkpt>
      <trkpt lat="46.43077" lon="4.48672">
        <ele>404.967</ele>
        <time>2022-09-25T09:03:19Z</time>
      </trkpt>
      <trkpt lat="46.43071" lon="4.48665">
        <ele>406.067</ele>
        <time>2022-09-25T09:03:24Z</time>
      </trkpt>
      <trkpt lat="46.43065" lon="4.48659">
        <ele>408.967</ele>
        <time>2022-09-25T09:03:29Z</time>
      </trkpt>
      <trkpt lat="46.43058" lon="4.48653">
        <ele>410.867</ele>
        <time>2022-09-25T09:03:35Z</time>
      </trkpt>
      <trkpt lat="46.43053" lon="4.48646">
        <ele>411.867</ele>
        <time>2022-09-25T09:03:40Z</time>
      </trkpt>
      <trkpt lat="46.43048" lon="4.48638">
        <ele>412.067</ele>
        <time>2022-09-25T09:03:46Z</time>
      </trkpt>
      <trkpt lat="46.43043" lon="4.4863">
        <ele>411.967</ele>
        <time>2022-09-25T09:03:52Z</time>
      </trkpt>
      <trkpt lat="46.43038" lon="4.48621">
        <ele>411.967</ele>
        <time>2022-09-25T09:03:58Z</time>
      </trkpt>
      <trkpt lat="46.43034" lon="4.48613">
        <ele>412.267</ele>
        <time>2022-09-25T09:04:03Z</time>
      </trkpt>
      <trkpt lat="46.43031" lon="4.48605">
        <ele>413.467</ele>
        <time>2022-09-25T09:04:09Z</time>
      </trkpt>
      <trkpt lat="46.43027" lon="4.48596">
        <ele>415.367</ele>
        <time>2022-09-25T09:04:15Z</time>
      </trkpt>
      <trkpt lat="46.43023" lon="4.48587">
        <ele>416.467</ele>
        <time>2022-09-25T09:04:21Z</time>
      </trkpt>
      <trkpt lat="46.43019" lon="4.48576">
        <ele>417.767</ele>
        <time>2022-09-25T09:04:27Z</time>
      </trkpt>
      <trkpt lat="46.43018" lon="4.48567">
        <ele>419.167</ele>
        <time>2022-09-25T09:04:33Z</time>
      </trkpt>
      <trkpt lat="46.43019" lon="4.48557">
        <ele>419.867</ele>
        <time>2022-09-25T09:04:39Z</time>
      </trkpt>
      <trkpt lat="46.43019" lon="4.48546">
        <ele>418.967</ele>
        <time>2022-09-25T09:04:45Z</time>
      </trkpt>
      <trkpt lat="46.43019" lon="4.48536">
        <ele>419.167</ele>
        <time>2022-09-25T09:04:51Z</time>
      </trkpt>
      <trkpt lat="46.43017" lon="4.48527">
        <ele>420.367</ele>
        <time>2022-09-25T09:04:57Z</time>
      </trkpt>
      <trkpt lat="46.43015" lon="4.48517">
        <ele>422.267</ele>
        <time>2022-09-25T09:05:04Z</time>
      </trkpt>
      <trkpt lat="46.43007" lon="4.48506">
        <ele>424.067</ele>
        <time>2022-09-25T09:06:48Z</time>
      </trkpt>
      <trkpt lat="46.42998" lon="4.48496">
        <ele>425.467</ele>
        <time>2022-09-25T09:07:05Z</time>
      </trkpt>
      <trkpt lat="46.42992" lon="4.48486">
        <ele>426.867</ele>
        <time>2022-09-25T09:07:11Z</time>
      </trkpt>
      <trkpt lat="46.42987" lon="4.48478">
        <ele>428.367</ele>
        <time>2022-09-25T09:07:18Z</time>
      </trkpt>
      <trkpt lat="46.42983" lon="4.48471">
        <ele>428.967</ele>
        <time>2022-09-25T09:07:24Z</time>
      </trkpt>
      <trkpt lat="46.42973" lon="4.48463">
        <ele>430.067</ele>
        <time>2022-09-25T09:07:35Z</time>
      </trkpt>
      <trkpt lat="46.42967" lon="4.48457">
        <ele>430.367</ele>
        <time>2022-09-25T09:07:40Z</time>
      </trkpt>
      <trkpt lat="46.42953" lon="4.48455">
        <ele>432.267</ele>
        <time>2022-09-25T09:07:50Z</time>
      </trkpt>
      <trkpt lat="46.42946" lon="4.48457">
        <ele>432.667</ele>
        <time>2022-09-25T09:07:55Z</time>
      </trkpt>
      <trkpt lat="46.42939" lon="4.4846">
        <ele>431.967</ele>
        <time>2022-09-25T09:08:00Z</time>
      </trkpt>
      <trkpt lat="46.42932" lon="4.48465">
        <ele>430.267</ele>
        <time>2022-09-25T09:08:07Z</time>
      </trkpt>
      <trkpt lat="46.42926" lon="4.48469">
        <ele>428.867</ele>
        <time>2022-09-25T09:08:12Z</time>
      </trkpt>
      <trkpt lat="46.42919" lon="4.4847">
        <ele>427.367</ele>
        <time>2022-09-25T09:08:18Z</time>
      </trkpt>
      <trkpt lat="46.42912" lon="4.48469">
        <ele>427.367</ele>
        <time>2022-09-25T09:08:24Z</time>
      </trkpt>
      <trkpt lat="46.42905" lon="4.48469">
        <ele>427.167</ele>
        <time>2022-09-25T09:08:30Z</time>
      </trkpt>
      <trkpt lat="46.42898" lon="4.48468">
        <ele>427.167</ele>
        <time>2022-09-25T09:08:36Z</time>
      </trkpt>
      <trkpt lat="46.42891" lon="4.48465">
        <ele>427.267</ele>
        <time>2022-09-25T09:08:42Z</time>
      </trkpt>
      <trkpt lat="46.42884" lon="4.48464">
        <ele>427.667</ele>
        <time>2022-09-25T09:08:47Z</time>
      </trkpt>
      <trkpt lat="46.42877" lon="4.48462">
        <ele>428.467</ele>
        <time>2022-09-25T09:08:53Z</time>
      </trkpt>
      <trkpt lat="46.4287" lon="4.48459">
        <ele>429.267</ele>
        <time>2022-09-25T09:08:59Z</time>
      </trkpt>
      <trkpt lat="46.42864" lon="4.48455">
        <ele>430.367</ele>
        <time>2022-09-25T09:09:04Z</time>
      </trkpt>
      <trkpt lat="46.42857" lon="4.48451">
        <ele>432.467</ele>
        <time>2022-09-25T09:09:10Z</time>
      </trkpt>
      <trkpt lat="46.4285" lon="4.48446">
        <ele>433.467</ele>
        <time>2022-09-25T09:09:16Z</time>
      </trkpt>
      <trkpt lat="46.42843" lon="4.48443">
        <ele>434.467</ele>
        <time>2022-09-25T09:09:23Z</time>
      </trkpt>
      <trkpt lat="46.42836" lon="4.4844">
        <ele>435.667</ele>
        <time>2022-09-25T09:09:29Z</time>
      </trkpt>
      <trkpt lat="46.4283" lon="4.48439">
        <ele>437.067</ele>
        <time>2022-09-25T09:09:36Z</time>
      </trkpt>
      <trkpt lat="46.42823" lon="4.48439">
        <ele>438.167</ele>
        <time>2022-09-25T09:09:42Z</time>
      </trkpt>
      <trkpt lat="46.42816" lon="4.48438">
        <ele>438.467</ele>
        <time>2022-09-25T09:09:49Z</time>
      </trkpt>
      <trkpt lat="46.42809" lon="4.48437">
        <ele>438.466</ele>
        <time>2022-09-25T09:09:55Z</time>
      </trkpt>
      <trkpt lat="46.42802" lon="4.48436">
        <ele>438.066</ele>
        <time>2022-09-25T09:10:02Z</time>
      </trkpt>
      <trkpt lat="46.42795" lon="4.48435">
        <ele>437.166</ele>
        <time>2022-09-25T09:10:08Z</time>
      </trkpt>
      <trkpt lat="46.42788" lon="4.48432">
        <ele>436.866</ele>
        <time>2022-09-25T09:10:14Z</time>
      </trkpt>
      <trkpt lat="46.42781" lon="4.48431">
        <ele>436.966</ele>
        <time>2022-09-25T09:10:19Z</time>
      </trkpt>
      <trkpt lat="46.42775" lon="4.48427">
        <ele>438.666</ele>
        <time>2022-09-25T09:10:25Z</time>
      </trkpt>
      <trkpt lat="46.42767" lon="4.48424">
        <ele>440.266</ele>
        <time>2022-09-25T09:10:31Z</time>
      </trkpt>
      <trkpt lat="46.4276" lon="4.4842">
        <ele>440.566</ele>
        <time>2022-09-25T09:10:37Z</time>
      </trkpt>
      <trkpt lat="46.42753" lon="4.48413">
        <ele>442.666</ele>
        <time>2022-09-25T09:10:44Z</time>
      </trkpt>
      <trkpt lat="46.42747" lon="4.48408">
        <ele>444.066</ele>
        <time>2022-09-25T09:10:49Z</time>
      </trkpt>
      <trkpt lat="46.42741" lon="4.48404">
        <ele>445.466</ele>
        <time>2022-09-25T09:10:55Z</time>
      </trkpt>
      <trkpt lat="46.42736" lon="4.48397">
        <ele>446.266</ele>
        <time>2022-09-25T09:11:00Z</time>
      </trkpt>
      <trkpt lat="46.42732" lon="4.48388">
        <ele>447.166</ele>
        <time>2022-09-25T09:11:05Z</time>
      </trkpt>
      <trkpt lat="46.42727" lon="4.48378">
        <ele>448.466</ele>
        <time>2022-09-25T09:11:11Z</time>
      </trkpt>
      <trkpt lat="46.42723" lon="4.4837">
        <ele>449.266</ele>
        <time>2022-09-25T09:11:16Z</time>
      </trkpt>
      <trkpt lat="46.42719" lon="4.48362">
        <ele>450.666</ele>
        <time>2022-09-25T09:11:21Z</time>
      </trkpt>
      <trkpt lat="46.42714" lon="4.48353">
        <ele>450.466</ele>
        <time>2022-09-25T09:11:27Z</time>
      </trkpt>
      <trkpt lat="46.4271" lon="4.48345">
        <ele>450.866</ele>
        <time>2022-09-25T09:11:32Z</time>
      </trkpt>
      <trkpt lat="46.42706" lon="4.48338">
        <ele>453.066</ele>
        <time>2022-09-25T09:11:37Z</time>
      </trkpt>
      <trkpt lat="46.42701" lon="4.4833">
        <ele>455.066</ele>
        <time>2022-09-25T09:11:43Z</time>
      </trkpt>
      <trkpt lat="46.42697" lon="4.48322">
        <ele>455.766</ele>
        <time>2022-09-25T09:11:48Z</time>
      </trkpt>
      <trkpt lat="46.42692" lon="4.48315">
        <ele>456.566</ele>
        <time>2022-09-25T09:11:54Z</time>
      </trkpt>
      <trkpt lat="46.42688" lon="4.48307">
        <ele>457.266</ele>
        <time>2022-09-25T09:12:02Z</time>
      </trkpt>
      <trkpt lat="46.42682" lon="4.48303">
        <ele>457.066</ele>
        <time>2022-09-25T09:12:16Z</time>
      </trkpt>
      <trkpt lat="46.42677" lon="4.48294">
        <ele>456.766</ele>
        <time>2022-09-25T09:12:21Z</time>
      </trkpt>
      <trkpt lat="46.42672" lon="4.48286">
        <ele>457.366</ele>
        <time>2022-09-25T09:12:26Z</time>
      </trkpt>
      <trkpt lat="46.42667" lon="4.48279">
        <ele>457.866</ele>
        <time>2022-09-25T09:12:31Z</time>
      </trkpt>
      <trkpt lat="46.42664" lon="4.48271">
        <ele>457.566</ele>
        <time>2022-09-25T09:12:36Z</time>
      </trkpt>
      <trkpt lat="46.42658" lon="4.48265">
        <ele>456.766</ele>
        <time>2022-09-25T09:12:41Z</time>
      </trkpt>
      <trkpt lat="46.42653" lon="4.48258">
        <ele>455.966</ele>
        <time>2022-09-25T09:12:46Z</time>
      </trkpt>
      <trkpt lat="46.4265" lon="4.48249">
        <ele>455.366</ele>
        <time>2022-09-25T09:12:53Z</time>
      </trkpt>
      <trkpt lat="46.42657" lon="4.48239">
        <ele>458.966</ele>
        <time>2022-09-25T09:13:53Z</time>
      </trkpt>
      <trkpt lat="46.42667" lon="4.48233">
        <ele>459.266</ele>
        <time>2022-09-25T09:14:37Z</time>
      </trkpt>
      <trkpt lat="46.42673" lon="4.48231">
        <ele>459.166</ele>
        <time>2022-09-25T09:14:44Z</time>
      </trkpt>
      <trkpt lat="46.42679" lon="4.48225">
        <ele>458.666</ele>
        <time>2022-09-25T09:14:53Z</time>
      </trkpt>
      <trkpt lat="46.42685" lon="4.48219">
        <ele>457.966</ele>
        <time>2022-09-25T09:14:59Z</time>
      </trkpt>
      <trkpt lat="46.42691" lon="4.48212">
        <ele>456.566</ele>
        <time>2022-09-25T09:15:04Z</time>
      </trkpt>
      <trkpt lat="46.42696" lon="4.48206">
        <ele>454.766</ele>
        <time>2022-09-25T09:15:10Z</time>
      </trkpt>
      <trkpt lat="46.42701" lon="4.482">
        <ele>454.166</ele>
        <time>2022-09-25T09:15:15Z</time>
      </trkpt>
      <trkpt lat="46.42708" lon="4.48195">
        <ele>453.166</ele>
        <time>2022-09-25T09:15:21Z</time>
      </trkpt>
      <trkpt lat="46.42714" lon="4.4819">
        <ele>453.066</ele>
        <time>2022-09-25T09:15:26Z</time>
      </trkpt>
      <trkpt lat="46.42721" lon="4.48185">
        <ele>453.166</ele>
        <time>2022-09-25T09:15:31Z</time>
      </trkpt>
      <trkpt lat="46.42726" lon="4.4818">
        <ele>452.666</ele>
        <time>2022-09-25T09:15:36Z</time>
      </trkpt>
      <trkpt lat="46.42732" lon="4.48175">
        <ele>452.766</ele>
        <time>2022-09-25T09:15:41Z</time>
      </trkpt>
      <trkpt lat="46.42739" lon="4.4817">
        <ele>452.166</ele>
        <time>2022-09-25T09:15:48Z</time>
      </trkpt>
      <trkpt lat="46.42745" lon="4.48165">
        <ele>452.066</ele>
        <time>2022-09-25T09:15:55Z</time>
      </trkpt>
      <trkpt lat="46.42751" lon="4.4816">
        <ele>451.666</ele>
        <time>2022-09-25T09:16:01Z</time>
      </trkpt>
      <trkpt lat="46.42757" lon="4.48156">
        <ele>452.466</ele>
        <time>2022-09-25T09:16:06Z</time>
      </trkpt>
      <trkpt lat="46.42765" lon="4.48153">
        <ele>454.066</ele>
        <time>2022-09-25T09:16:13Z</time>
      </trkpt>
      <trkpt lat="46.42772" lon="4.4815">
        <ele>454.566</ele>
        <time>2022-09-25T09:16:19Z</time>
      </trkpt>
      <trkpt lat="46.42778" lon="4.48144">
        <ele>455.166</ele>
        <time>2022-09-25T09:16:25Z</time>
      </trkpt>
      <trkpt lat="46.42786" lon="4.4814">
        <ele>456.166</ele>
        <time>2022-09-25T09:16:31Z</time>
      </trkpt>
      <trkpt lat="46.42792" lon="4.48135">
        <ele>457.166</ele>
        <time>2022-09-25T09:16:36Z</time>
      </trkpt>
      <trkpt lat="46.428" lon="4.48129">
        <ele>458.366</ele>
        <time>2022-09-25T09:16:44Z</time>
      </trkpt>
      <trkpt lat="46.42805" lon="4.48123">
        <ele>459.766</ele>
        <time>2022-09-25T09:16:50Z</time>
      </trkpt>
      <trkpt lat="46.42811" lon="4.48118">
        <ele>461.366</ele>
        <time>2022-09-25T09:16:56Z</time>
      </trkpt>
      <trkpt lat="46.4282" lon="4.48111">
        <ele>463.166</ele>
        <time>2022-09-25T09:17:09Z</time>
      </trkpt>
      <trkpt lat="46.42827" lon="4.48104">
        <ele>464.466</ele>
        <time>2022-09-25T09:17:15Z</time>
      </trkpt>
      <trkpt lat="46.42833" lon="4.48097">
        <ele>465.266</ele>
        <time>2022-09-25T09:17:21Z</time>
      </trkpt>
      <trkpt lat="46.42841" lon="4.48092">
        <ele>466.966</ele>
        <time>2022-09-25T09:17:30Z</time>
      </trkpt>
      <trkpt lat="46.42847" lon="4.48086">
        <ele>468.566</ele>
        <time>2022-09-25T09:17:36Z</time>
      </trkpt>
      <trkpt lat="46.42853" lon="4.48078">
        <ele>469.466</ele>
        <time>2022-09-25T09:17:41Z</time>
      </trkpt>
      <trkpt lat="46.42858" lon="4.48072">
        <ele>469.966</ele>
        <time>2022-09-25T09:17:46Z</time>
      </trkpt>
      <trkpt lat="46.42862" lon="4.48064">
        <ele>468.966</ele>
        <time>2022-09-25T09:17:52Z</time>
      </trkpt>
      <trkpt lat="46.42862" lon="4.48044">
        <ele>470.366</ele>
        <time>2022-09-25T09:18:13Z</time>
      </trkpt>
      <trkpt lat="46.42865" lon="4.48035">
        <ele>470.666</ele>
        <time>2022-09-25T09:18:19Z</time>
      </trkpt>
      <trkpt lat="46.42865" lon="4.48021">
        <ele>470.066</ele>
        <time>2022-09-25T09:18:27Z</time>
      </trkpt>
      <trkpt lat="46.42871" lon="4.48002">
        <ele>467.966</ele>
        <time>2022-09-25T09:18:40Z</time>
      </trkpt>
      <trkpt lat="46.42875" lon="4.47985">
        <ele>466.366</ele>
        <time>2022-09-25T09:18:54Z</time>
      </trkpt>
      <trkpt lat="46.42877" lon="4.47976">
        <ele>466.466</ele>
        <time>2022-09-25T09:18:59Z</time>
      </trkpt>
      <trkpt lat="46.42878" lon="4.47965">
        <ele>466.266</ele>
        <time>2022-09-25T09:19:05Z</time>
      </trkpt>
      <trkpt lat="46.4288" lon="4.47954">
        <ele>467.766</ele>
        <time>2022-09-25T09:19:11Z</time>
      </trkpt>
      <trkpt lat="46.4288" lon="4.47945">
        <ele>468.966</ele>
        <time>2022-09-25T09:19:18Z</time>
      </trkpt>
      <trkpt lat="46.42891" lon="4.47945">
        <ele>473.666</ele>
        <time>2022-09-25T09:21:15Z</time>
      </trkpt>
      <trkpt lat="46.42898" lon="4.47949">
        <ele>478.366</ele>
        <time>2022-09-25T09:22:33Z</time>
      </trkpt>
      <trkpt lat="46.42909" lon="4.47956">
        <ele>481.166</ele>
        <time>2022-09-25T09:22:43Z</time>
      </trkpt>
      <trkpt lat="46.42922" lon="4.4795">
        <ele>482.266</ele>
        <time>2022-09-25T09:22:58Z</time>
      </trkpt>
      <trkpt lat="46.42932" lon="4.47946">
        <ele>482.766</ele>
        <time>2022-09-25T09:23:03Z</time>
      </trkpt>
      <trkpt lat="46.42945" lon="4.47936">
        <ele>484.266</ele>
        <time>2022-09-25T09:23:21Z</time>
      </trkpt>
      <trkpt lat="46.42953" lon="4.47932">
        <ele>484.366</ele>
        <time>2022-09-25T09:23:28Z</time>
      </trkpt>
      <trkpt lat="46.42959" lon="4.4793">
        <ele>484.667</ele>
        <time>2022-09-25T09:23:33Z</time>
      </trkpt>
      <trkpt lat="46.42968" lon="4.47933">
        <ele>486.767</ele>
        <time>2022-09-25T09:23:39Z</time>
      </trkpt>
      <trkpt lat="46.42976" lon="4.47934">
        <ele>489.167</ele>
        <time>2022-09-25T09:23:45Z</time>
      </trkpt>
      <trkpt lat="46.42982" lon="4.47935">
        <ele>489.167</ele>
        <time>2022-09-25T09:23:51Z</time>
      </trkpt>
      <trkpt lat="46.42989" lon="4.47933">
        <ele>488.767</ele>
        <time>2022-09-25T09:23:56Z</time>
      </trkpt>
      <trkpt lat="46.42996" lon="4.47936">
        <ele>488.567</ele>
        <time>2022-09-25T09:24:02Z</time>
      </trkpt>
      <trkpt lat="46.43002" lon="4.4794">
        <ele>488.667</ele>
        <time>2022-09-25T09:24:08Z</time>
      </trkpt>
      <trkpt lat="46.43008" lon="4.47944">
        <ele>489.167</ele>
        <time>2022-09-25T09:24:16Z</time>
      </trkpt>
      <trkpt lat="46.43015" lon="4.47947">
        <ele>490.467</ele>
        <time>2022-09-25T09:24:22Z</time>
      </trkpt>
      <trkpt lat="46.43023" lon="4.47946">
        <ele>491.867</ele>
        <time>2022-09-25T09:24:30Z</time>
      </trkpt>
      <trkpt lat="46.43029" lon="4.47949">
        <ele>491.367</ele>
        <time>2022-09-25T09:24:36Z</time>
      </trkpt>
      <trkpt lat="46.4304" lon="4.47948">
        <ele>491.767</ele>
        <time>2022-09-25T09:24:48Z</time>
      </trkpt>
      <trkpt lat="46.43054" lon="4.47951">
        <ele>490.467</ele>
        <time>2022-09-25T09:25:00Z</time>
      </trkpt>
      <trkpt lat="46.4306" lon="4.47955">
        <ele>488.567</ele>
        <time>2022-09-25T09:25:05Z</time>
      </trkpt>
      <trkpt lat="46.43068" lon="4.47955">
        <ele>489.467</ele>
        <time>2022-09-25T09:25:11Z</time>
      </trkpt>
      <trkpt lat="46.43074" lon="4.47959">
        <ele>491.967</ele>
        <time>2022-09-25T09:25:16Z</time>
      </trkpt>
      <trkpt lat="46.43081" lon="4.4796">
        <ele>492.067</ele>
        <time>2022-09-25T09:25:23Z</time>
      </trkpt>
      <trkpt lat="46.43086" lon="4.47966">
        <ele>493.767</ele>
        <time>2022-09-25T09:25:29Z</time>
      </trkpt>
      <trkpt lat="46.43093" lon="4.47968">
        <ele>496.067</ele>
        <time>2022-09-25T09:25:38Z</time>
      </trkpt>
      <trkpt lat="46.43104" lon="4.47969">
        <ele>498.067</ele>
        <time>2022-09-25T09:25:49Z</time>
      </trkpt>
      <trkpt lat="46.4311" lon="4.47974">
        <ele>497.767</ele>
        <time>2022-09-25T09:25:56Z</time>
      </trkpt>
      <trkpt lat="46.43117" lon="4.47973">
        <ele>498.567</ele>
        <time>2022-09-25T09:26:02Z</time>
      </trkpt>
      <trkpt lat="46.43128" lon="4.47975">
        <ele>500.067</ele>
        <time>2022-09-25T09:26:14Z</time>
      </trkpt>
      <trkpt lat="46.43143" lon="4.47977">
        <ele>499.567</ele>
        <time>2022-09-25T09:26:27Z</time>
      </trkpt>
      <trkpt lat="46.43152" lon="4.47979">
        <ele>500.167</ele>
        <time>2022-09-25T09:26:32Z</time>
      </trkpt>
      <trkpt lat="46.4316" lon="4.47983">
        <ele>500.167</ele>
        <time>2022-09-25T09:26:37Z</time>
      </trkpt>
      <trkpt lat="46.43166" lon="4.47987">
        <ele>501.667</ele>
        <time>2022-09-25T09:26:43Z</time>
      </trkpt>
      <trkpt lat="46.43173" lon="4.47987">
        <ele>502.967</ele>
        <time>2022-09-25T09:26:49Z</time>
      </trkpt>
      <trkpt lat="46.43179" lon="4.47989">
        <ele>504.067</ele>
        <time>2022-09-25T09:26:55Z</time>
      </trkpt>
      <trkpt lat="46.43187" lon="4.47989">
        <ele>504.667</ele>
        <time>2022-09-25T09:27:01Z</time>
      </trkpt>
      <trkpt lat="46.43194" lon="4.47985">
        <ele>505.667</ele>
        <time>2022-09-25T09:27:06Z</time>
      </trkpt>
      <trkpt lat="46.432" lon="4.47985">
        <ele>507.967</ele>
        <time>2022-09-25T09:27:14Z</time>
      </trkpt>
      <trkpt lat="46.43207" lon="4.47983">
        <ele>510.167</ele>
        <time>2022-09-25T09:27:20Z</time>
      </trkpt>
      <trkpt lat="46.43214" lon="4.47983">
        <ele>512.067</ele>
        <time>2022-09-25T09:27:25Z</time>
      </trkpt>
      <trkpt lat="46.43222" lon="4.47985">
        <ele>514.367</ele>
        <time>2022-09-25T09:27:31Z</time>
      </trkpt>
      <trkpt lat="46.43229" lon="4.47986">
        <ele>516.267</ele>
        <time>2022-09-25T09:27:37Z</time>
      </trkpt>
      <trkpt lat="46.43236" lon="4.47985">
        <ele>517.467</ele>
        <time>2022-09-25T09:27:43Z</time>
      </trkpt>
      <trkpt lat="46.43243" lon="4.47988">
        <ele>516.967</ele>
        <time>2022-09-25T09:27:49Z</time>
      </trkpt>
      <trkpt lat="46.4325" lon="4.47989">
        <ele>517.567</ele>
        <time>2022-09-25T09:27:56Z</time>
      </trkpt>
      <trkpt lat="46.43257" lon="4.47987">
        <ele>517.267</ele>
        <time>2022-09-25T09:28:01Z</time>
      </trkpt>
      <trkpt lat="46.43269" lon="4.47984">
        <ele>516.667</ele>
        <time>2022-09-25T09:28:16Z</time>
      </trkpt>
      <trkpt lat="46.43283" lon="4.47985">
        <ele>515.867</ele>
        <time>2022-09-25T09:28:29Z</time>
      </trkpt>
      <trkpt lat="46.43291" lon="4.4798">
        <ele>515.567</ele>
        <time>2022-09-25T09:28:35Z</time>
      </trkpt>
      <trkpt lat="46.43298" lon="4.47977">
        <ele>514.367</ele>
        <time>2022-09-25T09:28:40Z</time>
      </trkpt>
      <trkpt lat="46.43309" lon="4.47973">
        <ele>513.868</ele>
        <time>2022-09-25T09:28:52Z</time>
      </trkpt>
      <trkpt lat="46.4332" lon="4.47963">
        <ele>513.368</ele>
        <time>2022-09-25T09:29:02Z</time>
      </trkpt>
      <trkpt lat="46.43333" lon="4.4795">
        <ele>514.068</ele>
        <time>2022-09-25T09:29:14Z</time>
      </trkpt>
      <trkpt lat="46.43339" lon="4.47945">
        <ele>514.468</ele>
        <time>2022-09-25T09:29:19Z</time>
      </trkpt>
      <trkpt lat="46.43346" lon="4.47938">
        <ele>514.768</ele>
        <time>2022-09-25T09:29:29Z</time>
      </trkpt>
      <trkpt lat="46.43353" lon="4.47934">
        <ele>516.668</ele>
        <time>2022-09-25T09:29:35Z</time>
      </trkpt>
      <trkpt lat="46.43362" lon="4.47925">
        <ele>519.468</ele>
        <time>2022-09-25T09:29:46Z</time>
      </trkpt>
      <trkpt lat="46.43372" lon="4.47913">
        <ele>521.868</ele>
        <time>2022-09-25T09:29:59Z</time>
      </trkpt>
      <trkpt lat="46.43383" lon="4.47903">
        <ele>522.068</ele>
        <time>2022-09-25T09:30:09Z</time>
      </trkpt>
      <trkpt lat="46.43379" lon="4.4789">
        <ele>523.768</ele>
        <time>2022-09-25T09:32:04Z</time>
      </trkpt>
      <trkpt lat="46.43367" lon="4.47888">
        <ele>526.268</ele>
        <time>2022-09-25T09:32:19Z</time>
      </trkpt>
      <trkpt lat="46.43356" lon="4.47894">
        <ele>526.368</ele>
        <time>2022-09-25T09:32:34Z</time>
      </trkpt>
      <trkpt lat="46.43342" lon="4.47898">
        <ele>526.068</ele>
        <time>2022-09-25T09:32:46Z</time>
      </trkpt>
      <trkpt lat="46.4333" lon="4.47896">
        <ele>525.868</ele>
        <time>2022-09-25T09:33:02Z</time>
      </trkpt>
      <trkpt lat="46.43321" lon="4.4789">
        <ele>525.467</ele>
        <time>2022-09-25T09:33:08Z</time>
      </trkpt>
      <trkpt lat="46.43313" lon="4.47887">
        <ele>524.267</ele>
        <time>2022-09-25T09:33:13Z</time>
      </trkpt>
      <trkpt lat="46.43304" lon="4.4788">
        <ele>523.567</ele>
        <time>2022-09-25T09:33:30Z</time>
      </trkpt>
      <trkpt lat="46.43295" lon="4.47873">
        <ele>528.567</ele>
        <time>2022-09-25T09:33:57Z</time>
      </trkpt>
      <trkpt lat="46.43287" lon="4.47857">
        <ele>532.567</ele>
        <time>2022-09-25T09:34:10Z</time>
      </trkpt>
      <trkpt lat="46.43279" lon="4.47847">
        <ele>534.967</ele>
        <time>2022-09-25T09:34:21Z</time>
      </trkpt>
      <trkpt lat="46.4327" lon="4.47832">
        <ele>535.667</ele>
        <time>2022-09-25T09:34:31Z</time>
      </trkpt>
      <trkpt lat="46.43264" lon="4.47824">
        <ele>536.667</ele>
        <time>2022-09-25T09:34:36Z</time>
      </trkpt>
      <trkpt lat="46.43257" lon="4.47814">
        <ele>538.867</ele>
        <time>2022-09-25T09:34:48Z</time>
      </trkpt>
      <trkpt lat="46.43252" lon="4.47797">
        <ele>538.667</ele>
        <time>2022-09-25T09:35:00Z</time>
      </trkpt>
      <trkpt lat="46.43256" lon="4.47781">
        <ele>537.667</ele>
        <time>2022-09-25T09:35:15Z</time>
      </trkpt>
      <trkpt lat="46.4326" lon="4.47766">
        <ele>539.167</ele>
        <time>2022-09-25T09:35:33Z</time>
      </trkpt>
      <trkpt lat="46.43265" lon="4.47747">
        <ele>540.967</ele>
        <time>2022-09-25T09:35:44Z</time>
      </trkpt>
      <trkpt lat="46.43269" lon="4.47731">
        <ele>543.367</ele>
        <time>2022-09-25T09:36:03Z</time>
      </trkpt>
      <trkpt lat="46.43275" lon="4.47716">
        <ele>545.067</ele>
        <time>2022-09-25T09:36:40Z</time>
      </trkpt>
      <trkpt lat="46.43283" lon="4.47703">
        <ele>546.267</ele>
        <time>2022-09-25T09:36:54Z</time>
      </trkpt>
      <trkpt lat="46.4329" lon="4.47712">
        <ele>548.867</ele>
        <time>2022-09-25T09:37:47Z</time>
      </trkpt>
      <trkpt lat="46.43297" lon="4.47717">
        <ele>549.467</ele>
        <time>2022-09-25T09:37:59Z</time>
      </trkpt>
      <trkpt lat="46.43304" lon="4.47723">
        <ele>549.867</ele>
        <time>2022-09-25T09:38:04Z</time>
      </trkpt>
      <trkpt lat="46.4331" lon="4.47729">
        <ele>549.467</ele>
        <time>2022-09-25T09:38:10Z</time>
      </trkpt>
      <trkpt lat="46.43318" lon="4.47717">
        <ele>550.567</ele>
        <time>2022-09-25T09:38:31Z</time>
      </trkpt>
      <trkpt lat="46.43326" lon="4.47704">
        <ele>551.467</ele>
        <time>2022-09-25T09:38:42Z</time>
      </trkpt>
      <trkpt lat="46.43329" lon="4.47683">
        <ele>556.067</ele>
        <time>2022-09-25T09:39:10Z</time>
      </trkpt>
      <trkpt lat="46.43331" lon="4.47667">
        <ele>557.967</ele>
        <time>2022-09-25T09:39:53Z</time>
      </trkpt>
      <trkpt lat="46.43329" lon="4.47645">
        <ele>559.467</ele>
        <time>2022-09-25T09:40:09Z</time>
      </trkpt>
      <trkpt lat="46.43331" lon="4.4763">
        <ele>561.667</ele>
        <time>2022-09-25T09:40:27Z</time>
      </trkpt>
      <trkpt lat="46.43342" lon="4.47622">
        <ele>563.367</ele>
        <time>2022-09-25T09:40:49Z</time>
      </trkpt>
      <trkpt lat="46.4334" lon="4.47607">
        <ele>564.967</ele>
        <time>2022-09-25T09:41:15Z</time>
      </trkpt>
      <trkpt lat="46.43342" lon="4.47593">
        <ele>567.767</ele>
        <time>2022-09-25T09:41:43Z</time>
      </trkpt>
      <trkpt lat="46.43352" lon="4.47586">
        <ele>571.367</ele>
        <time>2022-09-25T09:42:00Z</time>
      </trkpt>
      <trkpt lat="46.43363" lon="4.47584">
        <ele>580.467</ele>
        <time>2022-09-25T09:44:40Z</time>
      </trkpt>
      <trkpt lat="46.4337" lon="4.47586">
        <ele>580.567</ele>
        <time>2022-09-25T09:44:49Z</time>
      </trkpt>
      <trkpt lat="46.43377" lon="4.47585">
        <ele>581.267</ele>
        <time>2022-09-25T09:44:55Z</time>
      </trkpt>
      <trkpt lat="46.43383" lon="4.47581">
        <ele>582.167</ele>
        <time>2022-09-25T09:45:01Z</time>
      </trkpt>
      <trkpt lat="46.4339" lon="4.47567">
        <ele>583.767</ele>
        <time>2022-09-25T09:45:21Z</time>
      </trkpt>
      <trkpt lat="46.4339" lon="4.47557">
        <ele>585.567</ele>
        <time>2022-09-25T09:45:28Z</time>
      </trkpt>
      <trkpt lat="46.43386" lon="4.47548">
        <ele>587.767</ele>
        <time>2022-09-25T09:45:35Z</time>
      </trkpt>
      <trkpt lat="46.43381" lon="4.47538">
        <ele>588.467</ele>
        <time>2022-09-25T09:45:43Z</time>
      </trkpt>
      <trkpt lat="46.43377" lon="4.4753">
        <ele>588.467</ele>
        <time>2022-09-25T09:45:50Z</time>
      </trkpt>
      <trkpt lat="46.43374" lon="4.4752">
        <ele>588.167</ele>
        <time>2022-09-25T09:45:56Z</time>
      </trkpt>
      <trkpt lat="46.43372" lon="4.47502">
        <ele>587.567</ele>
        <time>2022-09-25T09:46:07Z</time>
      </trkpt>
      <trkpt lat="46.43371" lon="4.47493">
        <ele>587.767</ele>
        <time>2022-09-25T09:46:12Z</time>
      </trkpt>
      <trkpt lat="46.43371" lon="4.47483">
        <ele>586.367</ele>
        <time>2022-09-25T09:46:19Z</time>
      </trkpt>
      <trkpt lat="46.43372" lon="4.47473">
        <ele>585.067</ele>
        <time>2022-09-25T09:46:25Z</time>
      </trkpt>
      <trkpt lat="46.4337" lon="4.47462">
        <ele>585.367</ele>
        <time>2022-09-25T09:46:32Z</time>
      </trkpt>
      <trkpt lat="46.43371" lon="4.47452">
        <ele>586.067</ele>
        <time>2022-09-25T09:46:39Z</time>
      </trkpt>
      <trkpt lat="46.43371" lon="4.47441">
        <ele>586.767</ele>
        <time>2022-09-25T09:46:46Z</time>
      </trkpt>
      <trkpt lat="46.4337" lon="4.47423">
        <ele>585.567</ele>
        <time>2022-09-25T09:46:58Z</time>
      </trkpt>
      <trkpt lat="46.43363" lon="4.4741">
        <ele>578.367</ele>
        <time>2022-09-25T09:47:34Z</time>
      </trkpt>
      <trkpt lat="46.43353" lon="4.47399">
        <ele>579.367</ele>
        <time>2022-09-25T09:50:18Z</time>
      </trkpt>
      <trkpt lat="46.43349" lon="4.47391">
        <ele>579.767</ele>
        <time>2022-09-25T09:50:25Z</time>
      </trkpt>
      <trkpt lat="46.43347" lon="4.47381">
        <ele>579.967</ele>
        <time>2022-09-25T09:50:33Z</time>
      </trkpt>
      <trkpt lat="46.43344" lon="4.47372">
        <ele>580.267</ele>
        <time>2022-09-25T09:50:39Z</time>
      </trkpt>
      <trkpt lat="46.43339" lon="4.47364">
        <ele>580.967</ele>
        <time>2022-09-25T09:50:44Z</time>
      </trkpt>
      <trkpt lat="46.43335" lon="4.47357">
        <ele>580.067</ele>
        <time>2022-09-25T09:51:08Z</time>
      </trkpt>
      <trkpt lat="46.43338" lon="4.47349">
        <ele>579.267</ele>
        <time>2022-09-25T09:51:29Z</time>
      </trkpt>
      <trkpt lat="46.43345" lon="4.47351">
        <ele>574.567</ele>
        <time>2022-09-25T09:51:35Z</time>
      </trkpt>
      <trkpt lat="46.43338" lon="4.47343">
        <ele>574.467</ele>
        <time>2022-09-25T09:51:40Z</time>
      </trkpt>
      <trkpt lat="46.43337" lon="4.47355">
        <ele>574.367</ele>
        <time>2022-09-25T09:52:14Z</time>
      </trkpt>
      <trkpt lat="46.43329" lon="4.47351">
        <ele>573.767</ele>
        <time>2022-09-25T09:53:42Z</time>
      </trkpt>
      <trkpt lat="46.43338" lon="4.47348">
        <ele>575.067</ele>
        <time>2022-09-25T09:54:12Z</time>
      </trkpt>
      <trkpt lat="46.43329" lon="4.47353">
        <ele>576.367</ele>
        <time>2022-09-25T10:03:37Z</time>
      </trkpt>
      <trkpt lat="46.43338" lon="4.47355">
        <ele>578.267</ele>
        <time>2022-09-25T10:04:49Z</time>
      </trkpt>
      <trkpt lat="46.43345" lon="4.47345">
        <ele>584.167</ele>
        <time>2022-09-25T10:06:50Z</time>
      </trkpt>
      <trkpt lat="46.43338" lon="4.47352">
        <ele>582.467</ele>
        <time>2022-09-25T10:07:20Z</time>
      </trkpt>
      <trkpt lat="46.43343" lon="4.47342">
        <ele>584.767</ele>
        <time>2022-09-25T10:08:06Z</time>
      </trkpt>
      <trkpt lat="46.43337" lon="4.47347">
        <ele>585.067</ele>
        <time>2022-09-25T10:09:24Z</time>
      </trkpt>
      <trkpt lat="46.43334" lon="4.47357">
        <ele>585.067</ele>
        <time>2022-09-25T10:13:07Z</time>
      </trkpt>
      <trkpt lat="46.43338" lon="4.47344">
        <ele>582.967</ele>
        <time>2022-09-25T10:14:47Z</time>
      </trkpt>
      <trkpt lat="46.43328" lon="4.47346">
        <ele>572.567</ele>
        <time>2022-09-25T10:20:20Z</time>
      </trkpt>
      <trkpt lat="46.43325" lon="4.47358">
        <ele>572.567</ele>
        <time>2022-09-25T10:20:47Z</time>
      </trkpt>
      <trkpt lat="46.4333" lon="4.47347">
        <ele>568.967</ele>
        <time>2022-09-25T10:21:15Z</time>
      </trkpt>
      <trkpt lat="46.43337" lon="4.4735">
        <ele>567.967</ele>
        <time>2022-09-25T10:21:24Z</time>
      </trkpt>
      <trkpt lat="46.43344" lon="4.47332">
        <ele>566.567</ele>
        <time>2022-09-25T10:21:33Z</time>
      </trkpt>
      <trkpt lat="46.43337" lon="4.47337">
        <ele>565.967</ele>
        <time>2022-09-25T10:21:50Z</time>
      </trkpt>
      <trkpt lat="46.43329" lon="4.47343">
        <ele>566.567</ele>
        <time>2022-09-25T10:22:08Z</time>
      </trkpt>
      <trkpt lat="46.43342" lon="4.47352">
        <ele>567.267</ele>
        <time>2022-09-25T10:22:31Z</time>
      </trkpt>
      <trkpt lat="46.43329" lon="4.47342">
        <ele>571.567</ele>
        <time>2022-09-25T10:22:53Z</time>
      </trkpt>
      <trkpt lat="46.43339" lon="4.47353">
        <ele>576.967</ele>
        <time>2022-09-25T10:27:39Z</time>
      </trkpt>
      <trkpt lat="46.43341" lon="4.47365">
        <ele>573.167</ele>
        <time>2022-09-25T10:29:44Z</time>
      </trkpt>
      <trkpt lat="46.4334" lon="4.47349">
        <ele>573.367</ele>
        <time>2022-09-25T10:31:19Z</time>
      </trkpt>
      <trkpt lat="46.43339" lon="4.47363">
        <ele>572.067</ele>
        <time>2022-09-25T10:32:03Z</time>
      </trkpt>
      <trkpt lat="46.43331" lon="4.47376">
        <ele>570.967</ele>
        <time>2022-09-25T10:32:14Z</time>
      </trkpt>
      <trkpt lat="46.43326" lon="4.47382">
        <ele>571.567</ele>
        <time>2022-09-25T10:32:19Z</time>
      </trkpt>
      <trkpt lat="46.43321" lon="4.4739">
        <ele>572.067</ele>
        <time>2022-09-25T10:32:37Z</time>
      </trkpt>
      <trkpt lat="46.43324" lon="4.47408">
        <ele>573.967</ele>
        <time>2022-09-25T10:33:36Z</time>
      </trkpt>
      <trkpt lat="46.43317" lon="4.47401">
        <ele>573.867</ele>
        <time>2022-09-25T10:34:45Z</time>
      </trkpt>
      <trkpt lat="46.43314" lon="4.47414">
        <ele>572.867</ele>
        <time>2022-09-25T10:38:07Z</time>
      </trkpt>
      <trkpt lat="46.43311" lon="4.47428">
        <ele>571.167</ele>
        <time>2022-09-25T10:38:26Z</time>
      </trkpt>
      <trkpt lat="46.43313" lon="4.47438">
        <ele>571.967</ele>
        <time>2022-09-25T10:38:33Z</time>
      </trkpt>
      <trkpt lat="46.43314" lon="4.47458">
        <ele>575.667</ele>
        <time>2022-09-25T10:38:59Z</time>
      </trkpt>
      <trkpt lat="46.43316" lon="4.47473">
        <ele>576.267</ele>
        <time>2022-09-25T10:39:26Z</time>
      </trkpt>
      <trkpt lat="46.43322" lon="4.47484">
        <ele>576.367</ele>
        <time>2022-09-25T10:40:17Z</time>
      </trkpt>
      <trkpt lat="46.43334" lon="4.47494">
        <ele>578.567</ele>
        <time>2022-09-25T10:40:39Z</time>
      </trkpt>
      <trkpt lat="46.4334" lon="4.47508">
        <ele>583.067</ele>
        <time>2022-09-25T10:40:57Z</time>
      </trkpt>
      <trkpt lat="46.43334" lon="4.47518">
        <ele>586.367</ele>
        <time>2022-09-25T10:41:16Z</time>
      </trkpt>
      <trkpt lat="46.43331" lon="4.47529">
        <ele>587.967</ele>
        <time>2022-09-25T10:41:25Z</time>
      </trkpt>
      <trkpt lat="46.43328" lon="4.47544">
        <ele>590.467</ele>
        <time>2022-09-25T10:41:42Z</time>
      </trkpt>
      <trkpt lat="46.43322" lon="4.47549">
        <ele>592.367</ele>
        <time>2022-09-25T10:41:49Z</time>
      </trkpt>
      <trkpt lat="46.43327" lon="4.4754">
        <ele>592.267</ele>
        <time>2022-09-25T10:44:59Z</time>
      </trkpt>
      <trkpt lat="46.43331" lon="4.47527">
        <ele>594.267</ele>
        <time>2022-09-25T10:45:18Z</time>
      </trkpt>
      <trkpt lat="46.43337" lon="4.47515">
        <ele>597.067</ele>
        <time>2022-09-25T10:45:33Z</time>
      </trkpt>
      <trkpt lat="46.4334" lon="4.47499">
        <ele>598.467</ele>
        <time>2022-09-25T10:45:59Z</time>
      </trkpt>
      <trkpt lat="46.43342" lon="4.47484">
        <ele>597.267</ele>
        <time>2022-09-25T10:46:19Z</time>
      </trkpt>
      <trkpt lat="46.43347" lon="4.47463">
        <ele>592.367</ele>
        <time>2022-09-25T10:46:41Z</time>
      </trkpt>
      <trkpt lat="46.43349" lon="4.47453">
        <ele>590.467</ele>
        <time>2022-09-25T10:46:50Z</time>
      </trkpt>
      <trkpt lat="46.43351" lon="4.47441">
        <ele>588.867</ele>
        <time>2022-09-25T10:46:58Z</time>
      </trkpt>
      <trkpt lat="46.43354" lon="4.47432">
        <ele>588.867</ele>
        <time>2022-09-25T10:47:04Z</time>
      </trkpt>
      <trkpt lat="46.43363" lon="4.47434">
        <ele>589.667</ele>
        <time>2022-09-25T10:47:53Z</time>
      </trkpt>
      <trkpt lat="46.43363" lon="4.47448">
        <ele>586.967</ele>
        <time>2022-09-25T10:48:26Z</time>
      </trkpt>
      <trkpt lat="46.43356" lon="4.47447">
        <ele>589.267</ele>
        <time>2022-09-25T10:48:34Z</time>
      </trkpt>
      <trkpt lat="46.43352" lon="4.47439">
        <ele>591.867</ele>
        <time>2022-09-25T10:48:41Z</time>
      </trkpt>
      <trkpt lat="46.43354" lon="4.47427">
        <ele>593.967</ele>
        <time>2022-09-25T10:48:47Z</time>
      </trkpt>
      <trkpt lat="46.43356" lon="4.47416">
        <ele>596.467</ele>
        <time>2022-09-25T10:48:54Z</time>
      </trkpt>
      <trkpt lat="46.43385" lon="4.47411">
        <ele>600.367</ele>
        <time>2022-09-25T10:49:07Z</time>
      </trkpt>
      <trkpt lat="46.43382" lon="4.47399">
        <ele>602.067</ele>
        <time>2022-09-25T10:49:13Z</time>
      </trkpt>
      <trkpt lat="46.43372" lon="4.47385">
        <ele>604.067</ele>
        <time>2022-09-25T10:49:19Z</time>
      </trkpt>
      <trkpt lat="46.43384" lon="4.47431">
        <ele>611.167</ele>
        <time>2022-09-25T10:50:46Z</time>
      </trkpt>
      <trkpt lat="46.43383" lon="4.4742">
        <ele>582.167</ele>
        <time>2022-09-25T10:50:52Z</time>
      </trkpt>
      <trkpt lat="46.43381" lon="4.47466">
        <ele>622.767</ele>
        <time>2022-09-25T10:51:16Z</time>
      </trkpt>
      <trkpt lat="46.43383" lon="4.47451">
        <ele>662.367</ele>
        <time>2022-09-25T10:51:22Z</time>
      </trkpt>
      <trkpt lat="46.43371" lon="4.47467">
        <ele>646.267</ele>
        <time>2022-09-25T10:51:27Z</time>
      </trkpt>
      <trkpt lat="46.43377" lon="4.47447">
        <ele>633.367</ele>
        <time>2022-09-25T10:51:41Z</time>
      </trkpt>
      <trkpt lat="46.43372" lon="4.47439">
        <ele>640.967</ele>
        <time>2022-09-25T10:51:52Z</time>
      </trkpt>
      <trkpt lat="46.43365" lon="4.47436">
        <ele>628.667</ele>
        <time>2022-09-25T10:52:06Z</time>
      </trkpt>
      <trkpt lat="46.43364" lon="4.47447">
        <ele>581.367</ele>
        <time>2022-09-25T10:52:17Z</time>
      </trkpt>
      <trkpt lat="46.43373" lon="4.47447">
        <ele>574.867</ele>
        <time>2022-09-25T10:52:22Z</time>
      </trkpt>
      <trkpt lat="46.43364" lon="4.4744">
        <ele>574.667</ele>
        <time>2022-09-25T10:52:30Z</time>
      </trkpt>
      <trkpt lat="46.43359" lon="4.47423">
        <ele>583.967</ele>
        <time>2022-09-25T10:53:21Z</time>
      </trkpt>
      <trkpt lat="46.4337" lon="4.47421">
        <ele>590.367</ele>
        <time>2022-09-25T10:55:48Z</time>
      </trkpt>
      <trkpt lat="46.43377" lon="4.47421">
        <ele>590.667</ele>
        <time>2022-09-25T10:55:56Z</time>
      </trkpt>
      <trkpt lat="46.43382" lon="4.47414">
        <ele>590.667</ele>
        <time>2022-09-25T10:56:02Z</time>
      </trkpt>
      <trkpt lat="46.43388" lon="4.47411">
        <ele>590.967</ele>
        <time>2022-09-25T10:56:09Z</time>
      </trkpt>
      <trkpt lat="46.43396" lon="4.47411">
        <ele>590.167</ele>
        <time>2022-09-25T10:56:17Z</time>
      </trkpt>
      <trkpt lat="46.43402" lon="4.47412">
        <ele>590.267</ele>
        <time>2022-09-25T10:56:23Z</time>
      </trkpt>
      <trkpt lat="46.4341" lon="4.47415">
        <ele>591.367</ele>
        <time>2022-09-25T10:56:29Z</time>
      </trkpt>
      <trkpt lat="46.43417" lon="4.47419">
        <ele>592.567</ele>
        <time>2022-09-25T10:56:36Z</time>
      </trkpt>
      <trkpt lat="46.43423" lon="4.47422">
        <ele>592.467</ele>
        <time>2022-09-25T10:56:42Z</time>
      </trkpt>
      <trkpt lat="46.43435" lon="4.47428">
        <ele>591.867</ele>
        <time>2022-09-25T10:56:59Z</time>
      </trkpt>
      <trkpt lat="46.43439" lon="4.47436">
        <ele>590.967</ele>
        <time>2022-09-25T10:57:12Z</time>
      </trkpt>
      <trkpt lat="46.43445" lon="4.47446">
        <ele>589.167</ele>
        <time>2022-09-25T10:57:22Z</time>
      </trkpt>
      <trkpt lat="46.43451" lon="4.47453">
        <ele>587.567</ele>
        <time>2022-09-25T10:57:31Z</time>
      </trkpt>
      <trkpt lat="46.43463" lon="4.47459">
        <ele>585.868</ele>
        <time>2022-09-25T10:57:50Z</time>
      </trkpt>
      <trkpt lat="46.43469" lon="4.47455">
        <ele>584.768</ele>
        <time>2022-09-25T10:57:56Z</time>
      </trkpt>
      <trkpt lat="46.43476" lon="4.47451">
        <ele>583.268</ele>
        <time>2022-09-25T10:58:02Z</time>
      </trkpt>
      <trkpt lat="46.43481" lon="4.47443">
        <ele>582.368</ele>
        <time>2022-09-25T10:58:09Z</time>
      </trkpt>
      <trkpt lat="46.43486" lon="4.47437">
        <ele>581.168</ele>
        <time>2022-09-25T10:58:16Z</time>
      </trkpt>
      <trkpt lat="46.4349" lon="4.47429">
        <ele>579.968</ele>
        <time>2022-09-25T10:58:22Z</time>
      </trkpt>
      <trkpt lat="46.43495" lon="4.47422">
        <ele>579.068</ele>
        <time>2022-09-25T10:58:28Z</time>
      </trkpt>
      <trkpt lat="46.435" lon="4.47414">
        <ele>577.568</ele>
        <time>2022-09-25T10:58:35Z</time>
      </trkpt>
      <trkpt lat="46.43506" lon="4.47406">
        <ele>575.068</ele>
        <time>2022-09-25T10:58:42Z</time>
      </trkpt>
      <trkpt lat="46.43511" lon="4.47399">
        <ele>572.368</ele>
        <time>2022-09-25T10:58:50Z</time>
      </trkpt>
      <trkpt lat="46.43515" lon="4.47391">
        <ele>571.068</ele>
        <time>2022-09-25T10:58:56Z</time>
      </trkpt>
      <trkpt lat="46.4352" lon="4.47385">
        <ele>568.168</ele>
        <time>2022-09-25T10:59:04Z</time>
      </trkpt>
      <trkpt lat="46.43525" lon="4.47372">
        <ele>567.068</ele>
        <time>2022-09-25T10:59:19Z</time>
      </trkpt>
      <trkpt lat="46.43528" lon="4.47362">
        <ele>568.068</ele>
        <time>2022-09-25T10:59:24Z</time>
      </trkpt>
      <trkpt lat="46.43531" lon="4.47352">
        <ele>569.368</ele>
        <time>2022-09-25T10:59:29Z</time>
      </trkpt>
      <trkpt lat="46.43533" lon="4.47342">
        <ele>570.868</ele>
        <time>2022-09-25T10:59:35Z</time>
      </trkpt>
      <trkpt lat="46.43524" lon="4.47325">
        <ele>572.468</ele>
        <time>2022-09-25T10:59:53Z</time>
      </trkpt>
      <trkpt lat="46.43525" lon="4.47311">
        <ele>572.368</ele>
        <time>2022-09-25T11:00:22Z</time>
      </trkpt>
      <trkpt lat="46.43533" lon="4.47306">
        <ele>573.768</ele>
        <time>2022-09-25T11:00:46Z</time>
      </trkpt>
      <trkpt lat="46.43543" lon="4.47306">
        <ele>572.168</ele>
        <time>2022-09-25T11:03:24Z</time>
      </trkpt>
      <trkpt lat="46.4355" lon="4.47305">
        <ele>571.768</ele>
        <time>2022-09-25T11:03:31Z</time>
      </trkpt>
      <trkpt lat="46.43557" lon="4.47306">
        <ele>571.168</ele>
        <time>2022-09-25T11:03:38Z</time>
      </trkpt>
      <trkpt lat="46.4355" lon="4.47306">
        <ele>570.268</ele>
        <time>2022-09-25T11:04:28Z</time>
      </trkpt>
      <trkpt lat="46.43543" lon="4.47319">
        <ele>571.568</ele>
        <time>2022-09-25T11:04:56Z</time>
      </trkpt>
      <trkpt lat="46.43536" lon="4.47333">
        <ele>573.668</ele>
        <time>2022-09-25T11:05:13Z</time>
      </trkpt>
      <trkpt lat="46.43532" lon="4.47348">
        <ele>575.968</ele>
        <time>2022-09-25T11:05:41Z</time>
      </trkpt>
      <trkpt lat="46.43532" lon="4.47365">
        <ele>576.968</ele>
        <time>2022-09-25T11:06:03Z</time>
      </trkpt>
      <trkpt lat="46.43539" lon="4.47376">
        <ele>576.068</ele>
        <time>2022-09-25T11:06:37Z</time>
      </trkpt>
      <trkpt lat="46.43551" lon="4.47375">
        <ele>574.368</ele>
        <time>2022-09-25T11:06:50Z</time>
      </trkpt>
      <trkpt lat="46.43563" lon="4.47371">
        <ele>572.168</ele>
        <time>2022-09-25T11:07:03Z</time>
      </trkpt>
      <trkpt lat="46.43575" lon="4.4737">
        <ele>569.868</ele>
        <time>2022-09-25T11:07:16Z</time>
      </trkpt>
      <trkpt lat="46.43588" lon="4.47368">
        <ele>567.168</ele>
        <time>2022-09-25T11:07:27Z</time>
      </trkpt>
      <trkpt lat="46.436" lon="4.47367">
        <ele>564.768</ele>
        <time>2022-09-25T11:07:39Z</time>
      </trkpt>
      <trkpt lat="46.43613" lon="4.47366">
        <ele>561.868</ele>
        <time>2022-09-25T11:07:51Z</time>
      </trkpt>
      <trkpt lat="46.43626" lon="4.47365">
        <ele>558.468</ele>
        <time>2022-09-25T11:08:01Z</time>
      </trkpt>
      <trkpt lat="46.43633" lon="4.47362">
        <ele>555.868</ele>
        <time>2022-09-25T11:08:06Z</time>
      </trkpt>
      <trkpt lat="46.4364" lon="4.47359">
        <ele>552.668</ele>
        <time>2022-09-25T11:08:12Z</time>
      </trkpt>
      <trkpt lat="46.43647" lon="4.4736">
        <ele>551.468</ele>
        <time>2022-09-25T11:08:17Z</time>
      </trkpt>
      <trkpt lat="46.43655" lon="4.47359">
        <ele>550.068</ele>
        <time>2022-09-25T11:08:23Z</time>
      </trkpt>
      <trkpt lat="46.43662" lon="4.47359">
        <ele>548.568</ele>
        <time>2022-09-25T11:08:29Z</time>
      </trkpt>
      <trkpt lat="46.4367" lon="4.47358">
        <ele>547.268</ele>
        <time>2022-09-25T11:08:35Z</time>
      </trkpt>
      <trkpt lat="46.43678" lon="4.47358">
        <ele>547.168</ele>
        <time>2022-09-25T11:08:41Z</time>
      </trkpt>
      <trkpt lat="46.43684" lon="4.47358">
        <ele>547.368</ele>
        <time>2022-09-25T11:08:46Z</time>
      </trkpt>
      <trkpt lat="46.43691" lon="4.47357">
        <ele>547.568</ele>
        <time>2022-09-25T11:08:51Z</time>
      </trkpt>
      <trkpt lat="46.43697" lon="4.47355">
        <ele>547.668</ele>
        <time>2022-09-25T11:08:56Z</time>
      </trkpt>
      <trkpt lat="46.43705" lon="4.47354">
        <ele>547.668</ele>
        <time>2022-09-25T11:09:02Z</time>
      </trkpt>
      <trkpt lat="46.43713" lon="4.47356">
        <ele>547.068</ele>
        <time>2022-09-25T11:09:08Z</time>
      </trkpt>
      <trkpt lat="46.43719" lon="4.47357">
        <ele>546.168</ele>
        <time>2022-09-25T11:09:13Z</time>
      </trkpt>
      <trkpt lat="46.43727" lon="4.47359">
        <ele>544.068</ele>
        <time>2022-09-25T11:09:19Z</time>
      </trkpt>
      <trkpt lat="46.43734" lon="4.47359">
        <ele>543.168</ele>
        <time>2022-09-25T11:09:25Z</time>
      </trkpt>
      <trkpt lat="46.43741" lon="4.47362">
        <ele>542.368</ele>
        <time>2022-09-25T11:09:31Z</time>
      </trkpt>
      <trkpt lat="46.43748" lon="4.47364">
        <ele>541.968</ele>
        <time>2022-09-25T11:09:37Z</time>
      </trkpt>
      <trkpt lat="46.43755" lon="4.47365">
        <ele>541.168</ele>
        <time>2022-09-25T11:09:43Z</time>
      </trkpt>
      <trkpt lat="46.43761" lon="4.47365">
        <ele>540.568</ele>
        <time>2022-09-25T11:09:48Z</time>
      </trkpt>
      <trkpt lat="46.43768" lon="4.47366">
        <ele>541.068</ele>
        <time>2022-09-25T11:09:54Z</time>
      </trkpt>
      <trkpt lat="46.43775" lon="4.47369">
        <ele>542.468</ele>
        <time>2022-09-25T11:10:00Z</time>
      </trkpt>
      <trkpt lat="46.43789" lon="4.47376">
        <ele>541.968</ele>
        <time>2022-09-25T11:10:15Z</time>
      </trkpt>
      <trkpt lat="46.438" lon="4.47385">
        <ele>540.668</ele>
        <time>2022-09-25T11:10:26Z</time>
      </trkpt>
      <trkpt lat="46.43808" lon="4.47391">
        <ele>539.168</ele>
        <time>2022-09-25T11:10:33Z</time>
      </trkpt>
      <trkpt lat="46.43819" lon="4.474">
        <ele>535.768</ele>
        <time>2022-09-25T11:10:45Z</time>
      </trkpt>
      <trkpt lat="46.43831" lon="4.47407">
        <ele>530.969</ele>
        <time>2022-09-25T11:10:58Z</time>
      </trkpt>
      <trkpt lat="46.43838" lon="4.4741">
        <ele>530.069</ele>
        <time>2022-09-25T11:11:04Z</time>
      </trkpt>
      <trkpt lat="46.43848" lon="4.47412">
        <ele>529.569</ele>
        <time>2022-09-25T11:11:12Z</time>
      </trkpt>
      <trkpt lat="46.43856" lon="4.47415">
        <ele>528.769</ele>
        <time>2022-09-25T11:11:19Z</time>
      </trkpt>
      <trkpt lat="46.43863" lon="4.47417">
        <ele>528.269</ele>
        <time>2022-09-25T11:11:24Z</time>
      </trkpt>
      <trkpt lat="46.43873" lon="4.47424">
        <ele>527.069</ele>
        <time>2022-09-25T11:11:34Z</time>
      </trkpt>
      <trkpt lat="46.43882" lon="4.47428">
        <ele>526.769</ele>
        <time>2022-09-25T11:11:40Z</time>
      </trkpt>
      <trkpt lat="46.43889" lon="4.47429">
        <ele>526.069</ele>
        <time>2022-09-25T11:11:45Z</time>
      </trkpt>
      <trkpt lat="46.43895" lon="4.47432">
        <ele>525.269</ele>
        <time>2022-09-25T11:11:50Z</time>
      </trkpt>
      <trkpt lat="46.43903" lon="4.47436">
        <ele>525.369</ele>
        <time>2022-09-25T11:11:56Z</time>
      </trkpt>
      <trkpt lat="46.4391" lon="4.47436">
        <ele>525.669</ele>
        <time>2022-09-25T11:12:02Z</time>
      </trkpt>
      <trkpt lat="46.43917" lon="4.47438">
        <ele>524.969</ele>
        <time>2022-09-25T11:12:08Z</time>
      </trkpt>
      <trkpt lat="46.43925" lon="4.47441">
        <ele>524.469</ele>
        <time>2022-09-25T11:12:14Z</time>
      </trkpt>
      <trkpt lat="46.43932" lon="4.47437">
        <ele>523.169</ele>
        <time>2022-09-25T11:12:21Z</time>
      </trkpt>
      <trkpt lat="46.43943" lon="4.47435">
        <ele>521.269</ele>
        <time>2022-09-25T11:13:06Z</time>
      </trkpt>
      <trkpt lat="46.43953" lon="4.47444">
        <ele>520.269</ele>
        <time>2022-09-25T11:15:37Z</time>
      </trkpt>
      <trkpt lat="46.4396" lon="4.47448">
        <ele>520.469</ele>
        <time>2022-09-25T11:15:43Z</time>
      </trkpt>
      <trkpt lat="46.43965" lon="4.47454">
        <ele>520.269</ele>
        <time>2022-09-25T11:15:48Z</time>
      </trkpt>
      <trkpt lat="46.43975" lon="4.47461">
        <ele>519.469</ele>
        <time>2022-09-25T11:15:56Z</time>
      </trkpt>
      <trkpt lat="46.43981" lon="4.47462">
        <ele>518.269</ele>
        <time>2022-09-25T11:16:02Z</time>
      </trkpt>
      <trkpt lat="46.43988" lon="4.47466">
        <ele>518.169</ele>
        <time>2022-09-25T11:16:08Z</time>
      </trkpt>
      <trkpt lat="46.43994" lon="4.47468">
        <ele>518.069</ele>
        <time>2022-09-25T11:16:14Z</time>
      </trkpt>
      <trkpt lat="46.44002" lon="4.47468">
        <ele>518.169</ele>
        <time>2022-09-25T11:16:20Z</time>
      </trkpt>
      <trkpt lat="46.44009" lon="4.47468">
        <ele>517.769</ele>
        <time>2022-09-25T11:16:25Z</time>
      </trkpt>
      <trkpt lat="46.44016" lon="4.47467">
        <ele>516.669</ele>
        <time>2022-09-25T11:16:30Z</time>
      </trkpt>
      <trkpt lat="46.44022" lon="4.47468">
        <ele>515.569</ele>
        <time>2022-09-25T11:16:36Z</time>
      </trkpt>
      <trkpt lat="46.4403" lon="4.47467">
        <ele>514.569</ele>
        <time>2022-09-25T11:16:42Z</time>
      </trkpt>
      <trkpt lat="46.44038" lon="4.47468">
        <ele>513.569</ele>
        <time>2022-09-25T11:16:48Z</time>
      </trkpt>
      <trkpt lat="46.44045" lon="4.4747">
        <ele>511.869</ele>
        <time>2022-09-25T11:16:54Z</time>
      </trkpt>
      <trkpt lat="46.44052" lon="4.4747">
        <ele>511.369</ele>
        <time>2022-09-25T11:17:00Z</time>
      </trkpt>
      <trkpt lat="46.44059" lon="4.47471">
        <ele>511.369</ele>
        <time>2022-09-25T11:17:08Z</time>
      </trkpt>
      <trkpt lat="46.44066" lon="4.47471">
        <ele>511.669</ele>
        <time>2022-09-25T11:17:14Z</time>
      </trkpt>
      <trkpt lat="46.44075" lon="4.47473">
        <ele>510.869</ele>
        <time>2022-09-25T11:17:20Z</time>
      </trkpt>
      <trkpt lat="46.44083" lon="4.47474">
        <ele>510.169</ele>
        <time>2022-09-25T11:17:26Z</time>
      </trkpt>
      <trkpt lat="46.44092" lon="4.47476">
        <ele>510.169</ele>
        <time>2022-09-25T11:17:32Z</time>
      </trkpt>
      <trkpt lat="46.441" lon="4.47476">
        <ele>510.669</ele>
        <time>2022-09-25T11:17:37Z</time>
      </trkpt>
      <trkpt lat="46.44107" lon="4.47479">
        <ele>510.669</ele>
        <time>2022-09-25T11:17:42Z</time>
      </trkpt>
      <trkpt lat="46.44114" lon="4.47481">
        <ele>509.769</ele>
        <time>2022-09-25T11:17:48Z</time>
      </trkpt>
      <trkpt lat="46.44121" lon="4.47481">
        <ele>508.969</ele>
        <time>2022-09-25T11:17:53Z</time>
      </trkpt>
      <trkpt lat="46.44128" lon="4.47483">
        <ele>506.469</ele>
        <time>2022-09-25T11:17:59Z</time>
      </trkpt>
      <trkpt lat="46.44139" lon="4.47482">
        <ele>505.769</ele>
        <time>2022-09-25T11:18:33Z</time>
      </trkpt>
      <trkpt lat="46.44147" lon="4.47485">
        <ele>505.769</ele>
        <time>2022-09-25T11:18:49Z</time>
      </trkpt>
      <trkpt lat="46.44158" lon="4.47479">
        <ele>505.069</ele>
        <time>2022-09-25T11:19:05Z</time>
      </trkpt>
      <trkpt lat="46.44168" lon="4.47471">
        <ele>504.069</ele>
        <time>2022-09-25T11:19:28Z</time>
      </trkpt>
      <trkpt lat="46.44181" lon="4.47468">
        <ele>503.17</ele>
        <time>2022-09-25T11:19:42Z</time>
      </trkpt>
      <trkpt lat="46.44191" lon="4.47466">
        <ele>501.17</ele>
        <time>2022-09-25T11:19:51Z</time>
      </trkpt>
      <trkpt lat="46.44204" lon="4.47462">
        <ele>499.97</ele>
        <time>2022-09-25T11:20:06Z</time>
      </trkpt>
      <trkpt lat="46.44217" lon="4.47456">
        <ele>500.47</ele>
        <time>2022-09-25T11:20:22Z</time>
      </trkpt>
      <trkpt lat="46.44225" lon="4.47453">
        <ele>500.27</ele>
        <time>2022-09-25T11:20:28Z</time>
      </trkpt>
      <trkpt lat="46.44231" lon="4.47451">
        <ele>500.27</ele>
        <time>2022-09-25T11:20:33Z</time>
      </trkpt>
      <trkpt lat="46.44239" lon="4.4745">
        <ele>500.07</ele>
        <time>2022-09-25T11:20:39Z</time>
      </trkpt>
      <trkpt lat="46.44246" lon="4.47447">
        <ele>500.47</ele>
        <time>2022-09-25T11:20:45Z</time>
      </trkpt>
      <trkpt lat="46.44253" lon="4.47446">
        <ele>499.57</ele>
        <time>2022-09-25T11:20:51Z</time>
      </trkpt>
      <trkpt lat="46.4426" lon="4.47444">
        <ele>497.97</ele>
        <time>2022-09-25T11:20:57Z</time>
      </trkpt>
      <trkpt lat="46.44267" lon="4.47443">
        <ele>497.47</ele>
        <time>2022-09-25T11:21:02Z</time>
      </trkpt>
      <trkpt lat="46.44275" lon="4.47442">
        <ele>497.27</ele>
        <time>2022-09-25T11:21:08Z</time>
      </trkpt>
      <trkpt lat="46.44282" lon="4.47442">
        <ele>496.77</ele>
        <time>2022-09-25T11:21:13Z</time>
      </trkpt>
      <trkpt lat="46.44289" lon="4.47442">
        <ele>496.27</ele>
        <time>2022-09-25T11:21:19Z</time>
      </trkpt>
      <trkpt lat="46.44296" lon="4.47442">
        <ele>496.67</ele>
        <time>2022-09-25T11:21:25Z</time>
      </trkpt>
      <trkpt lat="46.44303" lon="4.47442">
        <ele>498.27</ele>
        <time>2022-09-25T11:21:31Z</time>
      </trkpt>
      <trkpt lat="46.44311" lon="4.47442">
        <ele>499.37</ele>
        <time>2022-09-25T11:21:37Z</time>
      </trkpt>
      <trkpt lat="46.44318" lon="4.47443">
        <ele>499.07</ele>
        <time>2022-09-25T11:21:43Z</time>
      </trkpt>
      <trkpt lat="46.44325" lon="4.47443">
        <ele>499.37</ele>
        <time>2022-09-25T11:21:48Z</time>
      </trkpt>
      <trkpt lat="46.44333" lon="4.47443">
        <ele>498.97</ele>
        <time>2022-09-25T11:21:54Z</time>
      </trkpt>
      <trkpt lat="46.44342" lon="4.47443">
        <ele>498.47</ele>
        <time>2022-09-25T11:22:00Z</time>
      </trkpt>
      <trkpt lat="46.44349" lon="4.47442">
        <ele>496.87</ele>
        <time>2022-09-25T11:22:06Z</time>
      </trkpt>
      <trkpt lat="46.44357" lon="4.47441">
        <ele>498.77</ele>
        <time>2022-09-25T11:22:13Z</time>
      </trkpt>
      <trkpt lat="46.44363" lon="4.4744">
        <ele>497.37</ele>
        <time>2022-09-25T11:22:19Z</time>
      </trkpt>
      <trkpt lat="46.4437" lon="4.47438">
        <ele>495.17</ele>
        <time>2022-09-25T11:22:25Z</time>
      </trkpt>
      <trkpt lat="46.44378" lon="4.47437">
        <ele>495.17</ele>
        <time>2022-09-25T11:22:30Z</time>
      </trkpt>
      <trkpt lat="46.44385" lon="4.47436">
        <ele>496.97</ele>
        <time>2022-09-25T11:22:36Z</time>
      </trkpt>
      <trkpt lat="46.44392" lon="4.47437">
        <ele>496.17</ele>
        <time>2022-09-25T11:22:42Z</time>
      </trkpt>
      <trkpt lat="46.444" lon="4.47434">
        <ele>494.57</ele>
        <time>2022-09-25T11:22:48Z</time>
      </trkpt>
      <trkpt lat="46.44408" lon="4.47431">
        <ele>493.47</ele>
        <time>2022-09-25T11:22:53Z</time>
      </trkpt>
      <trkpt lat="46.44414" lon="4.4743">
        <ele>493.07</ele>
        <time>2022-09-25T11:22:58Z</time>
      </trkpt>
      <trkpt lat="46.44422" lon="4.4743">
        <ele>492.27</ele>
        <time>2022-09-25T11:23:03Z</time>
      </trkpt>
      <trkpt lat="46.44428" lon="4.47429">
        <ele>492.47</ele>
        <time>2022-09-25T11:23:08Z</time>
      </trkpt>
      <trkpt lat="46.44436" lon="4.47429">
        <ele>491.57</ele>
        <time>2022-09-25T11:23:13Z</time>
      </trkpt>
      <trkpt lat="46.44443" lon="4.47426">
        <ele>492.57</ele>
        <time>2022-09-25T11:23:18Z</time>
      </trkpt>
      <trkpt lat="46.4445" lon="4.47427">
        <ele>494.07</ele>
        <time>2022-09-25T11:23:25Z</time>
      </trkpt>
      <trkpt lat="46.44457" lon="4.47426">
        <ele>493.47</ele>
        <time>2022-09-25T11:23:30Z</time>
      </trkpt>
      <trkpt lat="46.44464" lon="4.47426">
        <ele>493.27</ele>
        <time>2022-09-25T11:23:36Z</time>
      </trkpt>
      <trkpt lat="46.44471" lon="4.47424">
        <ele>494.07</ele>
        <time>2022-09-25T11:23:41Z</time>
      </trkpt>
      <trkpt lat="46.44478" lon="4.47423">
        <ele>494.57</ele>
        <time>2022-09-25T11:23:46Z</time>
      </trkpt>
      <trkpt lat="46.44486" lon="4.47423">
        <ele>494.87</ele>
        <time>2022-09-25T11:23:52Z</time>
      </trkpt>
      <trkpt lat="46.44493" lon="4.47423">
        <ele>495.17</ele>
        <time>2022-09-25T11:23:57Z</time>
      </trkpt>
      <trkpt lat="46.44501" lon="4.47423">
        <ele>495.97</ele>
        <time>2022-09-25T11:24:03Z</time>
      </trkpt>
      <trkpt lat="46.44508" lon="4.47423">
        <ele>496.17</ele>
        <time>2022-09-25T11:24:08Z</time>
      </trkpt>
      <trkpt lat="46.44516" lon="4.47421">
        <ele>494.87</ele>
        <time>2022-09-25T11:24:14Z</time>
      </trkpt>
      <trkpt lat="46.44524" lon="4.4742">
        <ele>495.27</ele>
        <time>2022-09-25T11:24:20Z</time>
      </trkpt>
      <trkpt lat="46.44532" lon="4.47422">
        <ele>495.67</ele>
        <time>2022-09-25T11:24:26Z</time>
      </trkpt>
      <trkpt lat="46.4454" lon="4.47421">
        <ele>494.67</ele>
        <time>2022-09-25T11:24:32Z</time>
      </trkpt>
      <trkpt lat="46.44547" lon="4.47424">
        <ele>493.771</ele>
        <time>2022-09-25T11:24:38Z</time>
      </trkpt>
      <trkpt lat="46.44555" lon="4.47425">
        <ele>493.671</ele>
        <time>2022-09-25T11:24:44Z</time>
      </trkpt>
      <trkpt lat="46.44562" lon="4.47428">
        <ele>494.271</ele>
        <time>2022-09-25T11:24:49Z</time>
      </trkpt>
      <trkpt lat="46.44569" lon="4.47428">
        <ele>495.371</ele>
        <time>2022-09-25T11:24:55Z</time>
      </trkpt>
      <trkpt lat="46.44576" lon="4.47429">
        <ele>495.171</ele>
        <time>2022-09-25T11:25:00Z</time>
      </trkpt>
      <trkpt lat="46.44583" lon="4.47431">
        <ele>496.171</ele>
        <time>2022-09-25T11:25:05Z</time>
      </trkpt>
      <trkpt lat="46.4459" lon="4.47433">
        <ele>496.171</ele>
        <time>2022-09-25T11:25:10Z</time>
      </trkpt>
      <trkpt lat="46.44598" lon="4.47435">
        <ele>497.871</ele>
        <time>2022-09-25T11:25:16Z</time>
      </trkpt>
      <trkpt lat="46.44605" lon="4.47437">
        <ele>497.571</ele>
        <time>2022-09-25T11:25:22Z</time>
      </trkpt>
      <trkpt lat="46.44612" lon="4.47441">
        <ele>497.771</ele>
        <time>2022-09-25T11:25:28Z</time>
      </trkpt>
      <trkpt lat="46.44619" lon="4.47444">
        <ele>497.871</ele>
        <time>2022-09-25T11:25:33Z</time>
      </trkpt>
      <trkpt lat="46.44626" lon="4.47447">
        <ele>496.871</ele>
        <time>2022-09-25T11:25:38Z</time>
      </trkpt>
      <trkpt lat="46.44636" lon="4.47449">
        <ele>494.771</ele>
        <time>2022-09-25T11:25:44Z</time>
      </trkpt>
      <trkpt lat="46.44643" lon="4.47452">
        <ele>493.471</ele>
        <time>2022-09-25T11:25:50Z</time>
      </trkpt>
      <trkpt lat="46.44651" lon="4.47455">
        <ele>491.071</ele>
        <time>2022-09-25T11:25:56Z</time>
      </trkpt>
      <trkpt lat="46.44658" lon="4.4746">
        <ele>490.471</ele>
        <time>2022-09-25T11:26:02Z</time>
      </trkpt>
      <trkpt lat="46.44665" lon="4.47465">
        <ele>490.271</ele>
        <time>2022-09-25T11:26:09Z</time>
      </trkpt>
      <trkpt lat="46.44671" lon="4.47469">
        <ele>490.771</ele>
        <time>2022-09-25T11:26:16Z</time>
      </trkpt>
      <trkpt lat="46.44677" lon="4.47475">
        <ele>490.871</ele>
        <time>2022-09-25T11:26:21Z</time>
      </trkpt>
      <trkpt lat="46.44684" lon="4.4748">
        <ele>490.171</ele>
        <time>2022-09-25T11:26:27Z</time>
      </trkpt>
      <trkpt lat="46.4469" lon="4.47485">
        <ele>490.371</ele>
        <time>2022-09-25T11:26:32Z</time>
      </trkpt>
      <trkpt lat="46.44695" lon="4.47492">
        <ele>491.071</ele>
        <time>2022-09-25T11:26:37Z</time>
      </trkpt>
      <trkpt lat="46.44701" lon="4.47496">
        <ele>492.171</ele>
        <time>2022-09-25T11:26:43Z</time>
      </trkpt>
      <trkpt lat="46.44707" lon="4.475">
        <ele>494.471</ele>
        <time>2022-09-25T11:26:49Z</time>
      </trkpt>
      <trkpt lat="46.44713" lon="4.47505">
        <ele>495.471</ele>
        <time>2022-09-25T11:26:55Z</time>
      </trkpt>
      <trkpt lat="46.4472" lon="4.47508">
        <ele>495.471</ele>
        <time>2022-09-25T11:27:01Z</time>
      </trkpt>
      <trkpt lat="46.44726" lon="4.47513">
        <ele>496.171</ele>
        <time>2022-09-25T11:27:06Z</time>
      </trkpt>
      <trkpt lat="46.44732" lon="4.47519">
        <ele>495.171</ele>
        <time>2022-09-25T11:27:12Z</time>
      </trkpt>
      <trkpt lat="46.44738" lon="4.47525">
        <ele>491.471</ele>
        <time>2022-09-25T11:27:17Z</time>
      </trkpt>
      <trkpt lat="46.44745" lon="4.47528">
        <ele>488.471</ele>
        <time>2022-09-25T11:27:22Z</time>
      </trkpt>
      <trkpt lat="46.44751" lon="4.47532">
        <ele>488.871</ele>
        <time>2022-09-25T11:27:28Z</time>
      </trkpt>
      <trkpt lat="46.44758" lon="4.47537">
        <ele>488.271</ele>
        <time>2022-09-25T11:27:34Z</time>
      </trkpt>
      <trkpt lat="46.44765" lon="4.47539">
        <ele>488.871</ele>
        <time>2022-09-25T11:27:41Z</time>
      </trkpt>
      <trkpt lat="46.44771" lon="4.4754">
        <ele>488.971</ele>
        <time>2022-09-25T11:27:47Z</time>
      </trkpt>
      <trkpt lat="46.44779" lon="4.47541">
        <ele>487.371</ele>
        <time>2022-09-25T11:27:53Z</time>
      </trkpt>
      <trkpt lat="46.44788" lon="4.47541">
        <ele>490.171</ele>
        <time>2022-09-25T11:28:02Z</time>
      </trkpt>
      <trkpt lat="46.44795" lon="4.47541">
        <ele>494.171</ele>
        <time>2022-09-25T11:28:09Z</time>
      </trkpt>
      <trkpt lat="46.44803" lon="4.47543">
        <ele>493.671</ele>
        <time>2022-09-25T11:28:18Z</time>
      </trkpt>
      <trkpt lat="46.44812" lon="4.47545">
        <ele>491.071</ele>
        <time>2022-09-25T11:28:24Z</time>
      </trkpt>
      <trkpt lat="46.44822" lon="4.47546">
        <ele>490.371</ele>
        <time>2022-09-25T11:28:31Z</time>
      </trkpt>
      <trkpt lat="46.4483" lon="4.47546">
        <ele>488.371</ele>
        <time>2022-09-25T11:28:36Z</time>
      </trkpt>
      <trkpt lat="46.44838" lon="4.47545">
        <ele>487.571</ele>
        <time>2022-09-25T11:28:42Z</time>
      </trkpt>
      <trkpt lat="46.44848" lon="4.47543">
        <ele>485.471</ele>
        <time>2022-09-25T11:28:48Z</time>
      </trkpt>
      <trkpt lat="46.44855" lon="4.47542">
        <ele>483.971</ele>
        <time>2022-09-25T11:28:53Z</time>
      </trkpt>
      <trkpt lat="46.44863" lon="4.47541">
        <ele>481.871</ele>
        <time>2022-09-25T11:29:00Z</time>
      </trkpt>
      <trkpt lat="46.4487" lon="4.47539">
        <ele>481.371</ele>
        <time>2022-09-25T11:29:06Z</time>
      </trkpt>
      <trkpt lat="46.44878" lon="4.47536">
        <ele>480.472</ele>
        <time>2022-09-25T11:29:12Z</time>
      </trkpt>
      <trkpt lat="46.44885" lon="4.47535">
        <ele>480.472</ele>
        <time>2022-09-25T11:29:18Z</time>
      </trkpt>
      <trkpt lat="46.44893" lon="4.47533">
        <ele>480.272</ele>
        <time>2022-09-25T11:29:24Z</time>
      </trkpt>
      <trkpt lat="46.449" lon="4.47531">
        <ele>479.872</ele>
        <time>2022-09-25T11:29:29Z</time>
      </trkpt>
      <trkpt lat="46.44906" lon="4.47527">
        <ele>479.272</ele>
        <time>2022-09-25T11:29:35Z</time>
      </trkpt>
      <trkpt lat="46.44913" lon="4.47523">
        <ele>479.072</ele>
        <time>2022-09-25T11:29:40Z</time>
      </trkpt>
      <trkpt lat="46.44918" lon="4.47516">
        <ele>478.672</ele>
        <time>2022-09-25T11:29:47Z</time>
      </trkpt>
      <trkpt lat="46.44924" lon="4.47509">
        <ele>479.972</ele>
        <time>2022-09-25T11:29:54Z</time>
      </trkpt>
      <trkpt lat="46.44932" lon="4.47506">
        <ele>480.672</ele>
        <time>2022-09-25T11:30:00Z</time>
      </trkpt>
      <trkpt lat="46.44939" lon="4.47502">
        <ele>481.772</ele>
        <time>2022-09-25T11:30:06Z</time>
      </trkpt>
      <trkpt lat="46.44946" lon="4.47498">
        <ele>482.372</ele>
        <time>2022-09-25T11:30:12Z</time>
      </trkpt>
      <trkpt lat="46.44952" lon="4.47494">
        <ele>481.572</ele>
        <time>2022-09-25T11:30:18Z</time>
      </trkpt>
      <trkpt lat="46.44962" lon="4.4749">
        <ele>480.572</ele>
        <time>2022-09-25T11:30:24Z</time>
      </trkpt>
      <trkpt lat="46.44969" lon="4.47486">
        <ele>479.872</ele>
        <time>2022-09-25T11:30:29Z</time>
      </trkpt>
      <trkpt lat="46.44977" lon="4.47484">
        <ele>478.472</ele>
        <time>2022-09-25T11:30:37Z</time>
      </trkpt>
      <trkpt lat="46.44984" lon="4.47479">
        <ele>478.672</ele>
        <time>2022-09-25T11:30:42Z</time>
      </trkpt>
      <trkpt lat="46.44992" lon="4.47476">
        <ele>479.272</ele>
        <time>2022-09-25T11:30:48Z</time>
      </trkpt>
      <trkpt lat="46.44999" lon="4.47472">
        <ele>480.572</ele>
        <time>2022-09-25T11:30:55Z</time>
      </trkpt>
      <trkpt lat="46.45006" lon="4.47469">
        <ele>479.272</ele>
        <time>2022-09-25T11:31:01Z</time>
      </trkpt>
      <trkpt lat="46.45012" lon="4.47468">
        <ele>478.272</ele>
        <time>2022-09-25T11:31:06Z</time>
      </trkpt>
      <trkpt lat="46.45021" lon="4.47466">
        <ele>477.172</ele>
        <time>2022-09-25T11:31:12Z</time>
      </trkpt>
      <trkpt lat="46.45027" lon="4.47461">
        <ele>478.372</ele>
        <time>2022-09-25T11:31:17Z</time>
      </trkpt>
      <trkpt lat="46.45035" lon="4.47455">
        <ele>479.872</ele>
        <time>2022-09-25T11:31:22Z</time>
      </trkpt>
      <trkpt lat="46.45042" lon="4.4745">
        <ele>480.072</ele>
        <time>2022-09-25T11:31:28Z</time>
      </trkpt>
      <trkpt lat="46.45048" lon="4.47444">
        <ele>479.272</ele>
        <time>2022-09-25T11:31:33Z</time>
      </trkpt>
      <trkpt lat="46.45054" lon="4.47437">
        <ele>477.372</ele>
        <time>2022-09-25T11:31:40Z</time>
      </trkpt>
      <trkpt lat="46.45061" lon="4.47431">
        <ele>474.872</ele>
        <time>2022-09-25T11:31:53Z</time>
      </trkpt>
      <trkpt lat="46.45067" lon="4.47428">
        <ele>476.872</ele>
        <time>2022-09-25T11:31:59Z</time>
      </trkpt>
      <trkpt lat="46.45074" lon="4.47425">
        <ele>478.072</ele>
        <time>2022-09-25T11:32:06Z</time>
      </trkpt>
      <trkpt lat="46.45081" lon="4.47423">
        <ele>478.372</ele>
        <time>2022-09-25T11:32:12Z</time>
      </trkpt>
      <trkpt lat="46.45089" lon="4.47422">
        <ele>478.572</ele>
        <time>2022-09-25T11:32:17Z</time>
      </trkpt>
      <trkpt lat="46.45096" lon="4.4742">
        <ele>478.372</ele>
        <time>2022-09-25T11:32:22Z</time>
      </trkpt>
      <trkpt lat="46.45103" lon="4.47417">
        <ele>477.872</ele>
        <time>2022-09-25T11:32:28Z</time>
      </trkpt>
      <trkpt lat="46.4511" lon="4.47415">
        <ele>478.072</ele>
        <time>2022-09-25T11:32:34Z</time>
      </trkpt>
      <trkpt lat="46.45118" lon="4.47414">
        <ele>478.072</ele>
        <time>2022-09-25T11:32:39Z</time>
      </trkpt>
      <trkpt lat="46.45124" lon="4.47413">
        <ele>478.972</ele>
        <time>2022-09-25T11:32:45Z</time>
      </trkpt>
      <trkpt lat="46.45131" lon="4.47413">
        <ele>479.472</ele>
        <time>2022-09-25T11:32:50Z</time>
      </trkpt>
      <trkpt lat="46.45138" lon="4.47414">
        <ele>479.772</ele>
        <time>2022-09-25T11:32:56Z</time>
      </trkpt>
      <trkpt lat="46.45146" lon="4.47416">
        <ele>478.772</ele>
        <time>2022-09-25T11:33:03Z</time>
      </trkpt>
      <trkpt lat="46.45154" lon="4.47418">
        <ele>478.372</ele>
        <time>2022-09-25T11:33:08Z</time>
      </trkpt>
      <trkpt lat="46.45161" lon="4.4742">
        <ele>477.772</ele>
        <time>2022-09-25T11:33:14Z</time>
      </trkpt>
      <trkpt lat="46.45168" lon="4.47422">
        <ele>477.672</ele>
        <time>2022-09-25T11:33:19Z</time>
      </trkpt>
      <trkpt lat="46.45176" lon="4.47425">
        <ele>477.472</ele>
        <time>2022-09-25T11:33:25Z</time>
      </trkpt>
      <trkpt lat="46.45183" lon="4.47427">
        <ele>476.672</ele>
        <time>2022-09-25T11:33:30Z</time>
      </trkpt>
      <trkpt lat="46.4519" lon="4.47431">
        <ele>474.772</ele>
        <time>2022-09-25T11:33:36Z</time>
      </trkpt>
      <trkpt lat="46.45197" lon="4.47433">
        <ele>474.372</ele>
        <time>2022-09-25T11:33:41Z</time>
      </trkpt>
      <trkpt lat="46.45204" lon="4.47435">
        <ele>474.272</ele>
        <time>2022-09-25T11:33:46Z</time>
      </trkpt>
      <trkpt lat="46.4521" lon="4.47438">
        <ele>473.672</ele>
        <time>2022-09-25T11:33:52Z</time>
      </trkpt>
      <trkpt lat="46.45216" lon="4.47439">
        <ele>472.972</ele>
        <time>2022-09-25T11:33:57Z</time>
      </trkpt>
      <trkpt lat="46.45223" lon="4.4744">
        <ele>473.372</ele>
        <time>2022-09-25T11:34:04Z</time>
      </trkpt>
      <trkpt lat="46.4523" lon="4.47445">
        <ele>472.072</ele>
        <time>2022-09-25T11:34:11Z</time>
      </trkpt>
      <trkpt lat="46.45237" lon="4.47449">
        <ele>470.972</ele>
        <time>2022-09-25T11:34:16Z</time>
      </trkpt>
      <trkpt lat="46.45243" lon="4.47453">
        <ele>469.772</ele>
        <time>2022-09-25T11:34:21Z</time>
      </trkpt>
      <trkpt lat="46.45249" lon="4.4746">
        <ele>469.072</ele>
        <time>2022-09-25T11:34:26Z</time>
      </trkpt>
      <trkpt lat="46.45256" lon="4.47468">
        <ele>466.472</ele>
        <time>2022-09-25T11:34:32Z</time>
      </trkpt>
      <trkpt lat="46.45261" lon="4.47477">
        <ele>464.973</ele>
        <time>2022-09-25T11:34:38Z</time>
      </trkpt>
      <trkpt lat="46.45265" lon="4.47485">
        <ele>463.273</ele>
        <time>2022-09-25T11:34:45Z</time>
      </trkpt>
      <trkpt lat="46.45268" lon="4.47496">
        <ele>462.473</ele>
        <time>2022-09-25T11:34:52Z</time>
      </trkpt>
      <trkpt lat="46.45271" lon="4.47505">
        <ele>461.673</ele>
        <time>2022-09-25T11:34:57Z</time>
      </trkpt>
      <trkpt lat="46.45278" lon="4.47522">
        <ele>460.073</ele>
        <time>2022-09-25T11:35:09Z</time>
      </trkpt>
      <trkpt lat="46.45284" lon="4.47529">
        <ele>459.273</ele>
        <time>2022-09-25T11:35:14Z</time>
      </trkpt>
      <trkpt lat="46.45292" lon="4.47534">
        <ele>456.773</ele>
        <time>2022-09-25T11:35:22Z</time>
      </trkpt>
      <trkpt lat="46.453" lon="4.47532">
        <ele>455.373</ele>
        <time>2022-09-25T11:35:28Z</time>
      </trkpt>
      <trkpt lat="46.45307" lon="4.47528">
        <ele>455.673</ele>
        <time>2022-09-25T11:35:33Z</time>
      </trkpt>
      <trkpt lat="46.4531" lon="4.47518">
        <ele>456.073</ele>
        <time>2022-09-25T11:35:52Z</time>
      </trkpt>
      <trkpt lat="46.45308" lon="4.47527">
        <ele>455.573</ele>
        <time>2022-09-25T11:36:33Z</time>
      </trkpt>
      <trkpt lat="46.45318" lon="4.47532">
        <ele>456.073</ele>
        <time>2022-09-25T11:37:16Z</time>
      </trkpt>
      <trkpt lat="46.45324" lon="4.47538">
        <ele>454.373</ele>
        <time>2022-09-25T11:37:22Z</time>
      </trkpt>
      <trkpt lat="46.45331" lon="4.47542">
        <ele>451.873</ele>
        <time>2022-09-25T11:37:28Z</time>
      </trkpt>
      <trkpt lat="46.45341" lon="4.4754">
        <ele>449.873</ele>
        <time>2022-09-25T11:37:37Z</time>
      </trkpt>
      <trkpt lat="46.45349" lon="4.47539">
        <ele>448.873</ele>
        <time>2022-09-25T11:37:44Z</time>
      </trkpt>
      <trkpt lat="46.45356" lon="4.47537">
        <ele>447.873</ele>
        <time>2022-09-25T11:37:51Z</time>
      </trkpt>
      <trkpt lat="46.45364" lon="4.47537">
        <ele>446.273</ele>
        <time>2022-09-25T11:37:58Z</time>
      </trkpt>
      <trkpt lat="46.45373" lon="4.47537">
        <ele>444.473</ele>
        <time>2022-09-25T11:38:04Z</time>
      </trkpt>
      <trkpt lat="46.4538" lon="4.47535">
        <ele>444.573</ele>
        <time>2022-09-25T11:38:10Z</time>
      </trkpt>
      <trkpt lat="46.45389" lon="4.47534">
        <ele>444.073</ele>
        <time>2022-09-25T11:38:16Z</time>
      </trkpt>
      <trkpt lat="46.45396" lon="4.47533">
        <ele>443.473</ele>
        <time>2022-09-25T11:38:22Z</time>
      </trkpt>
      <trkpt lat="46.45404" lon="4.47532">
        <ele>442.273</ele>
        <time>2022-09-25T11:38:29Z</time>
      </trkpt>
      <trkpt lat="46.45411" lon="4.47532">
        <ele>442.073</ele>
        <time>2022-09-25T11:38:34Z</time>
      </trkpt>
      <trkpt lat="46.45418" lon="4.47533">
        <ele>441.273</ele>
        <time>2022-09-25T11:38:40Z</time>
      </trkpt>
      <trkpt lat="46.45425" lon="4.47534">
        <ele>439.373</ele>
        <time>2022-09-25T11:38:46Z</time>
      </trkpt>
      <trkpt lat="46.45433" lon="4.47535">
        <ele>438.373</ele>
        <time>2022-09-25T11:38:52Z</time>
      </trkpt>
      <trkpt lat="46.4544" lon="4.4754">
        <ele>436.073</ele>
        <time>2022-09-25T11:39:00Z</time>
      </trkpt>
      <trkpt lat="46.45448" lon="4.47544">
        <ele>434.173</ele>
        <time>2022-09-25T11:39:05Z</time>
      </trkpt>
      <trkpt lat="46.45455" lon="4.47548">
        <ele>433.273</ele>
        <time>2022-09-25T11:39:11Z</time>
      </trkpt>
      <trkpt lat="46.45459" lon="4.47556">
        <ele>432.173</ele>
        <time>2022-09-25T11:39:18Z</time>
      </trkpt>
      <trkpt lat="46.45465" lon="4.47562">
        <ele>433.973</ele>
        <time>2022-09-25T11:39:25Z</time>
      </trkpt>
      <trkpt lat="46.45471" lon="4.47567">
        <ele>434.673</ele>
        <time>2022-09-25T11:39:30Z</time>
      </trkpt>
      <trkpt lat="46.45477" lon="4.47572">
        <ele>434.873</ele>
        <time>2022-09-25T11:39:36Z</time>
      </trkpt>
      <trkpt lat="46.45484" lon="4.47577">
        <ele>435.273</ele>
        <time>2022-09-25T11:39:41Z</time>
      </trkpt>
      <trkpt lat="46.4549" lon="4.47581">
        <ele>435.273</ele>
        <time>2022-09-25T11:39:46Z</time>
      </trkpt>
      <trkpt lat="46.45496" lon="4.47589">
        <ele>434.573</ele>
        <time>2022-09-25T11:39:52Z</time>
      </trkpt>
      <trkpt lat="46.45501" lon="4.47595">
        <ele>432.673</ele>
        <time>2022-09-25T11:39:58Z</time>
      </trkpt>
      <trkpt lat="46.45508" lon="4.47601">
        <ele>430.673</ele>
        <time>2022-09-25T11:40:04Z</time>
      </trkpt>
      <trkpt lat="46.45512" lon="4.47608">
        <ele>429.773</ele>
        <time>2022-09-25T11:40:09Z</time>
      </trkpt>
      <trkpt lat="46.45515" lon="4.47617">
        <ele>429.073</ele>
        <time>2022-09-25T11:40:14Z</time>
      </trkpt>
      <trkpt lat="46.45519" lon="4.47627">
        <ele>427.573</ele>
        <time>2022-09-25T11:40:20Z</time>
      </trkpt>
      <trkpt lat="46.45524" lon="4.47636">
        <ele>424.673</ele>
        <time>2022-09-25T11:40:26Z</time>
      </trkpt>
      <trkpt lat="46.45529" lon="4.47643">
        <ele>425.073</ele>
        <time>2022-09-25T11:40:32Z</time>
      </trkpt>
      <trkpt lat="46.45534" lon="4.47649">
        <ele>426.773</ele>
        <time>2022-09-25T11:40:37Z</time>
      </trkpt>
      <trkpt lat="46.4554" lon="4.47654">
        <ele>427.773</ele>
        <time>2022-09-25T11:40:42Z</time>
      </trkpt>
      <trkpt lat="46.45546" lon="4.47662">
        <ele>428.073</ele>
        <time>2022-09-25T11:40:49Z</time>
      </trkpt>
      <trkpt lat="46.45553" lon="4.4767">
        <ele>428.273</ele>
        <time>2022-09-25T11:40:54Z</time>
      </trkpt>
      <trkpt lat="46.45558" lon="4.47677">
        <ele>427.973</ele>
        <time>2022-09-25T11:41:00Z</time>
      </trkpt>
      <trkpt lat="46.45564" lon="4.47684">
        <ele>428.174</ele>
        <time>2022-09-25T11:41:05Z</time>
      </trkpt>
      <trkpt lat="46.45569" lon="4.47692">
        <ele>428.174</ele>
        <time>2022-09-25T11:41:11Z</time>
      </trkpt>
      <trkpt lat="46.45574" lon="4.47699">
        <ele>428.474</ele>
        <time>2022-09-25T11:41:16Z</time>
      </trkpt>
      <trkpt lat="46.45579" lon="4.47708">
        <ele>428.474</ele>
        <time>2022-09-25T11:41:23Z</time>
      </trkpt>
      <trkpt lat="46.45584" lon="4.47715">
        <ele>429.274</ele>
        <time>2022-09-25T11:41:29Z</time>
      </trkpt>
      <trkpt lat="46.45589" lon="4.47722">
        <ele>428.474</ele>
        <time>2022-09-25T11:41:35Z</time>
      </trkpt>
      <trkpt lat="46.45594" lon="4.47729">
        <ele>427.774</ele>
        <time>2022-09-25T11:41:41Z</time>
      </trkpt>
      <trkpt lat="46.45597" lon="4.47738">
        <ele>427.774</ele>
        <time>2022-09-25T11:41:47Z</time>
      </trkpt>
      <trkpt lat="46.45603" lon="4.47747">
        <ele>427.774</ele>
        <time>2022-09-25T11:41:53Z</time>
      </trkpt>
      <trkpt lat="46.45608" lon="4.47753">
        <ele>428.174</ele>
        <time>2022-09-25T11:41:58Z</time>
      </trkpt>
      <trkpt lat="46.45621" lon="4.4776">
        <ele>428.674</ele>
        <time>2022-09-25T11:42:10Z</time>
      </trkpt>
      <trkpt lat="46.45628" lon="4.47761">
        <ele>428.474</ele>
        <time>2022-09-25T11:42:16Z</time>
      </trkpt>
      <trkpt lat="46.45635" lon="4.4776">
        <ele>428.074</ele>
        <time>2022-09-25T11:42:21Z</time>
      </trkpt>
      <trkpt lat="46.45643" lon="4.47758">
        <ele>427.374</ele>
        <time>2022-09-25T11:42:27Z</time>
      </trkpt>
      <trkpt lat="46.4565" lon="4.47755">
        <ele>426.374</ele>
        <time>2022-09-25T11:42:32Z</time>
      </trkpt>
      <trkpt lat="46.45658" lon="4.47754">
        <ele>425.474</ele>
        <time>2022-09-25T11:42:38Z</time>
      </trkpt>
      <trkpt lat="46.45664" lon="4.47752">
        <ele>424.574</ele>
        <time>2022-09-25T11:42:44Z</time>
      </trkpt>
      <trkpt lat="46.45674" lon="4.47752">
        <ele>423.374</ele>
        <time>2022-09-25T11:42:58Z</time>
      </trkpt>
      <trkpt lat="46.45681" lon="4.47755">
        <ele>422.074</ele>
        <time>2022-09-25T11:43:04Z</time>
      </trkpt>
      <trkpt lat="46.45689" lon="4.47757">
        <ele>420.874</ele>
        <time>2022-09-25T11:43:09Z</time>
      </trkpt>
      <trkpt lat="46.45696" lon="4.47758">
        <ele>420.774</ele>
        <time>2022-09-25T11:43:14Z</time>
      </trkpt>
      <trkpt lat="46.45704" lon="4.4776">
        <ele>420.874</ele>
        <time>2022-09-25T11:43:20Z</time>
      </trkpt>
      <trkpt lat="46.45711" lon="4.47763">
        <ele>421.474</ele>
        <time>2022-09-25T11:43:25Z</time>
      </trkpt>
      <trkpt lat="46.45718" lon="4.47766">
        <ele>420.974</ele>
        <time>2022-09-25T11:43:31Z</time>
      </trkpt>
      <trkpt lat="46.45724" lon="4.47768">
        <ele>420.274</ele>
        <time>2022-09-25T11:43:36Z</time>
      </trkpt>
      <trkpt lat="46.4573" lon="4.47773">
        <ele>418.974</ele>
        <time>2022-09-25T11:43:41Z</time>
      </trkpt>
      <trkpt lat="46.45737" lon="4.47776">
        <ele>417.974</ele>
        <time>2022-09-25T11:43:46Z</time>
      </trkpt>
      <trkpt lat="46.45744" lon="4.4778">
        <ele>417.974</ele>
        <time>2022-09-25T11:43:52Z</time>
      </trkpt>
      <trkpt lat="46.4575" lon="4.47786">
        <ele>418.474</ele>
        <time>2022-09-25T11:43:59Z</time>
      </trkpt>
      <trkpt lat="46.45756" lon="4.47792">
        <ele>418.674</ele>
        <time>2022-09-25T11:44:05Z</time>
      </trkpt>
      <trkpt lat="46.45762" lon="4.47797">
        <ele>418.574</ele>
        <time>2022-09-25T11:44:11Z</time>
      </trkpt>
      <trkpt lat="46.45769" lon="4.47802">
        <ele>418.974</ele>
        <time>2022-09-25T11:44:18Z</time>
      </trkpt>
      <trkpt lat="46.45776" lon="4.47805">
        <ele>419.474</ele>
        <time>2022-09-25T11:44:24Z</time>
      </trkpt>
      <trkpt lat="46.45783" lon="4.47809">
        <ele>419.774</ele>
        <time>2022-09-25T11:44:29Z</time>
      </trkpt>
      <trkpt lat="46.4579" lon="4.47811">
        <ele>419.774</ele>
        <time>2022-09-25T11:44:36Z</time>
      </trkpt>
      <trkpt lat="46.45797" lon="4.47814">
        <ele>420.474</ele>
        <time>2022-09-25T11:44:43Z</time>
      </trkpt>
      <trkpt lat="46.45804" lon="4.47818">
        <ele>420.574</ele>
        <time>2022-09-25T11:44:49Z</time>
      </trkpt>
      <trkpt lat="46.45811" lon="4.47821">
        <ele>419.174</ele>
        <time>2022-09-25T11:44:55Z</time>
      </trkpt>
      <trkpt lat="46.4582" lon="4.47825">
        <ele>418.674</ele>
        <time>2022-09-25T11:45:04Z</time>
      </trkpt>
      <trkpt lat="46.45827" lon="4.47826">
        <ele>418.374</ele>
        <time>2022-09-25T11:45:10Z</time>
      </trkpt>
      <trkpt lat="46.45834" lon="4.47827">
        <ele>419.274</ele>
        <time>2022-09-25T11:45:16Z</time>
      </trkpt>
      <trkpt lat="46.45842" lon="4.47827">
        <ele>419.774</ele>
        <time>2022-09-25T11:45:22Z</time>
      </trkpt>
      <trkpt lat="46.4585" lon="4.47826">
        <ele>419.774</ele>
        <time>2022-09-25T11:45:28Z</time>
      </trkpt>
      <trkpt lat="46.45857" lon="4.47825">
        <ele>419.074</ele>
        <time>2022-09-25T11:45:33Z</time>
      </trkpt>
      <trkpt lat="46.45864" lon="4.47825">
        <ele>419.374</ele>
        <time>2022-09-25T11:45:40Z</time>
      </trkpt>
      <trkpt lat="46.45872" lon="4.47821">
        <ele>421.074</ele>
        <time>2022-09-25T11:46:40Z</time>
      </trkpt>
      <trkpt lat="46.4588" lon="4.47818">
        <ele>421.574</ele>
        <time>2022-09-25T11:46:45Z</time>
      </trkpt>
      <trkpt lat="46.45887" lon="4.47813">
        <ele>420.774</ele>
        <time>2022-09-25T11:46:51Z</time>
      </trkpt>
      <trkpt lat="46.45894" lon="4.47809">
        <ele>420.275</ele>
        <time>2022-09-25T11:46:56Z</time>
      </trkpt>
      <trkpt lat="46.459" lon="4.47805">
        <ele>419.975</ele>
        <time>2022-09-25T11:47:03Z</time>
      </trkpt>
      <trkpt lat="46.45908" lon="4.478">
        <ele>419.075</ele>
        <time>2022-09-25T11:47:08Z</time>
      </trkpt>
      <trkpt lat="46.45914" lon="4.47797">
        <ele>418.775</ele>
        <time>2022-09-25T11:47:14Z</time>
      </trkpt>
      <trkpt lat="46.45922" lon="4.47792">
        <ele>418.675</ele>
        <time>2022-09-25T11:47:20Z</time>
      </trkpt>
      <trkpt lat="46.4593" lon="4.47789">
        <ele>418.575</ele>
        <time>2022-09-25T11:47:25Z</time>
      </trkpt>
      <trkpt lat="46.45938" lon="4.47786">
        <ele>416.675</ele>
        <time>2022-09-25T11:47:30Z</time>
      </trkpt>
      <trkpt lat="46.45944" lon="4.47783">
        <ele>413.275</ele>
        <time>2022-09-25T11:47:36Z</time>
      </trkpt>
      <trkpt lat="46.45951" lon="4.47781">
        <ele>412.175</ele>
        <time>2022-09-25T11:47:41Z</time>
      </trkpt>
      <trkpt lat="46.45958" lon="4.47777">
        <ele>412.075</ele>
        <time>2022-09-25T11:47:47Z</time>
      </trkpt>
      <trkpt lat="46.45965" lon="4.47774">
        <ele>413.175</ele>
        <time>2022-09-25T11:47:53Z</time>
      </trkpt>
      <trkpt lat="46.45972" lon="4.4777">
        <ele>414.175</ele>
        <time>2022-09-25T11:47:59Z</time>
      </trkpt>
      <trkpt lat="46.45979" lon="4.47767">
        <ele>415.875</ele>
        <time>2022-09-25T11:48:05Z</time>
      </trkpt>
      <trkpt lat="46.45984" lon="4.47762">
        <ele>417.075</ele>
        <time>2022-09-25T11:48:10Z</time>
      </trkpt>
      <trkpt lat="46.45992" lon="4.47758">
        <ele>418.175</ele>
        <time>2022-09-25T11:48:16Z</time>
      </trkpt>
      <trkpt lat="46.46" lon="4.47754">
        <ele>417.875</ele>
        <time>2022-09-25T11:48:21Z</time>
      </trkpt>
      <trkpt lat="46.46006" lon="4.47749">
        <ele>417.275</ele>
        <time>2022-09-25T11:48:26Z</time>
      </trkpt>
      <trkpt lat="46.46015" lon="4.47747">
        <ele>417.075</ele>
        <time>2022-09-25T11:48:32Z</time>
      </trkpt>
      <trkpt lat="46.46021" lon="4.47744">
        <ele>415.575</ele>
        <time>2022-09-25T11:48:37Z</time>
      </trkpt>
      <trkpt lat="46.46028" lon="4.47741">
        <ele>415.275</ele>
        <time>2022-09-25T11:48:42Z</time>
      </trkpt>
      <trkpt lat="46.46034" lon="4.47738">
        <ele>415.975</ele>
        <time>2022-09-25T11:48:47Z</time>
      </trkpt>
      <trkpt lat="46.46041" lon="4.47734">
        <ele>416.475</ele>
        <time>2022-09-25T11:48:52Z</time>
      </trkpt>
      <trkpt lat="46.46048" lon="4.4773">
        <ele>416.275</ele>
        <time>2022-09-25T11:48:57Z</time>
      </trkpt>
      <trkpt lat="46.46056" lon="4.47728">
        <ele>416.675</ele>
        <time>2022-09-25T11:49:02Z</time>
      </trkpt>
      <trkpt lat="46.46063" lon="4.47724">
        <ele>417.375</ele>
        <time>2022-09-25T11:49:07Z</time>
      </trkpt>
      <trkpt lat="46.4607" lon="4.47719">
        <ele>417.275</ele>
        <time>2022-09-25T11:49:12Z</time>
      </trkpt>
      <trkpt lat="46.46077" lon="4.4772">
        <ele>416.975</ele>
        <time>2022-09-25T11:49:18Z</time>
      </trkpt>
      <trkpt lat="46.46085" lon="4.47718">
        <ele>415.175</ele>
        <time>2022-09-25T11:49:24Z</time>
      </trkpt>
      <trkpt lat="46.46091" lon="4.47715">
        <ele>415.675</ele>
        <time>2022-09-25T11:49:30Z</time>
      </trkpt>
      <trkpt lat="46.46099" lon="4.47714">
        <ele>414.875</ele>
        <time>2022-09-25T11:49:36Z</time>
      </trkpt>
      <trkpt lat="46.46105" lon="4.4771">
        <ele>413.975</ele>
        <time>2022-09-25T11:49:41Z</time>
      </trkpt>
      <trkpt lat="46.46112" lon="4.47708">
        <ele>413.875</ele>
        <time>2022-09-25T11:49:46Z</time>
      </trkpt>
      <trkpt lat="46.46121" lon="4.47707">
        <ele>412.575</ele>
        <time>2022-09-25T11:49:52Z</time>
      </trkpt>
      <trkpt lat="46.46128" lon="4.47707">
        <ele>413.475</ele>
        <time>2022-09-25T11:49:57Z</time>
      </trkpt>
      <trkpt lat="46.46134" lon="4.47703">
        <ele>414.375</ele>
        <time>2022-09-25T11:50:03Z</time>
      </trkpt>
      <trkpt lat="46.46141" lon="4.47703">
        <ele>415.475</ele>
        <time>2022-09-25T11:50:08Z</time>
      </trkpt>
      <trkpt lat="46.46149" lon="4.47702">
        <ele>415.375</ele>
        <time>2022-09-25T11:50:13Z</time>
      </trkpt>
      <trkpt lat="46.46155" lon="4.47702">
        <ele>415.675</ele>
        <time>2022-09-25T11:50:18Z</time>
      </trkpt>
      <trkpt lat="46.46165" lon="4.47704">
        <ele>416.975</ele>
        <time>2022-09-25T11:50:24Z</time>
      </trkpt>
      <trkpt lat="46.46171" lon="4.47704">
        <ele>417.875</ele>
        <time>2022-09-25T11:50:30Z</time>
      </trkpt>
      <trkpt lat="46.46179" lon="4.47703">
        <ele>418.475</ele>
        <time>2022-09-25T11:50:36Z</time>
      </trkpt>
      <trkpt lat="46.46187" lon="4.47702">
        <ele>418.375</ele>
        <time>2022-09-25T11:50:41Z</time>
      </trkpt>
      <trkpt lat="46.46193" lon="4.47701">
        <ele>417.875</ele>
        <time>2022-09-25T11:50:46Z</time>
      </trkpt>
      <trkpt lat="46.46202" lon="4.47701">
        <ele>419.075</ele>
        <time>2022-09-25T11:55:20Z</time>
      </trkpt>
      <trkpt lat="46.46209" lon="4.47702">
        <ele>419.175</ele>
        <time>2022-09-25T11:55:26Z</time>
      </trkpt>
      <trkpt lat="46.46217" lon="4.47702">
        <ele>418.975</ele>
        <time>2022-09-25T11:55:32Z</time>
      </trkpt>
      <trkpt lat="46.46225" lon="4.47702">
        <ele>418.475</ele>
        <time>2022-09-25T11:55:37Z</time>
      </trkpt>
      <trkpt lat="46.46233" lon="4.47703">
        <ele>417.575</ele>
        <time>2022-09-25T11:55:42Z</time>
      </trkpt>
      <trkpt lat="46.4624" lon="4.47702">
        <ele>415.875</ele>
        <time>2022-09-25T11:55:48Z</time>
      </trkpt>
      <trkpt lat="46.46248" lon="4.477">
        <ele>415.375</ele>
        <time>2022-09-25T11:55:54Z</time>
      </trkpt>
      <trkpt lat="46.46257" lon="4.477">
        <ele>414.975</ele>
        <time>2022-09-25T11:56:00Z</time>
      </trkpt>
      <trkpt lat="46.46264" lon="4.47698">
        <ele>416.975</ele>
        <time>2022-09-25T11:56:06Z</time>
      </trkpt>
      <trkpt lat="46.4627" lon="4.47694">
        <ele>417.175</ele>
        <time>2022-09-25T11:56:12Z</time>
      </trkpt>
      <trkpt lat="46.46277" lon="4.47689">
        <ele>418.075</ele>
        <time>2022-09-25T11:56:20Z</time>
      </trkpt>
      <trkpt lat="46.46283" lon="4.47686">
        <ele>416.875</ele>
        <time>2022-09-25T11:56:26Z</time>
      </trkpt>
      <trkpt lat="46.46289" lon="4.4768">
        <ele>416.976</ele>
        <time>2022-09-25T11:56:33Z</time>
      </trkpt>
      <trkpt lat="46.46295" lon="4.47674">
        <ele>417.876</ele>
        <time>2022-09-25T11:56:40Z</time>
      </trkpt>
      <trkpt lat="46.46301" lon="4.47669">
        <ele>416.976</ele>
        <time>2022-09-25T11:56:46Z</time>
      </trkpt>
      <trkpt lat="46.46307" lon="4.47664">
        <ele>416.576</ele>
        <time>2022-09-25T11:56:53Z</time>
      </trkpt>
      <trkpt lat="46.46315" lon="4.47663">
        <ele>416.076</ele>
        <time>2022-09-25T11:57:00Z</time>
      </trkpt>
      <trkpt lat="46.46322" lon="4.47662">
        <ele>415.576</ele>
        <time>2022-09-25T11:57:05Z</time>
      </trkpt>
      <trkpt lat="46.4633" lon="4.4766">
        <ele>416.076</ele>
        <time>2022-09-25T11:57:10Z</time>
      </trkpt>
      <trkpt lat="46.46338" lon="4.47658">
        <ele>415.976</ele>
        <time>2022-09-25T11:57:16Z</time>
      </trkpt>
      <trkpt lat="46.46346" lon="4.47656">
        <ele>415.776</ele>
        <time>2022-09-25T11:57:21Z</time>
      </trkpt>
      <trkpt lat="46.46352" lon="4.47653">
        <ele>416.176</ele>
        <time>2022-09-25T11:57:26Z</time>
      </trkpt>
      <trkpt lat="46.46359" lon="4.47651">
        <ele>416.376</ele>
        <time>2022-09-25T11:57:32Z</time>
      </trkpt>
      <trkpt lat="46.46365" lon="4.47646">
        <ele>416.276</ele>
        <time>2022-09-25T11:57:37Z</time>
      </trkpt>
      <trkpt lat="46.46372" lon="4.47642">
        <ele>416.476</ele>
        <time>2022-09-25T11:57:43Z</time>
      </trkpt>
      <trkpt lat="46.46378" lon="4.47639">
        <ele>416.876</ele>
        <time>2022-09-25T11:57:48Z</time>
      </trkpt>
      <trkpt lat="46.46384" lon="4.47635">
        <ele>417.276</ele>
        <time>2022-09-25T11:57:53Z</time>
      </trkpt>
      <trkpt lat="46.46391" lon="4.4763">
        <ele>416.676</ele>
        <time>2022-09-25T11:57:58Z</time>
      </trkpt>
      <trkpt lat="46.46397" lon="4.47627">
        <ele>414.976</ele>
        <time>2022-09-25T11:58:04Z</time>
      </trkpt>
      <trkpt lat="46.46404" lon="4.47624">
        <ele>413.276</ele>
        <time>2022-09-25T11:58:09Z</time>
      </trkpt>
      <trkpt lat="46.46411" lon="4.47621">
        <ele>412.076</ele>
        <time>2022-09-25T11:58:14Z</time>
      </trkpt>
      <trkpt lat="46.4642" lon="4.47618">
        <ele>412.176</ele>
        <time>2022-09-25T11:58:20Z</time>
      </trkpt>
      <trkpt lat="46.46427" lon="4.47615">
        <ele>412.776</ele>
        <time>2022-09-25T11:58:25Z</time>
      </trkpt>
      <trkpt lat="46.46434" lon="4.47613">
        <ele>413.976</ele>
        <time>2022-09-25T11:58:31Z</time>
      </trkpt>
      <trkpt lat="46.4644" lon="4.4761">
        <ele>415.176</ele>
        <time>2022-09-25T11:58:37Z</time>
      </trkpt>
      <trkpt lat="46.46447" lon="4.47605">
        <ele>416.876</ele>
        <time>2022-09-25T11:58:43Z</time>
      </trkpt>
      <trkpt lat="46.46453" lon="4.476">
        <ele>417.876</ele>
        <time>2022-09-25T11:58:48Z</time>
      </trkpt>
      <trkpt lat="46.4646" lon="4.47596">
        <ele>418.676</ele>
        <time>2022-09-25T11:58:54Z</time>
      </trkpt>
      <trkpt lat="46.46466" lon="4.47589">
        <ele>417.376</ele>
        <time>2022-09-25T11:59:00Z</time>
      </trkpt>
      <trkpt lat="46.46472" lon="4.47585">
        <ele>416.276</ele>
        <time>2022-09-25T11:59:05Z</time>
      </trkpt>
      <trkpt lat="46.46479" lon="4.47581">
        <ele>412.976</ele>
        <time>2022-09-25T11:59:11Z</time>
      </trkpt>
      <trkpt lat="46.46485" lon="4.47577">
        <ele>409.776</ele>
        <time>2022-09-25T11:59:17Z</time>
      </trkpt>
      <trkpt lat="46.46493" lon="4.47576">
        <ele>407.776</ele>
        <time>2022-09-25T11:59:22Z</time>
      </trkpt>
      <trkpt lat="46.465" lon="4.47575">
        <ele>408.176</ele>
        <time>2022-09-25T11:59:27Z</time>
      </trkpt>
      <trkpt lat="46.46507" lon="4.47569">
        <ele>410.276</ele>
        <time>2022-09-25T11:59:32Z</time>
      </trkpt>
      <trkpt lat="46.46513" lon="4.47563">
        <ele>410.276</ele>
        <time>2022-09-25T11:59:37Z</time>
      </trkpt>
      <trkpt lat="46.4652" lon="4.47556">
        <ele>409.376</ele>
        <time>2022-09-25T11:59:42Z</time>
      </trkpt>
      <trkpt lat="46.46524" lon="4.47545">
        <ele>409.076</ele>
        <time>2022-09-25T11:59:47Z</time>
      </trkpt>
      <trkpt lat="46.46529" lon="4.47536">
        <ele>407.776</ele>
        <time>2022-09-25T11:59:55Z</time>
      </trkpt>
      <trkpt lat="46.46534" lon="4.47527">
        <ele>407.176</ele>
        <time>2022-09-25T12:00:00Z</time>
      </trkpt>
      <trkpt lat="46.46537" lon="4.47517">
        <ele>405.776</ele>
        <time>2022-09-25T12:00:07Z</time>
      </trkpt>
      <trkpt lat="46.46541" lon="4.47507">
        <ele>405.476</ele>
        <time>2022-09-25T12:00:12Z</time>
      </trkpt>
      <trkpt lat="46.46545" lon="4.47498">
        <ele>402.876</ele>
        <time>2022-09-25T12:00:19Z</time>
      </trkpt>
      <trkpt lat="46.4655" lon="4.47489">
        <ele>401.276</ele>
        <time>2022-09-25T12:00:24Z</time>
      </trkpt>
      <trkpt lat="46.46556" lon="4.47481">
        <ele>399.976</ele>
        <time>2022-09-25T12:00:31Z</time>
      </trkpt>
      <trkpt lat="46.46562" lon="4.47473">
        <ele>400.676</ele>
        <time>2022-09-25T12:00:36Z</time>
      </trkpt>
      <trkpt lat="46.46567" lon="4.47466">
        <ele>400.976</ele>
        <time>2022-09-25T12:00:41Z</time>
      </trkpt>
      <trkpt lat="46.46571" lon="4.47459">
        <ele>401.276</ele>
        <time>2022-09-25T12:00:46Z</time>
      </trkpt>
      <trkpt lat="46.46577" lon="4.47449">
        <ele>402.476</ele>
        <time>2022-09-25T12:00:52Z</time>
      </trkpt>
      <trkpt lat="46.46581" lon="4.47439">
        <ele>402.576</ele>
        <time>2022-09-25T12:00:59Z</time>
      </trkpt>
      <trkpt lat="46.46587" lon="4.4743">
        <ele>402.176</ele>
        <time>2022-09-25T12:01:04Z</time>
      </trkpt>
      <trkpt lat="46.46591" lon="4.47422">
        <ele>401.676</ele>
        <time>2022-09-25T12:01:10Z</time>
      </trkpt>
      <trkpt lat="46.46596" lon="4.47412">
        <ele>401.876</ele>
        <time>2022-09-25T12:01:16Z</time>
      </trkpt>
      <trkpt lat="46.46601" lon="4.47403">
        <ele>401.376</ele>
        <time>2022-09-25T12:01:21Z</time>
      </trkpt>
      <trkpt lat="46.46605" lon="4.47392">
        <ele>400.976</ele>
        <time>2022-09-25T12:01:28Z</time>
      </trkpt>
      <trkpt lat="46.46609" lon="4.47382">
        <ele>401.176</ele>
        <time>2022-09-25T12:01:33Z</time>
      </trkpt>
      <trkpt lat="46.46613" lon="4.47372">
        <ele>400.876</ele>
        <time>2022-09-25T12:01:38Z</time>
      </trkpt>
      <trkpt lat="46.46617" lon="4.47364">
        <ele>400.076</ele>
        <time>2022-09-25T12:01:44Z</time>
      </trkpt>
      <trkpt lat="46.4662" lon="4.47355">
        <ele>399.076</ele>
        <time>2022-09-25T12:01:49Z</time>
      </trkpt>
      <trkpt lat="46.46624" lon="4.47346">
        <ele>398.476</ele>
        <time>2022-09-25T12:01:54Z</time>
      </trkpt>
      <trkpt lat="46.46628" lon="4.47337">
        <ele>397.476</ele>
        <time>2022-09-25T12:02:00Z</time>
      </trkpt>
      <trkpt lat="46.46633" lon="4.47328">
        <ele>397.076</ele>
        <time>2022-09-25T12:02:05Z</time>
      </trkpt>
      <trkpt lat="46.46638" lon="4.47318">
        <ele>397.076</ele>
        <time>2022-09-25T12:02:12Z</time>
      </trkpt>
      <trkpt lat="46.46642" lon="4.47309">
        <ele>397.476</ele>
        <time>2022-09-25T12:02:17Z</time>
      </trkpt>
      <trkpt lat="46.46647" lon="4.47302">
        <ele>397.576</ele>
        <time>2022-09-25T12:02:23Z</time>
      </trkpt>
      <trkpt lat="46.46651" lon="4.47293">
        <ele>397.676</ele>
        <time>2022-09-25T12:02:28Z</time>
      </trkpt>
      <trkpt lat="46.46656" lon="4.47285">
        <ele>397.476</ele>
        <time>2022-09-25T12:02:33Z</time>
      </trkpt>
      <trkpt lat="46.46659" lon="4.47277">
        <ele>397.576</ele>
        <time>2022-09-25T12:02:39Z</time>
      </trkpt>
      <trkpt lat="46.46664" lon="4.47268">
        <ele>397.076</ele>
        <time>2022-09-25T12:02:44Z</time>
      </trkpt>
      <trkpt lat="46.46668" lon="4.47259">
        <ele>395.376</ele>
        <time>2022-09-25T12:02:51Z</time>
      </trkpt>
      <trkpt lat="46.46671" lon="4.4725">
        <ele>394.576</ele>
        <time>2022-09-25T12:02:56Z</time>
      </trkpt>
      <trkpt lat="46.46676" lon="4.47242">
        <ele>392.576</ele>
        <time>2022-09-25T12:03:02Z</time>
      </trkpt>
      <trkpt lat="46.4668" lon="4.47232">
        <ele>392.476</ele>
        <time>2022-09-25T12:03:07Z</time>
      </trkpt>
      <trkpt lat="46.46685" lon="4.47223">
        <ele>391.776</ele>
        <time>2022-09-25T12:03:14Z</time>
      </trkpt>
      <trkpt lat="46.46691" lon="4.47214">
        <ele>391.276</ele>
        <time>2022-09-25T12:03:20Z</time>
      </trkpt>
      <trkpt lat="46.46697" lon="4.47208">
        <ele>391.576</ele>
        <time>2022-09-25T12:03:26Z</time>
      </trkpt>
      <trkpt lat="46.46704" lon="4.47202">
        <ele>392.076</ele>
        <time>2022-09-25T12:03:32Z</time>
      </trkpt>
      <trkpt lat="46.46709" lon="4.47197">
        <ele>392.476</ele>
        <time>2022-09-25T12:03:37Z</time>
      </trkpt>
      <trkpt lat="46.46716" lon="4.47192">
        <ele>392.376</ele>
        <time>2022-09-25T12:03:43Z</time>
      </trkpt>
      <trkpt lat="46.46722" lon="4.47186">
        <ele>392.476</ele>
        <time>2022-09-25T12:03:48Z</time>
      </trkpt>
      <trkpt lat="46.46728" lon="4.4718">
        <ele>392.476</ele>
        <time>2022-09-25T12:03:53Z</time>
      </trkpt>
      <trkpt lat="46.46734" lon="4.47175">
        <ele>392.376</ele>
        <time>2022-09-25T12:03:58Z</time>
      </trkpt>
      <trkpt lat="46.46741" lon="4.47165">
        <ele>392.776</ele>
        <time>2022-09-25T12:04:04Z</time>
      </trkpt>
      <trkpt lat="46.46747" lon="4.47159">
        <ele>391.676</ele>
        <time>2022-09-25T12:04:10Z</time>
      </trkpt>
      <trkpt lat="46.46753" lon="4.4715">
        <ele>391.976</ele>
        <time>2022-09-25T12:04:16Z</time>
      </trkpt>
      <trkpt lat="46.46758" lon="4.47142">
        <ele>391.476</ele>
        <time>2022-09-25T12:04:22Z</time>
      </trkpt>
      <trkpt lat="46.46763" lon="4.47136">
        <ele>390.976</ele>
        <time>2022-09-25T12:04:27Z</time>
      </trkpt>
      <trkpt lat="46.46769" lon="4.47127">
        <ele>391.176</ele>
        <time>2022-09-25T12:04:32Z</time>
      </trkpt>
      <trkpt lat="46.46774" lon="4.4712">
        <ele>391.376</ele>
        <time>2022-09-25T12:04:37Z</time>
      </trkpt>
      <trkpt lat="46.46779" lon="4.47113">
        <ele>391.076</ele>
        <time>2022-09-25T12:04:43Z</time>
      </trkpt>
      <trkpt lat="46.46784" lon="4.47105">
        <ele>391.076</ele>
        <time>2022-09-25T12:04:48Z</time>
      </trkpt>
      <trkpt lat="46.46788" lon="4.47097">
        <ele>390.076</ele>
        <time>2022-09-25T12:04:53Z</time>
      </trkpt>
      <trkpt lat="46.46793" lon="4.47091">
        <ele>389.876</ele>
        <time>2022-09-25T12:04:58Z</time>
      </trkpt>
      <trkpt lat="46.468" lon="4.47081">
        <ele>390.776</ele>
        <time>2022-09-25T12:05:04Z</time>
      </trkpt>
      <trkpt lat="46.46806" lon="4.47075">
        <ele>390.776</ele>
        <time>2022-09-25T12:05:10Z</time>
      </trkpt>
      <trkpt lat="46.46812" lon="4.47069">
        <ele>390.876</ele>
        <time>2022-09-25T12:05:16Z</time>
      </trkpt>
      <trkpt lat="46.46818" lon="4.47061">
        <ele>390.276</ele>
        <time>2022-09-25T12:05:21Z</time>
      </trkpt>
      <trkpt lat="46.46824" lon="4.47056">
        <ele>389.977</ele>
        <time>2022-09-25T12:05:27Z</time>
      </trkpt>
      <trkpt lat="46.4683" lon="4.47051">
        <ele>389.877</ele>
        <time>2022-09-25T12:05:32Z</time>
      </trkpt>
      <trkpt lat="46.46836" lon="4.47043">
        <ele>390.277</ele>
        <time>2022-09-25T12:05:37Z</time>
      </trkpt>
      <trkpt lat="46.46842" lon="4.47038">
        <ele>389.777</ele>
        <time>2022-09-25T12:05:43Z</time>
      </trkpt>
      <trkpt lat="46.46848" lon="4.47031">
        <ele>389.677</ele>
        <time>2022-09-25T12:05:48Z</time>
      </trkpt>
      <trkpt lat="46.46854" lon="4.47024">
        <ele>389.877</ele>
        <time>2022-09-25T12:05:53Z</time>
      </trkpt>
      <trkpt lat="46.4686" lon="4.47018">
        <ele>389.477</ele>
        <time>2022-09-25T12:05:59Z</time>
      </trkpt>
      <trkpt lat="46.46866" lon="4.47011">
        <ele>389.077</ele>
        <time>2022-09-25T12:06:04Z</time>
      </trkpt>
      <trkpt lat="46.46871" lon="4.47005">
        <ele>388.477</ele>
        <time>2022-09-25T12:06:09Z</time>
      </trkpt>
      <trkpt lat="46.46876" lon="4.46998">
        <ele>388.077</ele>
        <time>2022-09-25T12:06:15Z</time>
      </trkpt>
      <trkpt lat="46.46882" lon="4.4699">
        <ele>388.977</ele>
        <time>2022-09-25T12:06:20Z</time>
      </trkpt>
      <trkpt lat="46.46887" lon="4.46982">
        <ele>389.477</ele>
        <time>2022-09-25T12:06:27Z</time>
      </trkpt>
      <trkpt lat="46.46891" lon="4.46974">
        <ele>389.877</ele>
        <time>2022-09-25T12:06:32Z</time>
      </trkpt>
      <trkpt lat="46.46897" lon="4.46966">
        <ele>389.877</ele>
        <time>2022-09-25T12:06:37Z</time>
      </trkpt>
      <trkpt lat="46.46902" lon="4.46958">
        <ele>390.277</ele>
        <time>2022-09-25T12:06:44Z</time>
      </trkpt>
      <trkpt lat="46.46907" lon="4.46949">
        <ele>390.977</ele>
        <time>2022-09-25T12:06:49Z</time>
      </trkpt>
      <trkpt lat="46.46912" lon="4.46942">
        <ele>390.877</ele>
        <time>2022-09-25T12:06:55Z</time>
      </trkpt>
      <trkpt lat="46.46918" lon="4.46934">
        <ele>390.677</ele>
        <time>2022-09-25T12:07:00Z</time>
      </trkpt>
      <trkpt lat="46.46923" lon="4.46925">
        <ele>391.277</ele>
        <time>2022-09-25T12:07:05Z</time>
      </trkpt>
      <trkpt lat="46.46928" lon="4.46918">
        <ele>390.677</ele>
        <time>2022-09-25T12:07:11Z</time>
      </trkpt>
      <trkpt lat="46.46934" lon="4.46911">
        <ele>390.677</ele>
        <time>2022-09-25T12:07:16Z</time>
      </trkpt>
      <trkpt lat="46.46939" lon="4.46903">
        <ele>390.977</ele>
        <time>2022-09-25T12:07:22Z</time>
      </trkpt>
      <trkpt lat="46.46953" lon="4.46897">
        <ele>395.877</ele>
        <time>2022-09-25T12:12:24Z</time>
      </trkpt>
      <trkpt lat="46.4696" lon="4.46892">
        <ele>395.577</ele>
        <time>2022-09-25T12:12:29Z</time>
      </trkpt>
      <trkpt lat="46.46966" lon="4.46886">
        <ele>395.177</ele>
        <time>2022-09-25T12:12:34Z</time>
      </trkpt>
      <trkpt lat="46.46973" lon="4.46882">
        <ele>394.677</ele>
        <time>2022-09-25T12:12:42Z</time>
      </trkpt>
      <trkpt lat="46.46978" lon="4.46876">
        <ele>394.377</ele>
        <time>2022-09-25T12:12:50Z</time>
      </trkpt>
      <trkpt lat="46.46984" lon="4.46872">
        <ele>393.777</ele>
        <time>2022-09-25T12:12:56Z</time>
      </trkpt>
      <trkpt lat="46.46991" lon="4.46868">
        <ele>393.977</ele>
        <time>2022-09-25T12:13:03Z</time>
      </trkpt>
      <trkpt lat="46.46998" lon="4.46865">
        <ele>394.277</ele>
        <time>2022-09-25T12:13:10Z</time>
      </trkpt>
      <trkpt lat="46.47004" lon="4.46861">
        <ele>395.377</ele>
        <time>2022-09-25T12:13:18Z</time>
      </trkpt>
      <trkpt lat="46.47013" lon="4.46856">
        <ele>396.377</ele>
        <time>2022-09-25T12:13:27Z</time>
      </trkpt>
      <trkpt lat="46.47019" lon="4.46853">
        <ele>396.777</ele>
        <time>2022-09-25T12:13:33Z</time>
      </trkpt>
      <trkpt lat="46.47026" lon="4.4685">
        <ele>396.577</ele>
        <time>2022-09-25T12:13:38Z</time>
      </trkpt>
      <trkpt lat="46.47033" lon="4.46847">
        <ele>396.477</ele>
        <time>2022-09-25T12:13:44Z</time>
      </trkpt>
      <trkpt lat="46.47039" lon="4.46843">
        <ele>396.577</ele>
        <time>2022-09-25T12:13:49Z</time>
      </trkpt>
      <trkpt lat="46.47046" lon="4.46837">
        <ele>396.877</ele>
        <time>2022-09-25T12:13:55Z</time>
      </trkpt>
      <trkpt lat="46.47052" lon="4.46832">
        <ele>397.777</ele>
        <time>2022-09-25T12:14:02Z</time>
      </trkpt>
      <trkpt lat="46.4706" lon="4.46826">
        <ele>399.077</ele>
        <time>2022-09-25T12:14:09Z</time>
      </trkpt>
      <trkpt lat="46.47066" lon="4.46821">
        <ele>399.277</ele>
        <time>2022-09-25T12:14:14Z</time>
      </trkpt>
      <trkpt lat="46.47073" lon="4.46817">
        <ele>399.477</ele>
        <time>2022-09-25T12:14:20Z</time>
      </trkpt>
      <trkpt lat="46.47079" lon="4.46812">
        <ele>399.577</ele>
        <time>2022-09-25T12:14:25Z</time>
      </trkpt>
      <trkpt lat="46.47086" lon="4.46806">
        <ele>399.677</ele>
        <time>2022-09-25T12:14:31Z</time>
      </trkpt>
      <trkpt lat="46.47091" lon="4.46801">
        <ele>399.877</ele>
        <time>2022-09-25T12:14:36Z</time>
      </trkpt>
      <trkpt lat="46.47097" lon="4.46795">
        <ele>400.077</ele>
        <time>2022-09-25T12:14:41Z</time>
      </trkpt>
      <trkpt lat="46.47103" lon="4.46789">
        <ele>400.177</ele>
        <time>2022-09-25T12:14:48Z</time>
      </trkpt>
      <trkpt lat="46.4711" lon="4.46783">
        <ele>400.077</ele>
        <time>2022-09-25T12:14:53Z</time>
      </trkpt>
      <trkpt lat="46.47115" lon="4.46776">
        <ele>401.077</ele>
        <time>2022-09-25T12:14:59Z</time>
      </trkpt>
      <trkpt lat="46.4712" lon="4.46771">
        <ele>401.177</ele>
        <time>2022-09-25T12:15:05Z</time>
      </trkpt>
      <trkpt lat="46.47126" lon="4.46764">
        <ele>400.977</ele>
        <time>2022-09-25T12:15:10Z</time>
      </trkpt>
      <trkpt lat="46.47132" lon="4.46758">
        <ele>401.677</ele>
        <time>2022-09-25T12:15:16Z</time>
      </trkpt>
      <trkpt lat="46.47138" lon="4.46752">
        <ele>402.177</ele>
        <time>2022-09-25T12:15:21Z</time>
      </trkpt>
      <trkpt lat="46.47144" lon="4.46748">
        <ele>401.777</ele>
        <time>2022-09-25T12:15:27Z</time>
      </trkpt>
      <trkpt lat="46.4715" lon="4.46742">
        <ele>402.177</ele>
        <time>2022-09-25T12:15:32Z</time>
      </trkpt>
      <trkpt lat="46.47156" lon="4.46736">
        <ele>401.177</ele>
        <time>2022-09-25T12:15:38Z</time>
      </trkpt>
      <trkpt lat="46.47161" lon="4.4673">
        <ele>400.977</ele>
        <time>2022-09-25T12:15:44Z</time>
      </trkpt>
      <trkpt lat="46.47168" lon="4.46724">
        <ele>401.377</ele>
        <time>2022-09-25T12:15:51Z</time>
      </trkpt>
      <trkpt lat="46.47175" lon="4.46718">
        <ele>401.177</ele>
        <time>2022-09-25T12:15:58Z</time>
      </trkpt>
      <trkpt lat="46.47183" lon="4.46711">
        <ele>400.477</ele>
        <time>2022-09-25T12:16:04Z</time>
      </trkpt>
      <trkpt lat="46.47191" lon="4.46706">
        <ele>400.177</ele>
        <time>2022-09-25T12:16:11Z</time>
      </trkpt>
      <trkpt lat="46.47197" lon="4.46701">
        <ele>400.077</ele>
        <time>2022-09-25T12:16:16Z</time>
      </trkpt>
      <trkpt lat="46.47204" lon="4.46696">
        <ele>398.977</ele>
        <time>2022-09-25T12:16:22Z</time>
      </trkpt>
      <trkpt lat="46.47211" lon="4.4669">
        <ele>399.277</ele>
        <time>2022-09-25T12:16:28Z</time>
      </trkpt>
      <trkpt lat="46.47218" lon="4.46685">
        <ele>399.477</ele>
        <time>2022-09-25T12:16:34Z</time>
      </trkpt>
      <trkpt lat="46.47227" lon="4.46678">
        <ele>399.777</ele>
        <time>2022-09-25T12:16:40Z</time>
      </trkpt>
      <trkpt lat="46.47234" lon="4.46674">
        <ele>398.977</ele>
        <time>2022-09-25T12:16:47Z</time>
      </trkpt>
      <trkpt lat="46.47239" lon="4.46667">
        <ele>397.477</ele>
        <time>2022-09-25T12:16:52Z</time>
      </trkpt>
      <trkpt lat="46.47245" lon="4.46661">
        <ele>397.177</ele>
        <time>2022-09-25T12:16:57Z</time>
      </trkpt>
      <trkpt lat="46.4725" lon="4.46656">
        <ele>397.377</ele>
        <time>2022-09-25T12:17:02Z</time>
      </trkpt>
      <trkpt lat="46.47257" lon="4.46649">
        <ele>396.577</ele>
        <time>2022-09-25T12:17:08Z</time>
      </trkpt>
      <trkpt lat="46.47262" lon="4.46641">
        <ele>395.777</ele>
        <time>2022-09-25T12:17:14Z</time>
      </trkpt>
      <trkpt lat="46.47268" lon="4.46633">
        <ele>394.777</ele>
        <time>2022-09-25T12:17:20Z</time>
      </trkpt>
      <trkpt lat="46.47273" lon="4.46625">
        <ele>394.377</ele>
        <time>2022-09-25T12:17:26Z</time>
      </trkpt>
      <trkpt lat="46.47278" lon="4.46618">
        <ele>394.277</ele>
        <time>2022-09-25T12:17:32Z</time>
      </trkpt>
      <trkpt lat="46.47284" lon="4.46612">
        <ele>394.577</ele>
        <time>2022-09-25T12:17:37Z</time>
      </trkpt>
      <trkpt lat="46.4729" lon="4.46604">
        <ele>396.477</ele>
        <time>2022-09-25T12:17:42Z</time>
      </trkpt>
      <trkpt lat="46.47297" lon="4.46596">
        <ele>397.077</ele>
        <time>2022-09-25T12:17:48Z</time>
      </trkpt>
      <trkpt lat="46.47302" lon="4.46587">
        <ele>395.377</ele>
        <time>2022-09-25T12:17:54Z</time>
      </trkpt>
      <trkpt lat="46.47307" lon="4.4658">
        <ele>393.477</ele>
        <time>2022-09-25T12:18:01Z</time>
      </trkpt>
      <trkpt lat="46.47312" lon="4.46572">
        <ele>393.977</ele>
        <time>2022-09-25T12:18:06Z</time>
      </trkpt>
      <trkpt lat="46.47318" lon="4.46564">
        <ele>394.977</ele>
        <time>2022-09-25T12:18:12Z</time>
      </trkpt>
      <trkpt lat="46.47324" lon="4.46557">
        <ele>395.778</ele>
        <time>2022-09-25T12:18:17Z</time>
      </trkpt>
      <trkpt lat="46.47329" lon="4.4655">
        <ele>396.478</ele>
        <time>2022-09-25T12:18:22Z</time>
      </trkpt>
      <trkpt lat="46.47332" lon="4.46542">
        <ele>397.478</ele>
        <time>2022-09-25T12:18:28Z</time>
      </trkpt>
      <trkpt lat="46.47335" lon="4.46531">
        <ele>399.178</ele>
        <time>2022-09-25T12:18:34Z</time>
      </trkpt>
      <trkpt lat="46.47337" lon="4.46521">
        <ele>401.778</ele>
        <time>2022-09-25T12:18:40Z</time>
      </trkpt>
      <trkpt lat="46.4734" lon="4.46512">
        <ele>404.578</ele>
        <time>2022-09-25T12:18:46Z</time>
      </trkpt>
      <trkpt lat="46.47342" lon="4.46501">
        <ele>405.578</ele>
        <time>2022-09-25T12:18:52Z</time>
      </trkpt>
      <trkpt lat="46.47345" lon="4.46491">
        <ele>406.178</ele>
        <time>2022-09-25T12:18:57Z</time>
      </trkpt>
      <trkpt lat="46.47349" lon="4.46483">
        <ele>407.078</ele>
        <time>2022-09-25T12:19:02Z</time>
      </trkpt>
      <trkpt lat="46.47355" lon="4.46472">
        <ele>407.078</ele>
        <time>2022-09-25T12:19:08Z</time>
      </trkpt>
      <trkpt lat="46.47361" lon="4.46465">
        <ele>406.578</ele>
        <time>2022-09-25T12:19:13Z</time>
      </trkpt>
      <trkpt lat="46.47366" lon="4.46457">
        <ele>405.378</ele>
        <time>2022-09-25T12:19:20Z</time>
      </trkpt>
      <trkpt lat="46.47371" lon="4.4645">
        <ele>403.578</ele>
        <time>2022-09-25T12:19:25Z</time>
      </trkpt>
      <trkpt lat="46.47376" lon="4.46442">
        <ele>403.978</ele>
        <time>2022-09-25T12:19:32Z</time>
      </trkpt>
      <trkpt lat="46.47382" lon="4.46436">
        <ele>404.778</ele>
        <time>2022-09-25T12:19:38Z</time>
      </trkpt>
      <trkpt lat="46.47387" lon="4.46429">
        <ele>404.678</ele>
        <time>2022-09-25T12:19:44Z</time>
      </trkpt>
      <trkpt lat="46.47392" lon="4.46422">
        <ele>404.478</ele>
        <time>2022-09-25T12:19:51Z</time>
      </trkpt>
      <trkpt lat="46.47397" lon="4.46414">
        <ele>406.178</ele>
        <time>2022-09-25T12:19:57Z</time>
      </trkpt>
      <trkpt lat="46.47402" lon="4.46407">
        <ele>407.078</ele>
        <time>2022-09-25T12:20:02Z</time>
      </trkpt>
      <trkpt lat="46.47407" lon="4.464">
        <ele>407.678</ele>
        <time>2022-09-25T12:20:08Z</time>
      </trkpt>
      <trkpt lat="46.47414" lon="4.4639">
        <ele>408.078</ele>
        <time>2022-09-25T12:20:13Z</time>
      </trkpt>
      <trkpt lat="46.47418" lon="4.46382">
        <ele>406.978</ele>
        <time>2022-09-25T12:20:18Z</time>
      </trkpt>
      <trkpt lat="46.47423" lon="4.46375">
        <ele>406.478</ele>
        <time>2022-09-25T12:20:24Z</time>
      </trkpt>
      <trkpt lat="46.47427" lon="4.46367">
        <ele>405.878</ele>
        <time>2022-09-25T12:20:29Z</time>
      </trkpt>
      <trkpt lat="46.47433" lon="4.4636">
        <ele>406.678</ele>
        <time>2022-09-25T12:20:35Z</time>
      </trkpt>
      <trkpt lat="46.47438" lon="4.46354">
        <ele>406.978</ele>
        <time>2022-09-25T12:20:40Z</time>
      </trkpt>
      <trkpt lat="46.47443" lon="4.46348">
        <ele>407.278</ele>
        <time>2022-09-25T12:20:45Z</time>
      </trkpt>
      <trkpt lat="46.47449" lon="4.46341">
        <ele>408.178</ele>
        <time>2022-09-25T12:20:50Z</time>
      </trkpt>
      <trkpt lat="46.47455" lon="4.46333">
        <ele>408.478</ele>
        <time>2022-09-25T12:20:57Z</time>
      </trkpt>
      <trkpt lat="46.47461" lon="4.46327">
        <ele>408.978</ele>
        <time>2022-09-25T12:21:02Z</time>
      </trkpt>
      <trkpt lat="46.47466" lon="4.4632">
        <ele>408.778</ele>
        <time>2022-09-25T12:21:09Z</time>
      </trkpt>
      <trkpt lat="46.47472" lon="4.46313">
        <ele>408.078</ele>
        <time>2022-09-25T12:21:14Z</time>
      </trkpt>
      <trkpt lat="46.47476" lon="4.46306">
        <ele>408.078</ele>
        <time>2022-09-25T12:21:20Z</time>
      </trkpt>
      <trkpt lat="46.47482" lon="4.46299">
        <ele>408.178</ele>
        <time>2022-09-25T12:21:25Z</time>
      </trkpt>
      <trkpt lat="46.47486" lon="4.4629">
        <ele>408.278</ele>
        <time>2022-09-25T12:21:33Z</time>
      </trkpt>
      <trkpt lat="46.47491" lon="4.46282">
        <ele>408.378</ele>
        <time>2022-09-25T12:21:38Z</time>
      </trkpt>
      <trkpt lat="46.47496" lon="4.46275">
        <ele>408.378</ele>
        <time>2022-09-25T12:21:45Z</time>
      </trkpt>
      <trkpt lat="46.47501" lon="4.46267">
        <ele>409.278</ele>
        <time>2022-09-25T12:21:50Z</time>
      </trkpt>
      <trkpt lat="46.47507" lon="4.46261">
        <ele>410.078</ele>
        <time>2022-09-25T12:21:56Z</time>
      </trkpt>
      <trkpt lat="46.47512" lon="4.46255">
        <ele>410.778</ele>
        <time>2022-09-25T12:22:01Z</time>
      </trkpt>
      <trkpt lat="46.47517" lon="4.46248">
        <ele>411.078</ele>
        <time>2022-09-25T12:22:07Z</time>
      </trkpt>
      <trkpt lat="46.47523" lon="4.46241">
        <ele>410.678</ele>
        <time>2022-09-25T12:22:12Z</time>
      </trkpt>
      <trkpt lat="46.47528" lon="4.46233">
        <ele>410.578</ele>
        <time>2022-09-25T12:22:19Z</time>
      </trkpt>
      <trkpt lat="46.47532" lon="4.46226">
        <ele>411.578</ele>
        <time>2022-09-25T12:22:24Z</time>
      </trkpt>
      <trkpt lat="46.47536" lon="4.46218">
        <ele>412.678</ele>
        <time>2022-09-25T12:22:30Z</time>
      </trkpt>
      <trkpt lat="46.4754" lon="4.46208">
        <ele>413.878</ele>
        <time>2022-09-25T12:22:36Z</time>
      </trkpt>
      <trkpt lat="46.47545" lon="4.46201">
        <ele>413.878</ele>
        <time>2022-09-25T12:22:42Z</time>
      </trkpt>
      <trkpt lat="46.4755" lon="4.46189">
        <ele>413.878</ele>
        <time>2022-09-25T12:22:48Z</time>
      </trkpt>
      <trkpt lat="46.47555" lon="4.4618">
        <ele>413.878</ele>
        <time>2022-09-25T12:22:53Z</time>
      </trkpt>
      <trkpt lat="46.4756" lon="4.46172">
        <ele>413.278</ele>
        <time>2022-09-25T12:22:58Z</time>
      </trkpt>
      <trkpt lat="46.47566" lon="4.46165">
        <ele>412.878</ele>
        <time>2022-09-25T12:23:04Z</time>
      </trkpt>
      <trkpt lat="46.47571" lon="4.46159">
        <ele>412.978</ele>
        <time>2022-09-25T12:23:09Z</time>
      </trkpt>
      <trkpt lat="46.47579" lon="4.46152">
        <ele>413.678</ele>
        <time>2022-09-25T12:23:16Z</time>
      </trkpt>
      <trkpt lat="46.47587" lon="4.46148">
        <ele>414.178</ele>
        <time>2022-09-25T12:23:21Z</time>
      </trkpt>
      <trkpt lat="46.47594" lon="4.46143">
        <ele>414.378</ele>
        <time>2022-09-25T12:23:26Z</time>
      </trkpt>
      <trkpt lat="46.47604" lon="4.46136">
        <ele>414.778</ele>
        <time>2022-09-25T12:23:36Z</time>
      </trkpt>
      <trkpt lat="46.47611" lon="4.46132">
        <ele>415.378</ele>
        <time>2022-09-25T12:23:41Z</time>
      </trkpt>
      <trkpt lat="46.47622" lon="4.46123">
        <ele>414.178</ele>
        <time>2022-09-25T12:23:51Z</time>
      </trkpt>
      <trkpt lat="46.47628" lon="4.46117">
        <ele>415.478</ele>
        <time>2022-09-25T12:23:57Z</time>
      </trkpt>
      <trkpt lat="46.47634" lon="4.46111">
        <ele>415.678</ele>
        <time>2022-09-25T12:24:03Z</time>
      </trkpt>
      <trkpt lat="46.4764" lon="4.46107">
        <ele>415.078</ele>
        <time>2022-09-25T12:24:08Z</time>
      </trkpt>
      <trkpt lat="46.47647" lon="4.46101">
        <ele>415.578</ele>
        <time>2022-09-25T12:24:13Z</time>
      </trkpt>
      <trkpt lat="46.47654" lon="4.46096">
        <ele>415.578</ele>
        <time>2022-09-25T12:24:19Z</time>
      </trkpt>
      <trkpt lat="46.47659" lon="4.4609">
        <ele>416.278</ele>
        <time>2022-09-25T12:24:24Z</time>
      </trkpt>
      <trkpt lat="46.47665" lon="4.46085">
        <ele>417.378</ele>
        <time>2022-09-25T12:24:29Z</time>
      </trkpt>
      <trkpt lat="46.47671" lon="4.46081">
        <ele>417.478</ele>
        <time>2022-09-25T12:24:34Z</time>
      </trkpt>
      <trkpt lat="46.47679" lon="4.46075">
        <ele>416.778</ele>
        <time>2022-09-25T12:24:40Z</time>
      </trkpt>
      <trkpt lat="46.47686" lon="4.4607">
        <ele>418.378</ele>
        <time>2022-09-25T12:24:45Z</time>
      </trkpt>
      <trkpt lat="46.47691" lon="4.46064">
        <ele>417.378</ele>
        <time>2022-09-25T12:24:50Z</time>
      </trkpt>
      <trkpt lat="46.47699" lon="4.46058">
        <ele>417.178</ele>
        <time>2022-09-25T12:24:56Z</time>
      </trkpt>
      <trkpt lat="46.47705" lon="4.46053">
        <ele>417.878</ele>
        <time>2022-09-25T12:25:01Z</time>
      </trkpt>
      <trkpt lat="46.47711" lon="4.46048">
        <ele>418.078</ele>
        <time>2022-09-25T12:25:06Z</time>
      </trkpt>
      <trkpt lat="46.47718" lon="4.46042">
        <ele>418.578</ele>
        <time>2022-09-25T12:25:11Z</time>
      </trkpt>
      <trkpt lat="46.47724" lon="4.46037">
        <ele>418.678</ele>
        <time>2022-09-25T12:25:17Z</time>
      </trkpt>
      <trkpt lat="46.47731" lon="4.46033">
        <ele>419.078</ele>
        <time>2022-09-25T12:25:22Z</time>
      </trkpt>
      <trkpt lat="46.47739" lon="4.46026">
        <ele>418.878</ele>
        <time>2022-09-25T12:25:28Z</time>
      </trkpt>
      <trkpt lat="46.47746" lon="4.46023">
        <ele>419.878</ele>
        <time>2022-09-25T12:25:33Z</time>
      </trkpt>
      <trkpt lat="46.47751" lon="4.46017">
        <ele>421.278</ele>
        <time>2022-09-25T12:25:38Z</time>
      </trkpt>
      <trkpt lat="46.47763" lon="4.46012">
        <ele>422.678</ele>
        <time>2022-09-25T12:28:02Z</time>
      </trkpt>
      <trkpt lat="46.4777" lon="4.46011">
        <ele>423.978</ele>
        <time>2022-09-25T12:28:08Z</time>
      </trkpt>
      <trkpt lat="46.47777" lon="4.46012">
        <ele>424.178</ele>
        <time>2022-09-25T12:28:15Z</time>
      </trkpt>
      <trkpt lat="46.47784" lon="4.46015">
        <ele>423.878</ele>
        <time>2022-09-25T12:28:21Z</time>
      </trkpt>
      <trkpt lat="46.47791" lon="4.46016">
        <ele>424.478</ele>
        <time>2022-09-25T12:28:27Z</time>
      </trkpt>
      <trkpt lat="46.47798" lon="4.46018">
        <ele>425.178</ele>
        <time>2022-09-25T12:28:33Z</time>
      </trkpt>
      <trkpt lat="46.47805" lon="4.46019">
        <ele>425.378</ele>
        <time>2022-09-25T12:28:38Z</time>
      </trkpt>
      <trkpt lat="46.47812" lon="4.46021">
        <ele>425.578</ele>
        <time>2022-09-25T12:28:45Z</time>
      </trkpt>
      <trkpt lat="46.47819" lon="4.46023">
        <ele>425.978</ele>
        <time>2022-09-25T12:28:52Z</time>
      </trkpt>
      <trkpt lat="46.47827" lon="4.46025">
        <ele>426.479</ele>
        <time>2022-09-25T12:29:00Z</time>
      </trkpt>
      <trkpt lat="46.47835" lon="4.46028">
        <ele>427.079</ele>
        <time>2022-09-25T12:29:07Z</time>
      </trkpt>
      <trkpt lat="46.47841" lon="4.4603">
        <ele>426.679</ele>
        <time>2022-09-25T12:29:13Z</time>
      </trkpt>
      <trkpt lat="46.47848" lon="4.46033">
        <ele>426.579</ele>
        <time>2022-09-25T12:29:20Z</time>
      </trkpt>
      <trkpt lat="46.47856" lon="4.46048">
        <ele>426.579</ele>
        <time>2022-09-25T12:30:23Z</time>
      </trkpt>
      <trkpt lat="46.47864" lon="4.4606">
        <ele>427.479</ele>
        <time>2022-09-25T12:30:39Z</time>
      </trkpt>
      <trkpt lat="46.47868" lon="4.46067">
        <ele>428.379</ele>
        <time>2022-09-25T12:30:46Z</time>
      </trkpt>
      <trkpt lat="46.47872" lon="4.46077">
        <ele>429.979</ele>
        <time>2022-09-25T12:30:52Z</time>
      </trkpt>
      <trkpt lat="46.47877" lon="4.46085">
        <ele>430.879</ele>
        <time>2022-09-25T12:30:58Z</time>
      </trkpt>
      <trkpt lat="46.47883" lon="4.46091">
        <ele>431.579</ele>
        <time>2022-09-25T12:31:04Z</time>
      </trkpt>
      <trkpt lat="46.47887" lon="4.461">
        <ele>431.779</ele>
        <time>2022-09-25T12:31:10Z</time>
      </trkpt>
      <trkpt lat="46.47892" lon="4.46106">
        <ele>431.979</ele>
        <time>2022-09-25T12:31:15Z</time>
      </trkpt>
      <trkpt lat="46.47896" lon="4.46115">
        <ele>432.179</ele>
        <time>2022-09-25T12:31:21Z</time>
      </trkpt>
      <trkpt lat="46.47901" lon="4.46122">
        <ele>433.179</ele>
        <time>2022-09-25T12:31:26Z</time>
      </trkpt>
      <trkpt lat="46.47907" lon="4.46131">
        <ele>433.879</ele>
        <time>2022-09-25T12:31:32Z</time>
      </trkpt>
      <trkpt lat="46.47912" lon="4.46137">
        <ele>434.779</ele>
        <time>2022-09-25T12:31:38Z</time>
      </trkpt>
      <trkpt lat="46.47918" lon="4.46144">
        <ele>435.079</ele>
        <time>2022-09-25T12:31:44Z</time>
      </trkpt>
      <trkpt lat="46.47922" lon="4.46154">
        <ele>435.179</ele>
        <time>2022-09-25T12:31:50Z</time>
      </trkpt>
      <trkpt lat="46.47927" lon="4.46164">
        <ele>433.779</ele>
        <time>2022-09-25T12:31:57Z</time>
      </trkpt>
      <trkpt lat="46.47932" lon="4.46173">
        <ele>433.079</ele>
        <time>2022-09-25T12:32:02Z</time>
      </trkpt>
      <trkpt lat="46.47937" lon="4.46181">
        <ele>431.679</ele>
        <time>2022-09-25T12:32:08Z</time>
      </trkpt>
      <trkpt lat="46.47941" lon="4.46189">
        <ele>431.979</ele>
        <time>2022-09-25T12:32:13Z</time>
      </trkpt>
      <trkpt lat="46.47946" lon="4.46196">
        <ele>431.479</ele>
        <time>2022-09-25T12:32:18Z</time>
      </trkpt>
      <trkpt lat="46.47952" lon="4.46206">
        <ele>431.579</ele>
        <time>2022-09-25T12:32:25Z</time>
      </trkpt>
      <trkpt lat="46.47957" lon="4.46213">
        <ele>432.079</ele>
        <time>2022-09-25T12:32:30Z</time>
      </trkpt>
      <trkpt lat="46.47962" lon="4.46222">
        <ele>431.779</ele>
        <time>2022-09-25T12:32:37Z</time>
      </trkpt>
      <trkpt lat="46.47968" lon="4.46229">
        <ele>431.579</ele>
        <time>2022-09-25T12:32:43Z</time>
      </trkpt>
      <trkpt lat="46.47974" lon="4.46237">
        <ele>431.379</ele>
        <time>2022-09-25T12:32:48Z</time>
      </trkpt>
      <trkpt lat="46.47977" lon="4.46246">
        <ele>432.179</ele>
        <time>2022-09-25T12:32:53Z</time>
      </trkpt>
      <trkpt lat="46.47983" lon="4.46253">
        <ele>433.379</ele>
        <time>2022-09-25T12:32:58Z</time>
      </trkpt>
      <trkpt lat="46.47989" lon="4.4626">
        <ele>434.279</ele>
        <time>2022-09-25T12:33:04Z</time>
      </trkpt>
      <trkpt lat="46.47995" lon="4.46265">
        <ele>434.679</ele>
        <time>2022-09-25T12:33:10Z</time>
      </trkpt>
      <trkpt lat="46.48" lon="4.46273">
        <ele>434.279</ele>
        <time>2022-09-25T12:33:15Z</time>
      </trkpt>
      <trkpt lat="46.48005" lon="4.4628">
        <ele>435.279</ele>
        <time>2022-09-25T12:33:21Z</time>
      </trkpt>
      <trkpt lat="46.4801" lon="4.46288">
        <ele>435.679</ele>
        <time>2022-09-25T12:33:26Z</time>
      </trkpt>
      <trkpt lat="46.48013" lon="4.46298">
        <ele>435.879</ele>
        <time>2022-09-25T12:33:32Z</time>
      </trkpt>
      <trkpt lat="46.48015" lon="4.46307">
        <ele>436.079</ele>
        <time>2022-09-25T12:33:37Z</time>
      </trkpt>
      <trkpt lat="46.48014" lon="4.46327">
        <ele>436.179</ele>
        <time>2022-09-25T12:33:56Z</time>
      </trkpt>
      <trkpt lat="46.4801" lon="4.4634">
        <ele>435.479</ele>
        <time>2022-09-25T12:34:59Z</time>
      </trkpt>
      <trkpt lat="46.48008" lon="4.4635">
        <ele>435.179</ele>
        <time>2022-09-25T12:35:06Z</time>
      </trkpt>
      <trkpt lat="46.48004" lon="4.46359">
        <ele>435.879</ele>
        <time>2022-09-25T12:35:12Z</time>
      </trkpt>
      <trkpt lat="46.48001" lon="4.46373">
        <ele>436.179</ele>
        <time>2022-09-25T12:35:40Z</time>
      </trkpt>
      <trkpt lat="46.48" lon="4.46384">
        <ele>436.079</ele>
        <time>2022-09-25T12:35:47Z</time>
      </trkpt>
      <trkpt lat="46.47998" lon="4.46394">
        <ele>435.679</ele>
        <time>2022-09-25T12:35:54Z</time>
      </trkpt>
      <trkpt lat="46.47995" lon="4.46404">
        <ele>434.779</ele>
        <time>2022-09-25T12:36:00Z</time>
      </trkpt>
      <trkpt lat="46.47992" lon="4.46414">
        <ele>434.179</ele>
        <time>2022-09-25T12:36:05Z</time>
      </trkpt>
      <trkpt lat="46.4799" lon="4.46424">
        <ele>433.679</ele>
        <time>2022-09-25T12:36:11Z</time>
      </trkpt>
      <trkpt lat="46.47988" lon="4.46434">
        <ele>432.579</ele>
        <time>2022-09-25T12:36:16Z</time>
      </trkpt>
      <trkpt lat="46.47988" lon="4.46444">
        <ele>431.779</ele>
        <time>2022-09-25T12:36:22Z</time>
      </trkpt>
      <trkpt lat="46.47985" lon="4.46456">
        <ele>431.379</ele>
        <time>2022-09-25T12:36:28Z</time>
      </trkpt>
      <trkpt lat="46.47984" lon="4.46467">
        <ele>431.479</ele>
        <time>2022-09-25T12:36:33Z</time>
      </trkpt>
      <trkpt lat="46.47982" lon="4.46477">
        <ele>430.179</ele>
        <time>2022-09-25T12:36:39Z</time>
      </trkpt>
      <trkpt lat="46.47983" lon="4.46486">
        <ele>430.179</ele>
        <time>2022-09-25T12:36:44Z</time>
      </trkpt>
      <trkpt lat="46.47981" lon="4.46497">
        <ele>429.579</ele>
        <time>2022-09-25T12:36:50Z</time>
      </trkpt>
      <trkpt lat="46.47982" lon="4.46508">
        <ele>429.279</ele>
        <time>2022-09-25T12:36:56Z</time>
      </trkpt>
      <trkpt lat="46.47982" lon="4.46519">
        <ele>429.279</ele>
        <time>2022-09-25T12:37:01Z</time>
      </trkpt>
      <trkpt lat="46.47982" lon="4.4653">
        <ele>429.079</ele>
        <time>2022-09-25T12:37:07Z</time>
      </trkpt>
      <trkpt lat="46.47981" lon="4.4654">
        <ele>427.879</ele>
        <time>2022-09-25T12:37:12Z</time>
      </trkpt>
      <trkpt lat="46.47981" lon="4.4655">
        <ele>427.279</ele>
        <time>2022-09-25T12:37:18Z</time>
      </trkpt>
      <trkpt lat="46.4798" lon="4.46561">
        <ele>425.879</ele>
        <time>2022-09-25T12:37:24Z</time>
      </trkpt>
      <trkpt lat="46.4798" lon="4.46571">
        <ele>424.779</ele>
        <time>2022-09-25T12:37:29Z</time>
      </trkpt>
      <trkpt lat="46.47981" lon="4.46581">
        <ele>423.179</ele>
        <time>2022-09-25T12:37:34Z</time>
      </trkpt>
      <trkpt lat="46.47981" lon="4.46592">
        <ele>421.379</ele>
        <time>2022-09-25T12:37:41Z</time>
      </trkpt>
      <trkpt lat="46.47982" lon="4.46602">
        <ele>420.379</ele>
        <time>2022-09-25T12:37:47Z</time>
      </trkpt>
      <trkpt lat="46.47982" lon="4.46612">
        <ele>420.079</ele>
        <time>2022-09-25T12:37:52Z</time>
      </trkpt>
      <trkpt lat="46.47983" lon="4.46623">
        <ele>418.479</ele>
        <time>2022-09-25T12:37:57Z</time>
      </trkpt>
      <trkpt lat="46.47984" lon="4.46634">
        <ele>418.679</ele>
        <time>2022-09-25T12:38:03Z</time>
      </trkpt>
      <trkpt lat="46.47983" lon="4.46646">
        <ele>418.379</ele>
        <time>2022-09-25T12:38:08Z</time>
      </trkpt>
      <trkpt lat="46.47981" lon="4.46657">
        <ele>416.979</ele>
        <time>2022-09-25T12:38:14Z</time>
      </trkpt>
      <trkpt lat="46.47976" lon="4.46668">
        <ele>415.879</ele>
        <time>2022-09-25T12:38:20Z</time>
      </trkpt>
      <trkpt lat="46.47972" lon="4.46679">
        <ele>415.179</ele>
        <time>2022-09-25T12:38:25Z</time>
      </trkpt>
      <trkpt lat="46.47969" lon="4.46688">
        <ele>415.279</ele>
        <time>2022-09-25T12:38:30Z</time>
      </trkpt>
      <trkpt lat="46.47964" lon="4.46697">
        <ele>416.179</ele>
        <time>2022-09-25T12:38:37Z</time>
      </trkpt>
      <trkpt lat="46.4796" lon="4.46705">
        <ele>416.279</ele>
        <time>2022-09-25T12:38:42Z</time>
      </trkpt>
      <trkpt lat="46.47956" lon="4.46714">
        <ele>415.379</ele>
        <time>2022-09-25T12:38:49Z</time>
      </trkpt>
      <trkpt lat="46.47952" lon="4.46723">
        <ele>414.479</ele>
        <time>2022-09-25T12:38:54Z</time>
      </trkpt>
      <trkpt lat="46.47948" lon="4.4673">
        <ele>413.679</ele>
        <time>2022-09-25T12:39:00Z</time>
      </trkpt>
      <trkpt lat="46.47942" lon="4.46738">
        <ele>412.379</ele>
        <time>2022-09-25T12:39:05Z</time>
      </trkpt>
      <trkpt lat="46.47937" lon="4.46746">
        <ele>411.379</ele>
        <time>2022-09-25T12:39:10Z</time>
      </trkpt>
      <trkpt lat="46.47931" lon="4.46754">
        <ele>411.079</ele>
        <time>2022-09-25T12:39:16Z</time>
      </trkpt>
      <trkpt lat="46.47926" lon="4.46762">
        <ele>410.879</ele>
        <time>2022-09-25T12:39:21Z</time>
      </trkpt>
      <trkpt lat="46.47922" lon="4.46771">
        <ele>411.179</ele>
        <time>2022-09-25T12:39:26Z</time>
      </trkpt>
      <trkpt lat="46.47917" lon="4.4678">
        <ele>412.379</ele>
        <time>2022-09-25T12:39:32Z</time>
      </trkpt>
      <trkpt lat="46.47913" lon="4.46788">
        <ele>413.279</ele>
        <time>2022-09-25T12:39:37Z</time>
      </trkpt>
      <trkpt lat="46.47908" lon="4.46795">
        <ele>414.479</ele>
        <time>2022-09-25T12:39:44Z</time>
      </trkpt>
      <trkpt lat="46.47904" lon="4.46803">
        <ele>414.179</ele>
        <time>2022-09-25T12:39:49Z</time>
      </trkpt>
      <trkpt lat="46.47901" lon="4.46813">
        <ele>413.279</ele>
        <time>2022-09-25T12:39:55Z</time>
      </trkpt>
      <trkpt lat="46.47897" lon="4.46822">
        <ele>412.679</ele>
        <time>2022-09-25T12:40:01Z</time>
      </trkpt>
      <trkpt lat="46.47893" lon="4.46832">
        <ele>413.379</ele>
        <time>2022-09-25T12:40:06Z</time>
      </trkpt>
      <trkpt lat="46.4789" lon="4.46844">
        <ele>413.079</ele>
        <time>2022-09-25T12:40:12Z</time>
      </trkpt>
      <trkpt lat="46.47887" lon="4.46856">
        <ele>412.479</ele>
        <time>2022-09-25T12:40:18Z</time>
      </trkpt>
      <trkpt lat="46.47886" lon="4.46865">
        <ele>412.379</ele>
        <time>2022-09-25T12:40:24Z</time>
      </trkpt>
      <trkpt lat="46.47883" lon="4.46876">
        <ele>413.279</ele>
        <time>2022-09-25T12:40:29Z</time>
      </trkpt>
      <trkpt lat="46.47884" lon="4.46885">
        <ele>413.379</ele>
        <time>2022-09-25T12:40:35Z</time>
      </trkpt>
      <trkpt lat="46.47885" lon="4.46896">
        <ele>413.379</ele>
        <time>2022-09-25T12:40:40Z</time>
      </trkpt>
      <trkpt lat="46.47888" lon="4.46905">
        <ele>414.479</ele>
        <time>2022-09-25T12:40:45Z</time>
      </trkpt>
      <trkpt lat="46.4789" lon="4.46915">
        <ele>413.779</ele>
        <time>2022-09-25T12:40:51Z</time>
      </trkpt>
      <trkpt lat="46.47889" lon="4.46925">
        <ele>414.279</ele>
        <time>2022-09-25T12:40:56Z</time>
      </trkpt>
      <trkpt lat="46.47888" lon="4.46936">
        <ele>412.679</ele>
        <time>2022-09-25T12:41:02Z</time>
      </trkpt>
      <trkpt lat="46.47888" lon="4.46945">
        <ele>412.379</ele>
        <time>2022-09-25T12:41:07Z</time>
      </trkpt>
      <trkpt lat="46.47887" lon="4.46956">
        <ele>411.779</ele>
        <time>2022-09-25T12:41:13Z</time>
      </trkpt>
      <trkpt lat="46.47887" lon="4.46967">
        <ele>411.079</ele>
        <time>2022-09-25T12:41:19Z</time>
      </trkpt>
      <trkpt lat="46.47888" lon="4.46977">
        <ele>409.779</ele>
        <time>2022-09-25T12:41:26Z</time>
      </trkpt>
      <trkpt lat="46.47888" lon="4.46987">
        <ele>405.579</ele>
        <time>2022-09-25T12:41:32Z</time>
      </trkpt>
      <trkpt lat="46.47882" lon="4.47001">
        <ele>402.979</ele>
        <time>2022-09-25T12:41:42Z</time>
      </trkpt>
      <trkpt lat="46.4788" lon="4.47013">
        <ele>404.679</ele>
        <time>2022-09-25T12:41:48Z</time>
      </trkpt>
      <trkpt lat="46.47875" lon="4.4702">
        <ele>405.079</ele>
        <time>2022-09-25T12:41:53Z</time>
      </trkpt>
      <trkpt lat="46.47871" lon="4.47031">
        <ele>405.779</ele>
        <time>2022-09-25T12:41:58Z</time>
      </trkpt>
      <trkpt lat="46.47867" lon="4.47041">
        <ele>407.579</ele>
        <time>2022-09-25T12:42:04Z</time>
      </trkpt>
      <trkpt lat="46.47863" lon="4.4705">
        <ele>407.679</ele>
        <time>2022-09-25T12:42:10Z</time>
      </trkpt>
      <trkpt lat="46.47858" lon="4.47057">
        <ele>405.679</ele>
        <time>2022-09-25T12:42:16Z</time>
      </trkpt>
      <trkpt lat="46.47853" lon="4.47062">
        <ele>403.379</ele>
        <time>2022-09-25T12:42:27Z</time>
      </trkpt>
      <trkpt lat="46.47847" lon="4.47069">
        <ele>402.779</ele>
        <time>2022-09-25T12:42:34Z</time>
      </trkpt>
      <trkpt lat="46.47842" lon="4.47075">
        <ele>400.579</ele>
        <time>2022-09-25T12:42:40Z</time>
      </trkpt>
      <trkpt lat="46.47838" lon="4.47082">
        <ele>399.279</ele>
        <time>2022-09-25T12:42:45Z</time>
      </trkpt>
      <trkpt lat="46.47832" lon="4.47088">
        <ele>398.779</ele>
        <time>2022-09-25T12:42:51Z</time>
      </trkpt>
      <trkpt lat="46.47826" lon="4.47095">
        <ele>398.679</ele>
        <time>2022-09-25T12:42:57Z</time>
      </trkpt>
      <trkpt lat="46.47821" lon="4.47101">
        <ele>398.079</ele>
        <time>2022-09-25T12:43:03Z</time>
      </trkpt>
      <trkpt lat="46.47817" lon="4.47108">
        <ele>397.579</ele>
        <time>2022-09-25T12:43:08Z</time>
      </trkpt>
      <trkpt lat="46.47812" lon="4.47115">
        <ele>396.079</ele>
        <time>2022-09-25T12:43:13Z</time>
      </trkpt>
      <trkpt lat="46.47807" lon="4.47123">
        <ele>395.579</ele>
        <time>2022-09-25T12:43:19Z</time>
      </trkpt>
      <trkpt lat="46.47803" lon="4.47132">
        <ele>394.579</ele>
        <time>2022-09-25T12:43:25Z</time>
      </trkpt>
      <trkpt lat="46.47798" lon="4.4714">
        <ele>394.579</ele>
        <time>2022-09-25T12:43:32Z</time>
      </trkpt>
      <trkpt lat="46.47794" lon="4.47149">
        <ele>394.179</ele>
        <time>2022-09-25T12:43:38Z</time>
      </trkpt>
      <trkpt lat="46.47788" lon="4.47159">
        <ele>393.279</ele>
        <time>2022-09-25T12:43:44Z</time>
      </trkpt>
      <trkpt lat="46.47784" lon="4.47167">
        <ele>393.079</ele>
        <time>2022-09-25T12:43:50Z</time>
      </trkpt>
      <trkpt lat="46.4778" lon="4.47175">
        <ele>391.879</ele>
        <time>2022-09-25T12:43:56Z</time>
      </trkpt>
      <trkpt lat="46.47776" lon="4.47183">
        <ele>390.179</ele>
        <time>2022-09-25T12:44:02Z</time>
      </trkpt>
      <trkpt lat="46.47772" lon="4.47194">
        <ele>389.879</ele>
        <time>2022-09-25T12:44:08Z</time>
      </trkpt>
      <trkpt lat="46.47768" lon="4.47203">
        <ele>389.679</ele>
        <time>2022-09-25T12:44:14Z</time>
      </trkpt>
      <trkpt lat="46.47763" lon="4.47213">
        <ele>389.479</ele>
        <time>2022-09-25T12:44:20Z</time>
      </trkpt>
      <trkpt lat="46.47759" lon="4.47222">
        <ele>388.879</ele>
        <time>2022-09-25T12:44:26Z</time>
      </trkpt>
      <trkpt lat="46.47757" lon="4.47232">
        <ele>387.379</ele>
        <time>2022-09-25T12:44:32Z</time>
      </trkpt>
      <trkpt lat="46.47754" lon="4.47241">
        <ele>384.679</ele>
        <time>2022-09-25T12:44:38Z</time>
      </trkpt>
      <trkpt lat="46.4775" lon="4.4725">
        <ele>383.779</ele>
        <time>2022-09-25T12:44:44Z</time>
      </trkpt>
      <trkpt lat="46.47746" lon="4.47258">
        <ele>383.979</ele>
        <time>2022-09-25T12:44:51Z</time>
      </trkpt>
      <trkpt lat="46.47742" lon="4.47268">
        <ele>384.079</ele>
        <time>2022-09-25T12:44:57Z</time>
      </trkpt>
      <trkpt lat="46.4774" lon="4.47277">
        <ele>384.079</ele>
        <time>2022-09-25T12:45:02Z</time>
      </trkpt>
      <trkpt lat="46.47739" lon="4.47287">
        <ele>383.179</ele>
        <time>2022-09-25T12:45:08Z</time>
      </trkpt>
      <trkpt lat="46.47739" lon="4.47297">
        <ele>382.979</ele>
        <time>2022-09-25T12:45:13Z</time>
      </trkpt>
      <trkpt lat="46.47739" lon="4.47307">
        <ele>381.579</ele>
        <time>2022-09-25T12:45:19Z</time>
      </trkpt>
      <trkpt lat="46.47739" lon="4.47318">
        <ele>381.479</ele>
        <time>2022-09-25T12:45:24Z</time>
      </trkpt>
      <trkpt lat="46.47739" lon="4.47328">
        <ele>381.979</ele>
        <time>2022-09-25T12:45:30Z</time>
      </trkpt>
      <trkpt lat="46.47742" lon="4.47338">
        <ele>381.179</ele>
        <time>2022-09-25T12:45:36Z</time>
      </trkpt>
      <trkpt lat="46.47748" lon="4.47346">
        <ele>378.479</ele>
        <time>2022-09-25T12:45:42Z</time>
      </trkpt>
      <trkpt lat="46.47755" lon="4.47351">
        <ele>376.079</ele>
        <time>2022-09-25T12:45:48Z</time>
      </trkpt>
      <trkpt lat="46.47761" lon="4.47356">
        <ele>374.879</ele>
        <time>2022-09-25T12:45:54Z</time>
      </trkpt>
      <trkpt lat="46.47765" lon="4.47364">
        <ele>376.879</ele>
        <time>2022-09-25T12:46:00Z</time>
      </trkpt>
      <trkpt lat="46.47768" lon="4.47373">
        <ele>376.579</ele>
        <time>2022-09-25T12:46:05Z</time>
      </trkpt>
      <trkpt lat="46.47769" lon="4.47384">
        <ele>376.879</ele>
        <time>2022-09-25T12:46:11Z</time>
      </trkpt>
      <trkpt lat="46.47769" lon="4.47393">
        <ele>376.979</ele>
        <time>2022-09-25T12:46:16Z</time>
      </trkpt>
      <trkpt lat="46.47767" lon="4.47403">
        <ele>377.379</ele>
        <time>2022-09-25T12:46:22Z</time>
      </trkpt>
      <trkpt lat="46.47764" lon="4.47413">
        <ele>378.279</ele>
        <time>2022-09-25T12:46:28Z</time>
      </trkpt>
      <trkpt lat="46.47761" lon="4.47422">
        <ele>377.479</ele>
        <time>2022-09-25T12:46:33Z</time>
      </trkpt>
      <trkpt lat="46.47759" lon="4.47432">
        <ele>376.079</ele>
        <time>2022-09-25T12:46:39Z</time>
      </trkpt>
      <trkpt lat="46.47755" lon="4.47442">
        <ele>375.779</ele>
        <time>2022-09-25T12:46:44Z</time>
      </trkpt>
      <trkpt lat="46.47752" lon="4.47451">
        <ele>375.479</ele>
        <time>2022-09-25T12:46:49Z</time>
      </trkpt>
      <trkpt lat="46.47749" lon="4.47459">
        <ele>375.179</ele>
        <time>2022-09-25T12:46:54Z</time>
      </trkpt>
      <trkpt lat="46.47746" lon="4.47469">
        <ele>375.479</ele>
        <time>2022-09-25T12:47:00Z</time>
      </trkpt>
      <trkpt lat="46.47742" lon="4.47477">
        <ele>375.479</ele>
        <time>2022-09-25T12:47:06Z</time>
      </trkpt>
      <trkpt lat="46.47737" lon="4.47486">
        <ele>374.079</ele>
        <time>2022-09-25T12:47:13Z</time>
      </trkpt>
      <trkpt lat="46.47733" lon="4.47493">
        <ele>372.879</ele>
        <time>2022-09-25T12:47:18Z</time>
      </trkpt>
      <trkpt lat="46.47728" lon="4.47502">
        <ele>370.479</ele>
        <time>2022-09-25T12:47:25Z</time>
      </trkpt>
      <trkpt lat="46.47723" lon="4.47508">
        <ele>369.179</ele>
        <time>2022-09-25T12:47:31Z</time>
      </trkpt>
      <trkpt lat="46.47718" lon="4.47515">
        <ele>367.979</ele>
        <time>2022-09-25T12:47:36Z</time>
      </trkpt>
      <trkpt lat="46.47712" lon="4.47521">
        <ele>366.879</ele>
        <time>2022-09-25T12:47:42Z</time>
      </trkpt>
      <trkpt lat="46.47705" lon="4.47529">
        <ele>366.379</ele>
        <time>2022-09-25T12:47:48Z</time>
      </trkpt>
      <trkpt lat="46.47699" lon="4.47534">
        <ele>363.479</ele>
        <time>2022-09-25T12:47:54Z</time>
      </trkpt>
      <trkpt lat="46.47694" lon="4.47541">
        <ele>361.479</ele>
        <time>2022-09-25T12:48:00Z</time>
      </trkpt>
      <trkpt lat="46.47689" lon="4.47549">
        <ele>360.179</ele>
        <time>2022-09-25T12:48:06Z</time>
      </trkpt>
      <trkpt lat="46.47684" lon="4.47558">
        <ele>359.879</ele>
        <time>2022-09-25T12:48:12Z</time>
      </trkpt>
      <trkpt lat="46.4768" lon="4.47565">
        <ele>359.279</ele>
        <time>2022-09-25T12:48:17Z</time>
      </trkpt>
      <trkpt lat="46.47676" lon="4.47574">
        <ele>359.479</ele>
        <time>2022-09-25T12:48:23Z</time>
      </trkpt>
      <trkpt lat="46.47672" lon="4.47583">
        <ele>358.179</ele>
        <time>2022-09-25T12:48:29Z</time>
      </trkpt>
      <trkpt lat="46.47669" lon="4.47593">
        <ele>357.279</ele>
        <time>2022-09-25T12:48:35Z</time>
      </trkpt>
      <trkpt lat="46.47665" lon="4.476">
        <ele>355.279</ele>
        <time>2022-09-25T12:48:41Z</time>
      </trkpt>
      <trkpt lat="46.47663" lon="4.47609">
        <ele>353.779</ele>
        <time>2022-09-25T12:48:46Z</time>
      </trkpt>
      <trkpt lat="46.47658" lon="4.47619">
        <ele>352.479</ele>
        <time>2022-09-25T12:48:52Z</time>
      </trkpt>
      <trkpt lat="46.47656" lon="4.47628">
        <ele>351.979</ele>
        <time>2022-09-25T12:48:58Z</time>
      </trkpt>
      <trkpt lat="46.47652" lon="4.47639">
        <ele>351.379</ele>
        <time>2022-09-25T12:49:04Z</time>
      </trkpt>
      <trkpt lat="46.47649" lon="4.47648">
        <ele>349.679</ele>
        <time>2022-09-25T12:49:10Z</time>
      </trkpt>
      <trkpt lat="46.47646" lon="4.47657">
        <ele>348.779</ele>
        <time>2022-09-25T12:49:16Z</time>
      </trkpt>
      <trkpt lat="46.47643" lon="4.47667">
        <ele>347.579</ele>
        <time>2022-09-25T12:49:22Z</time>
      </trkpt>
      <trkpt lat="46.47642" lon="4.47677">
        <ele>346.979</ele>
        <time>2022-09-25T12:49:28Z</time>
      </trkpt>
      <trkpt lat="46.4764" lon="4.47687">
        <ele>346.279</ele>
        <time>2022-09-25T12:49:34Z</time>
      </trkpt>
      <trkpt lat="46.47639" lon="4.47697">
        <ele>345.279</ele>
        <time>2022-09-25T12:49:40Z</time>
      </trkpt>
      <trkpt lat="46.47638" lon="4.47706">
        <ele>342.979</ele>
        <time>2022-09-25T12:49:46Z</time>
      </trkpt>
      <trkpt lat="46.47638" lon="4.47716">
        <ele>340.579</ele>
        <time>2022-09-25T12:49:52Z</time>
      </trkpt>
      <trkpt lat="46.47636" lon="4.47732">
        <ele>340.879</ele>
        <time>2022-09-25T12:50:04Z</time>
      </trkpt>
      <trkpt lat="46.47635" lon="4.4775">
        <ele>343.379</ele>
        <time>2022-09-25T12:50:12Z</time>
      </trkpt>
      <trkpt lat="46.47633" lon="4.47763">
        <ele>344.679</ele>
        <time>2022-09-25T12:50:17Z</time>
      </trkpt>
      <trkpt lat="46.47632" lon="4.47773">
        <ele>345.679</ele>
        <time>2022-09-25T12:50:23Z</time>
      </trkpt>
      <trkpt lat="46.47634" lon="4.47785">
        <ele>345.479</ele>
        <time>2022-09-25T12:50:30Z</time>
      </trkpt>
      <trkpt lat="46.47637" lon="4.47796">
        <ele>344.779</ele>
        <time>2022-09-25T12:50:36Z</time>
      </trkpt>
      <trkpt lat="46.47641" lon="4.47804">
        <ele>344.279</ele>
        <time>2022-09-25T12:50:42Z</time>
      </trkpt>
      <trkpt lat="46.47642" lon="4.47814">
        <ele>344.179</ele>
        <time>2022-09-25T12:50:48Z</time>
      </trkpt>
      <trkpt lat="46.47646" lon="4.47822">
        <ele>341.879</ele>
        <time>2022-09-25T12:50:53Z</time>
      </trkpt>
      <trkpt lat="46.47649" lon="4.47833">
        <ele>340.879</ele>
        <time>2022-09-25T12:51:00Z</time>
      </trkpt>
      <trkpt lat="46.47652" lon="4.47843">
        <ele>339.779</ele>
        <time>2022-09-25T12:51:05Z</time>
      </trkpt>
      <trkpt lat="46.47656" lon="4.47852">
        <ele>337.779</ele>
        <time>2022-09-25T12:51:11Z</time>
      </trkpt>
      <trkpt lat="46.47657" lon="4.47864">
        <ele>337.779</ele>
        <time>2022-09-25T12:51:16Z</time>
      </trkpt>
      <trkpt lat="46.4766" lon="4.47873">
        <ele>337.379</ele>
        <time>2022-09-25T12:51:22Z</time>
      </trkpt>
      <trkpt lat="46.47664" lon="4.47883">
        <ele>334.179</ele>
        <time>2022-09-25T12:51:28Z</time>
      </trkpt>
      <trkpt lat="46.47666" lon="4.47894">
        <ele>333.879</ele>
        <time>2022-09-25T12:51:34Z</time>
      </trkpt>
      <trkpt lat="46.47668" lon="4.47907">
        <ele>332.779</ele>
        <time>2022-09-25T12:51:40Z</time>
      </trkpt>
      <trkpt lat="46.47671" lon="4.47917">
        <ele>330.98</ele>
        <time>2022-09-25T12:51:46Z</time>
      </trkpt>
      <trkpt lat="46.47675" lon="4.47926">
        <ele>329.88</ele>
        <time>2022-09-25T12:51:52Z</time>
      </trkpt>
      <trkpt lat="46.47679" lon="4.47935">
        <ele>330.08</ele>
        <time>2022-09-25T12:51:59Z</time>
      </trkpt>
      <trkpt lat="46.47681" lon="4.47945">
        <ele>331.78</ele>
        <time>2022-09-25T12:52:04Z</time>
      </trkpt>
      <trkpt lat="46.47684" lon="4.47959">
        <ele>331.58</ele>
        <time>2022-09-25T12:52:12Z</time>
      </trkpt>
      <trkpt lat="46.47686" lon="4.47968">
        <ele>330.68</ele>
        <time>2022-09-25T12:52:17Z</time>
      </trkpt>
      <trkpt lat="46.47688" lon="4.47977">
        <ele>329.38</ele>
        <time>2022-09-25T12:52:23Z</time>
      </trkpt>
      <trkpt lat="46.47692" lon="4.47988">
        <ele>328.18</ele>
        <time>2022-09-25T12:52:31Z</time>
      </trkpt>
      <trkpt lat="46.47696" lon="4.47996">
        <ele>328.58</ele>
        <time>2022-09-25T12:52:36Z</time>
      </trkpt>
      <trkpt lat="46.47697" lon="4.48007">
        <ele>328.08</ele>
        <time>2022-09-25T12:52:41Z</time>
      </trkpt>
      <trkpt lat="46.47701" lon="4.48015">
        <ele>327.68</ele>
        <time>2022-09-25T12:52:46Z</time>
      </trkpt>
      <trkpt lat="46.47708" lon="4.48028">
        <ele>327.28</ele>
        <time>2022-09-25T12:52:56Z</time>
      </trkpt>
      <trkpt lat="46.47713" lon="4.48036">
        <ele>327.58</ele>
        <time>2022-09-25T12:53:11Z</time>
      </trkpt>
      <trkpt lat="46.47718" lon="4.48054">
        <ele>327.78</ele>
        <time>2022-09-25T12:53:23Z</time>
      </trkpt>
      <trkpt lat="46.47723" lon="4.48069">
        <ele>328.58</ele>
        <time>2022-09-25T12:56:21Z</time>
      </trkpt>
      <trkpt lat="46.47729" lon="4.48079">
        <ele>327.18</ele>
        <time>2022-09-25T12:57:05Z</time>
      </trkpt>
      <trkpt lat="46.47732" lon="4.48089">
        <ele>327.38</ele>
        <time>2022-09-25T12:57:10Z</time>
      </trkpt>
      <trkpt lat="46.47736" lon="4.48103">
        <ele>327.58</ele>
        <time>2022-09-25T12:57:17Z</time>
      </trkpt>
      <trkpt lat="46.47741" lon="4.4811">
        <ele>326.38</ele>
        <time>2022-09-25T12:57:22Z</time>
      </trkpt>
      <trkpt lat="46.47742" lon="4.48124">
        <ele>326.88</ele>
        <time>2022-09-25T12:57:28Z</time>
      </trkpt>
      <trkpt lat="46.47744" lon="4.48132">
        <ele>326.48</ele>
        <time>2022-09-25T12:57:33Z</time>
      </trkpt>
      <trkpt lat="46.47745" lon="4.48142">
        <ele>326.28</ele>
        <time>2022-09-25T12:57:38Z</time>
      </trkpt>
      <trkpt lat="46.47747" lon="4.48152">
        <ele>327.38</ele>
        <time>2022-09-25T12:57:44Z</time>
      </trkpt>
      <trkpt lat="46.47748" lon="4.48162">
        <ele>328.98</ele>
        <time>2022-09-25T12:57:49Z</time>
      </trkpt>
      <trkpt lat="46.47751" lon="4.48172">
        <ele>331.98</ele>
        <time>2022-09-25T12:57:55Z</time>
      </trkpt>
      <trkpt lat="46.47752" lon="4.48182">
        <ele>331.18</ele>
        <time>2022-09-25T12:58:01Z</time>
      </trkpt>
      <trkpt lat="46.47755" lon="4.48192">
        <ele>330.68</ele>
        <time>2022-09-25T12:58:07Z</time>
      </trkpt>
      <trkpt lat="46.47756" lon="4.48201">
        <ele>329.78</ele>
        <time>2022-09-25T12:58:12Z</time>
      </trkpt>
      <trkpt lat="46.47757" lon="4.48212">
        <ele>328.88</ele>
        <time>2022-09-25T12:58:18Z</time>
      </trkpt>
      <trkpt lat="46.47758" lon="4.48224">
        <ele>326.98</ele>
        <time>2022-09-25T12:58:24Z</time>
      </trkpt>
      <trkpt lat="46.47758" lon="4.48234">
        <ele>326.18</ele>
        <time>2022-09-25T12:58:29Z</time>
      </trkpt>
      <trkpt lat="46.47759" lon="4.48243">
        <ele>325.08</ele>
        <time>2022-09-25T12:58:34Z</time>
      </trkpt>
      <trkpt lat="46.47759" lon="4.48254">
        <ele>324.18</ele>
        <time>2022-09-25T12:58:40Z</time>
      </trkpt>
      <trkpt lat="46.4776" lon="4.48264">
        <ele>322.98</ele>
        <time>2022-09-25T12:58:45Z</time>
      </trkpt>
      <trkpt lat="46.4776" lon="4.48273">
        <ele>322.18</ele>
        <time>2022-09-25T12:58:50Z</time>
      </trkpt>
      <trkpt lat="46.47761" lon="4.48283">
        <ele>320.28</ele>
        <time>2022-09-25T12:58:56Z</time>
      </trkpt>
      <trkpt lat="46.47763" lon="4.48294">
        <ele>318.48</ele>
        <time>2022-09-25T12:59:02Z</time>
      </trkpt>
      <trkpt lat="46.47763" lon="4.48303">
        <ele>316.98</ele>
        <time>2022-09-25T12:59:08Z</time>
      </trkpt>
      <trkpt lat="46.47765" lon="4.48313">
        <ele>315.38</ele>
        <time>2022-09-25T12:59:22Z</time>
      </trkpt>
      <trkpt lat="46.47763" lon="4.48329">
        <ele>314.58</ele>
        <time>2022-09-25T12:59:35Z</time>
      </trkpt>
      <trkpt lat="46.47762" lon="4.48341">
        <ele>314.48</ele>
        <time>2022-09-25T12:59:43Z</time>
      </trkpt>
      <trkpt lat="46.47763" lon="4.48351">
        <ele>315.18</ele>
        <time>2022-09-25T12:59:49Z</time>
      </trkpt>
      <trkpt lat="46.47765" lon="4.4836">
        <ele>315.58</ele>
        <time>2022-09-25T12:59:55Z</time>
      </trkpt>
      <trkpt lat="46.47765" lon="4.4837">
        <ele>314.78</ele>
        <time>2022-09-25T13:00:01Z</time>
      </trkpt>
      <trkpt lat="46.47766" lon="4.48381">
        <ele>314.08</ele>
        <time>2022-09-25T13:00:07Z</time>
      </trkpt>
      <trkpt lat="46.47768" lon="4.4839">
        <ele>313.58</ele>
        <time>2022-09-25T13:00:13Z</time>
      </trkpt>
      <trkpt lat="46.47769" lon="4.484">
        <ele>315.08</ele>
        <time>2022-09-25T13:00:18Z</time>
      </trkpt>
      <trkpt lat="46.4777" lon="4.48412">
        <ele>315.98</ele>
        <time>2022-09-25T13:00:24Z</time>
      </trkpt>
      <trkpt lat="46.47772" lon="4.48422">
        <ele>317.18</ele>
        <time>2022-09-25T13:00:30Z</time>
      </trkpt>
      <trkpt lat="46.47774" lon="4.48432">
        <ele>317.58</ele>
        <time>2022-09-25T13:00:37Z</time>
      </trkpt>
      <trkpt lat="46.47774" lon="4.48443">
        <ele>317.88</ele>
        <time>2022-09-25T13:00:42Z</time>
      </trkpt>
      <trkpt lat="46.47774" lon="4.48453">
        <ele>318.58</ele>
        <time>2022-09-25T13:00:48Z</time>
      </trkpt>
      <trkpt lat="46.47774" lon="4.48463">
        <ele>319.08</ele>
        <time>2022-09-25T13:00:53Z</time>
      </trkpt>
      <trkpt lat="46.47775" lon="4.48473">
        <ele>318.58</ele>
        <time>2022-09-25T13:00:58Z</time>
      </trkpt>
      <trkpt lat="46.47776" lon="4.48485">
        <ele>317.78</ele>
        <time>2022-09-25T13:01:04Z</time>
      </trkpt>
      <trkpt lat="46.47776" lon="4.48495">
        <ele>315.98</ele>
        <time>2022-09-25T13:01:10Z</time>
      </trkpt>
      <trkpt lat="46.47777" lon="4.48506">
        <ele>315.78</ele>
        <time>2022-09-25T13:01:16Z</time>
      </trkpt>
      <trkpt lat="46.47777" lon="4.48517">
        <ele>316.08</ele>
        <time>2022-09-25T13:01:22Z</time>
      </trkpt>
      <trkpt lat="46.47779" lon="4.48528">
        <ele>316.98</ele>
        <time>2022-09-25T13:01:28Z</time>
      </trkpt>
      <trkpt lat="46.4778" lon="4.48539">
        <ele>317.98</ele>
        <time>2022-09-25T13:01:34Z</time>
      </trkpt>
      <trkpt lat="46.47782" lon="4.48552">
        <ele>320.68</ele>
        <time>2022-09-25T13:01:40Z</time>
      </trkpt>
      <trkpt lat="46.47781" lon="4.48562">
        <ele>321.28</ele>
        <time>2022-09-25T13:01:46Z</time>
      </trkpt>
      <trkpt lat="46.47774" lon="4.48571">
        <ele>322.08</ele>
        <time>2022-09-25T13:02:18Z</time>
      </trkpt>
      <trkpt lat="46.47769" lon="4.48577">
        <ele>321.78</ele>
        <time>2022-09-25T13:02:24Z</time>
      </trkpt>
      <trkpt lat="46.47762" lon="4.4858">
        <ele>320.18</ele>
        <time>2022-09-25T13:02:29Z</time>
      </trkpt>
      <trkpt lat="46.47754" lon="4.48582">
        <ele>318.68</ele>
        <time>2022-09-25T13:02:36Z</time>
      </trkpt>
      <trkpt lat="46.47749" lon="4.48588">
        <ele>316.98</ele>
        <time>2022-09-25T13:02:41Z</time>
      </trkpt>
      <trkpt lat="46.47743" lon="4.48593">
        <ele>313.58</ele>
        <time>2022-09-25T13:02:47Z</time>
      </trkpt>
      <trkpt lat="46.47737" lon="4.48599">
        <ele>312.08</ele>
        <time>2022-09-25T13:02:52Z</time>
      </trkpt>
      <trkpt lat="46.4773" lon="4.48603">
        <ele>309.88</ele>
        <time>2022-09-25T13:02:57Z</time>
      </trkpt>
      <trkpt lat="46.47723" lon="4.48604">
        <ele>307.38</ele>
        <time>2022-09-25T13:03:02Z</time>
      </trkpt>
      <trkpt lat="46.47716" lon="4.48604">
        <ele>304.88</ele>
        <time>2022-09-25T13:03:08Z</time>
      </trkpt>
      <trkpt lat="46.47709" lon="4.48601">
        <ele>303.18</ele>
        <time>2022-09-25T13:03:14Z</time>
      </trkpt>
      <trkpt lat="46.477" lon="4.48596">
        <ele>302.58</ele>
        <time>2022-09-25T13:03:20Z</time>
      </trkpt>
      <trkpt lat="46.47693" lon="4.48592">
        <ele>302.28</ele>
        <time>2022-09-25T13:03:25Z</time>
      </trkpt>
      <trkpt lat="46.47687" lon="4.48589">
        <ele>301.08</ele>
        <time>2022-09-25T13:03:31Z</time>
      </trkpt>
      <trkpt lat="46.4768" lon="4.48587">
        <ele>298.78</ele>
        <time>2022-09-25T13:03:37Z</time>
      </trkpt>
      <trkpt lat="46.47672" lon="4.48582">
        <ele>297.58</ele>
        <time>2022-09-25T13:03:44Z</time>
      </trkpt>
      <trkpt lat="46.47666" lon="4.48581">
        <ele>297.08</ele>
        <time>2022-09-25T13:03:49Z</time>
      </trkpt>
      <trkpt lat="46.47659" lon="4.48578">
        <ele>296.58</ele>
        <time>2022-09-25T13:03:55Z</time>
      </trkpt>
      <trkpt lat="46.47651" lon="4.4858">
        <ele>296.48</ele>
        <time>2022-09-25T13:04:01Z</time>
      </trkpt>
      <trkpt lat="46.47644" lon="4.48578">
        <ele>298.48</ele>
        <time>2022-09-25T13:04:06Z</time>
      </trkpt>
      <trkpt lat="46.47634" lon="4.48579">
        <ele>298.78</ele>
        <time>2022-09-25T13:04:12Z</time>
      </trkpt>
      <trkpt lat="46.47628" lon="4.48584">
        <ele>298.68</ele>
        <time>2022-09-25T13:04:17Z</time>
      </trkpt>
      <trkpt lat="46.47621" lon="4.48596">
        <ele>302.58</ele>
        <time>2022-09-25T13:04:31Z</time>
      </trkpt>
      <trkpt lat="46.47621" lon="4.48608">
        <ele>306.18</ele>
        <time>2022-09-25T13:04:37Z</time>
      </trkpt>
      <trkpt lat="46.47622" lon="4.48619">
        <ele>310.18</ele>
        <time>2022-09-25T13:04:43Z</time>
      </trkpt>
      <trkpt lat="46.47625" lon="4.48629">
        <ele>314.08</ele>
        <time>2022-09-25T13:04:49Z</time>
      </trkpt>
      <trkpt lat="46.47627" lon="4.48642">
        <ele>318.18</ele>
        <time>2022-09-25T13:04:58Z</time>
      </trkpt>
      <trkpt lat="46.47629" lon="4.48656">
        <ele>322.78</ele>
        <time>2022-09-25T13:05:07Z</time>
      </trkpt>
      <trkpt lat="46.47627" lon="4.48666">
        <ele>323.88</ele>
        <time>2022-09-25T13:05:13Z</time>
      </trkpt>
      <trkpt lat="46.47628" lon="4.48679">
        <ele>322.58</ele>
        <time>2022-09-25T13:05:21Z</time>
      </trkpt>
      <trkpt lat="46.47627" lon="4.48699">
        <ele>320.58</ele>
        <time>2022-09-25T13:05:33Z</time>
      </trkpt>
      <trkpt lat="46.47626" lon="4.48708">
        <ele>319.68</ele>
        <time>2022-09-25T13:05:38Z</time>
      </trkpt>
      <trkpt lat="46.47624" lon="4.4872">
        <ele>318.38</ele>
        <time>2022-09-25T13:05:44Z</time>
      </trkpt>
      <trkpt lat="46.47623" lon="4.48733">
        <ele>317.78</ele>
        <time>2022-09-25T13:05:51Z</time>
      </trkpt>
      <trkpt lat="46.47613" lon="4.48748">
        <ele>316.58</ele>
        <time>2022-09-25T13:06:03Z</time>
      </trkpt>
      <trkpt lat="46.47607" lon="4.48753">
        <ele>315.88</ele>
        <time>2022-09-25T13:06:09Z</time>
      </trkpt>
      <trkpt lat="46.47601" lon="4.48756">
        <ele>314.78</ele>
        <time>2022-09-25T13:06:14Z</time>
      </trkpt>
      <trkpt lat="46.47594" lon="4.48759">
        <ele>314.18</ele>
        <time>2022-09-25T13:06:19Z</time>
      </trkpt>
      <trkpt lat="46.47587" lon="4.48761">
        <ele>313.88</ele>
        <time>2022-09-25T13:06:24Z</time>
      </trkpt>
      <trkpt lat="46.47575" lon="4.48765">
        <ele>314.18</ele>
        <time>2022-09-25T13:06:34Z</time>
      </trkpt>
      <trkpt lat="46.4757" lon="4.48771">
        <ele>317.08</ele>
        <time>2022-09-25T13:06:39Z</time>
      </trkpt>
      <trkpt lat="46.47567" lon="4.48781">
        <ele>320.38</ele>
        <time>2022-09-25T13:06:44Z</time>
      </trkpt>
      <trkpt lat="46.47568" lon="4.48792">
        <ele>322.28</ele>
        <time>2022-09-25T13:06:49Z</time>
      </trkpt>
      <trkpt lat="46.47569" lon="4.48802">
        <ele>323.98</ele>
        <time>2022-09-25T13:06:54Z</time>
      </trkpt>
      <trkpt lat="46.47575" lon="4.48817">
        <ele>325.68</ele>
        <time>2022-09-25T13:07:04Z</time>
      </trkpt>
      <trkpt lat="46.47578" lon="4.48826">
        <ele>326.48</ele>
        <time>2022-09-25T13:07:09Z</time>
      </trkpt>
      <trkpt lat="46.4758" lon="4.48835">
        <ele>327.98</ele>
        <time>2022-09-25T13:07:14Z</time>
      </trkpt>
      <trkpt lat="46.47582" lon="4.48849">
        <ele>329.78</ele>
        <time>2022-09-25T13:07:22Z</time>
      </trkpt>
      <trkpt lat="46.4758" lon="4.48858">
        <ele>329.88</ele>
        <time>2022-09-25T13:07:29Z</time>
      </trkpt>
      <trkpt lat="46.47578" lon="4.48872">
        <ele>330.78</ele>
        <time>2022-09-25T13:07:38Z</time>
      </trkpt>
      <trkpt lat="46.47576" lon="4.48882">
        <ele>330.28</ele>
        <time>2022-09-25T13:07:44Z</time>
      </trkpt>
      <trkpt lat="46.47573" lon="4.48895">
        <ele>329.58</ele>
        <time>2022-09-25T13:07:54Z</time>
      </trkpt>
      <trkpt lat="46.47569" lon="4.48913">
        <ele>330.08</ele>
        <time>2022-09-25T13:08:05Z</time>
      </trkpt>
      <trkpt lat="46.47566" lon="4.48926">
        <ele>328.78</ele>
        <time>2022-09-25T13:08:12Z</time>
      </trkpt>
      <trkpt lat="46.47562" lon="4.48938">
        <ele>327.68</ele>
        <time>2022-09-25T13:08:19Z</time>
      </trkpt>
      <trkpt lat="46.47559" lon="4.48947">
        <ele>328.18</ele>
        <time>2022-09-25T13:08:24Z</time>
      </trkpt>
      <trkpt lat="46.47553" lon="4.48958">
        <ele>329.78</ele>
        <time>2022-09-25T13:08:33Z</time>
      </trkpt>
      <trkpt lat="46.47553" lon="4.48969">
        <ele>331.38</ele>
        <time>2022-09-25T13:08:39Z</time>
      </trkpt>
      <trkpt lat="46.47548" lon="4.48986">
        <ele>333.08</ele>
        <time>2022-09-25T13:08:51Z</time>
      </trkpt>
      <trkpt lat="46.47546" lon="4.48996">
        <ele>334.98</ele>
        <time>2022-09-25T13:08:56Z</time>
      </trkpt>
      <trkpt lat="46.47545" lon="4.49005">
        <ele>335.68</ele>
        <time>2022-09-25T13:09:01Z</time>
      </trkpt>
      <trkpt lat="46.47541" lon="4.49015">
        <ele>336.38</ele>
        <time>2022-09-25T13:09:06Z</time>
      </trkpt>
      <trkpt lat="46.47538" lon="4.49026">
        <ele>336.48</ele>
        <time>2022-09-25T13:09:12Z</time>
      </trkpt>
      <trkpt lat="46.47533" lon="4.49036">
        <ele>335.88</ele>
        <time>2022-09-25T13:09:17Z</time>
      </trkpt>
      <trkpt lat="46.47529" lon="4.49043">
        <ele>336.98</ele>
        <time>2022-09-25T13:09:22Z</time>
      </trkpt>
      <trkpt lat="46.47524" lon="4.49053">
        <ele>336.98</ele>
        <time>2022-09-25T13:09:28Z</time>
      </trkpt>
      <trkpt lat="46.4752" lon="4.49061">
        <ele>335.68</ele>
        <time>2022-09-25T13:09:33Z</time>
      </trkpt>
      <trkpt lat="46.47516" lon="4.4907">
        <ele>333.68</ele>
        <time>2022-09-25T13:09:39Z</time>
      </trkpt>
      <trkpt lat="46.47512" lon="4.49077">
        <ele>330.98</ele>
        <time>2022-09-25T13:09:45Z</time>
      </trkpt>
      <trkpt lat="46.47507" lon="4.49089">
        <ele>329.28</ele>
        <time>2022-09-25T13:09:53Z</time>
      </trkpt>
      <trkpt lat="46.47502" lon="4.49096">
        <ele>327.08</ele>
        <time>2022-09-25T13:09:59Z</time>
      </trkpt>
      <trkpt lat="46.47491" lon="4.49104">
        <ele>322.28</ele>
        <time>2022-09-25T13:10:09Z</time>
      </trkpt>
      <trkpt lat="46.47485" lon="4.49108">
        <ele>318.78</ele>
        <time>2022-09-25T13:10:15Z</time>
      </trkpt>
      <trkpt lat="46.47478" lon="4.49112">
        <ele>315.78</ele>
        <time>2022-09-25T13:10:22Z</time>
      </trkpt>
      <trkpt lat="46.47468" lon="4.49116">
        <ele>312.08</ele>
        <time>2022-09-25T13:10:32Z</time>
      </trkpt>
      <trkpt lat="46.47462" lon="4.49126">
        <ele>309.28</ele>
        <time>2022-09-25T13:10:39Z</time>
      </trkpt>
      <trkpt lat="46.47457" lon="4.49133">
        <ele>309.08</ele>
        <time>2022-09-25T13:10:44Z</time>
      </trkpt>
      <trkpt lat="46.47449" lon="4.49146">
        <ele>309.38</ele>
        <time>2022-09-25T13:10:54Z</time>
      </trkpt>
      <trkpt lat="46.47443" lon="4.49154">
        <ele>309.88</ele>
        <time>2022-09-25T13:11:00Z</time>
      </trkpt>
      <trkpt lat="46.47438" lon="4.49163">
        <ele>310.98</ele>
        <time>2022-09-25T13:11:06Z</time>
      </trkpt>
      <trkpt lat="46.47433" lon="4.4917">
        <ele>312.08</ele>
        <time>2022-09-25T13:11:12Z</time>
      </trkpt>
      <trkpt lat="46.47429" lon="4.49178">
        <ele>313.48</ele>
        <time>2022-09-25T13:11:17Z</time>
      </trkpt>
      <trkpt lat="46.47424" lon="4.49187">
        <ele>312.78</ele>
        <time>2022-09-25T13:11:23Z</time>
      </trkpt>
      <trkpt lat="46.47421" lon="4.49196">
        <ele>314.38</ele>
        <time>2022-09-25T13:11:29Z</time>
      </trkpt>
      <trkpt lat="46.47416" lon="4.49206">
        <ele>318.38</ele>
        <time>2022-09-25T13:11:36Z</time>
      </trkpt>
      <trkpt lat="46.47411" lon="4.49214">
        <ele>318.18</ele>
        <time>2022-09-25T13:11:42Z</time>
      </trkpt>
      <trkpt lat="46.47406" lon="4.49223">
        <ele>319.08</ele>
        <time>2022-09-25T13:11:48Z</time>
      </trkpt>
      <trkpt lat="46.47402" lon="4.4923">
        <ele>320.68</ele>
        <time>2022-09-25T13:11:53Z</time>
      </trkpt>
      <trkpt lat="46.47395" lon="4.4924">
        <ele>322.48</ele>
        <time>2022-09-25T13:12:01Z</time>
      </trkpt>
      <trkpt lat="46.4739" lon="4.49245">
        <ele>323.28</ele>
        <time>2022-09-25T13:12:06Z</time>
      </trkpt>
      <trkpt lat="46.47384" lon="4.49251">
        <ele>326.88</ele>
        <time>2022-09-25T13:12:12Z</time>
      </trkpt>
      <trkpt lat="46.47375" lon="4.49261">
        <ele>329.48</ele>
        <time>2022-09-25T13:12:21Z</time>
      </trkpt>
      <trkpt lat="46.4737" lon="4.49271">
        <ele>328.98</ele>
        <time>2022-09-25T13:12:29Z</time>
      </trkpt>
      <trkpt lat="46.47366" lon="4.4928">
        <ele>327.58</ele>
        <time>2022-09-25T13:12:35Z</time>
      </trkpt>
      <trkpt lat="46.47354" lon="4.4929">
        <ele>324.38</ele>
        <time>2022-09-25T13:12:47Z</time>
      </trkpt>
      <trkpt lat="46.47348" lon="4.49296">
        <ele>323.18</ele>
        <time>2022-09-25T13:12:53Z</time>
      </trkpt>
      <trkpt lat="46.47342" lon="4.49301">
        <ele>322.18</ele>
        <time>2022-09-25T13:12:58Z</time>
      </trkpt>
      <trkpt lat="46.47337" lon="4.49309">
        <ele>319.98</ele>
        <time>2022-09-25T13:13:05Z</time>
      </trkpt>
      <trkpt lat="46.4733" lon="4.49313">
        <ele>319.88</ele>
        <time>2022-09-25T13:13:10Z</time>
      </trkpt>
      <trkpt lat="46.47326" lon="4.4932">
        <ele>318.78</ele>
        <time>2022-09-25T13:13:16Z</time>
      </trkpt>
      <trkpt lat="46.47323" lon="4.4933">
        <ele>320.48</ele>
        <time>2022-09-25T13:13:56Z</time>
      </trkpt>
      <trkpt lat="46.47317" lon="4.49335">
        <ele>320.48</ele>
        <time>2022-09-25T13:14:02Z</time>
      </trkpt>
      <trkpt lat="46.47309" lon="4.49339">
        <ele>319.48</ele>
        <time>2022-09-25T13:14:09Z</time>
      </trkpt>
      <trkpt lat="46.47294" lon="4.49347">
        <ele>317.48</ele>
        <time>2022-09-25T13:14:23Z</time>
      </trkpt>
      <trkpt lat="46.47287" lon="4.49349">
        <ele>315.78</ele>
        <time>2022-09-25T13:14:29Z</time>
      </trkpt>
      <trkpt lat="46.47276" lon="4.49351">
        <ele>311.98</ele>
        <time>2022-09-25T13:14:41Z</time>
      </trkpt>
      <trkpt lat="46.47268" lon="4.49351">
        <ele>312.379</ele>
        <time>2022-09-25T13:14:46Z</time>
      </trkpt>
      <trkpt lat="46.4726" lon="4.4935">
        <ele>312.079</ele>
        <time>2022-09-25T13:14:52Z</time>
      </trkpt>
      <trkpt lat="46.47254" lon="4.49349">
        <ele>310.579</ele>
        <time>2022-09-25T13:14:58Z</time>
      </trkpt>
      <trkpt lat="46.47242" lon="4.49349">
        <ele>312.679</ele>
        <time>2022-09-25T13:15:09Z</time>
      </trkpt>
      <trkpt lat="46.47234" lon="4.49352">
        <ele>314.779</ele>
        <time>2022-09-25T13:15:14Z</time>
      </trkpt>
      <trkpt lat="46.47227" lon="4.49355">
        <ele>316.179</ele>
        <time>2022-09-25T13:15:20Z</time>
      </trkpt>
      <trkpt lat="46.47218" lon="4.49356">
        <ele>317.779</ele>
        <time>2022-09-25T13:15:25Z</time>
      </trkpt>
      <trkpt lat="46.47209" lon="4.49367">
        <ele>319.379</ele>
        <time>2022-09-25T13:15:53Z</time>
      </trkpt>
      <trkpt lat="46.47203" lon="4.49384">
        <ele>319.579</ele>
        <time>2022-09-25T13:16:05Z</time>
      </trkpt>
      <trkpt lat="46.47198" lon="4.49399">
        <ele>321.779</ele>
        <time>2022-09-25T13:16:47Z</time>
      </trkpt>
      <trkpt lat="46.47195" lon="4.49418">
        <ele>319.679</ele>
        <time>2022-09-25T13:16:59Z</time>
      </trkpt>
      <trkpt lat="46.47188" lon="4.49432">
        <ele>317.779</ele>
        <time>2022-09-25T13:17:10Z</time>
      </trkpt>
      <trkpt lat="46.4718" lon="4.49439">
        <ele>317.779</ele>
        <time>2022-09-25T13:17:16Z</time>
      </trkpt>
      <trkpt lat="46.47172" lon="4.49447">
        <ele>317.679</ele>
        <time>2022-09-25T13:17:26Z</time>
      </trkpt>
      <trkpt lat="46.47162" lon="4.49458">
        <ele>318.279</ele>
        <time>2022-09-25T13:17:40Z</time>
      </trkpt>
      <trkpt lat="46.47155" lon="4.49473">
        <ele>319.279</ele>
        <time>2022-09-25T13:17:53Z</time>
      </trkpt>
      <trkpt lat="46.47144" lon="4.49483">
        <ele>322.679</ele>
        <time>2022-09-25T13:18:05Z</time>
      </trkpt>
      <trkpt lat="46.47134" lon="4.4949">
        <ele>325.079</ele>
        <time>2022-09-25T13:18:20Z</time>
      </trkpt>
      <trkpt lat="46.47129" lon="4.49495">
        <ele>326.679</ele>
        <time>2022-09-25T13:18:27Z</time>
      </trkpt>
      <trkpt lat="46.47122" lon="4.49504">
        <ele>328.079</ele>
        <time>2022-09-25T13:18:36Z</time>
      </trkpt>
      <trkpt lat="46.47115" lon="4.49518">
        <ele>328.779</ele>
        <time>2022-09-25T13:18:48Z</time>
      </trkpt>
      <trkpt lat="46.47107" lon="4.49533">
        <ele>331.579</ele>
        <time>2022-09-25T13:19:00Z</time>
      </trkpt>
      <trkpt lat="46.471" lon="4.49539">
        <ele>329.679</ele>
        <time>2022-09-25T13:19:06Z</time>
      </trkpt>
      <trkpt lat="46.47091" lon="4.49547">
        <ele>326.779</ele>
        <time>2022-09-25T13:19:15Z</time>
      </trkpt>
      <trkpt lat="46.47084" lon="4.49554">
        <ele>325.079</ele>
        <time>2022-09-25T13:19:22Z</time>
      </trkpt>
      <trkpt lat="46.47077" lon="4.4956">
        <ele>323.979</ele>
        <time>2022-09-25T13:19:28Z</time>
      </trkpt>
      <trkpt lat="46.47067" lon="4.49573">
        <ele>321.179</ele>
        <time>2022-09-25T13:19:40Z</time>
      </trkpt>
      <trkpt lat="46.47062" lon="4.49591">
        <ele>318.979</ele>
        <time>2022-09-25T13:19:53Z</time>
      </trkpt>
      <trkpt lat="46.47058" lon="4.49611">
        <ele>319.579</ele>
        <time>2022-09-25T13:20:04Z</time>
      </trkpt>
      <trkpt lat="46.47063" lon="4.49628">
        <ele>318.279</ele>
        <time>2022-09-25T13:20:17Z</time>
      </trkpt>
      <trkpt lat="46.47065" lon="4.49644">
        <ele>318.379</ele>
        <time>2022-09-25T13:20:27Z</time>
      </trkpt>
      <trkpt lat="46.47066" lon="4.49662">
        <ele>319.879</ele>
        <time>2022-09-25T13:20:36Z</time>
      </trkpt>
      <trkpt lat="46.47067" lon="4.49673">
        <ele>320.579</ele>
        <time>2022-09-25T13:20:42Z</time>
      </trkpt>
      <trkpt lat="46.47069" lon="4.49687">
        <ele>320.579</ele>
        <time>2022-09-25T13:20:50Z</time>
      </trkpt>
      <trkpt lat="46.47068" lon="4.49704">
        <ele>320.379</ele>
        <time>2022-09-25T13:21:03Z</time>
      </trkpt>
      <trkpt lat="46.47067" lon="4.49725">
        <ele>320.479</ele>
        <time>2022-09-25T13:21:13Z</time>
      </trkpt>
      <trkpt lat="46.47065" lon="4.49744">
        <ele>321.279</ele>
        <time>2022-09-25T13:21:25Z</time>
      </trkpt>
      <trkpt lat="46.47061" lon="4.49762">
        <ele>322.279</ele>
        <time>2022-09-25T13:21:37Z</time>
      </trkpt>
      <trkpt lat="46.47058" lon="4.49776">
        <ele>323.079</ele>
        <time>2022-09-25T13:21:45Z</time>
      </trkpt>
      <trkpt lat="46.47052" lon="4.49783">
        <ele>324.279</ele>
        <time>2022-09-25T13:21:52Z</time>
      </trkpt>
      <trkpt lat="46.47046" lon="4.49788">
        <ele>325.179</ele>
        <time>2022-09-25T13:21:59Z</time>
      </trkpt>
      <trkpt lat="46.47038" lon="4.49794">
        <ele>325.479</ele>
        <time>2022-09-25T13:22:08Z</time>
      </trkpt>
      <trkpt lat="46.47031" lon="4.49798">
        <ele>325.779</ele>
        <time>2022-09-25T13:22:14Z</time>
      </trkpt>
      <trkpt lat="46.47022" lon="4.49804">
        <ele>328.079</ele>
        <time>2022-09-25T13:22:24Z</time>
      </trkpt>
      <trkpt lat="46.4701" lon="4.4981">
        <ele>327.079</ele>
        <time>2022-09-25T13:22:38Z</time>
      </trkpt>
      <trkpt lat="46.47001" lon="4.49814">
        <ele>327.179</ele>
        <time>2022-09-25T13:22:45Z</time>
      </trkpt>
      <trkpt lat="46.4699" lon="4.49822">
        <ele>326.079</ele>
        <time>2022-09-25T13:23:00Z</time>
      </trkpt>
      <trkpt lat="46.46979" lon="4.49831">
        <ele>326.079</ele>
        <time>2022-09-25T13:23:13Z</time>
      </trkpt>
      <trkpt lat="46.46968" lon="4.49835">
        <ele>326.179</ele>
        <time>2022-09-25T13:23:26Z</time>
      </trkpt>
      <trkpt lat="46.46958" lon="4.49843">
        <ele>327.379</ele>
        <time>2022-09-25T13:23:40Z</time>
      </trkpt>
      <trkpt lat="46.46951" lon="4.49854">
        <ele>328.879</ele>
        <time>2022-09-25T13:23:54Z</time>
      </trkpt>
      <trkpt lat="46.46939" lon="4.49852">
        <ele>329.679</ele>
        <time>2022-09-25T13:24:08Z</time>
      </trkpt>
      <trkpt lat="46.46929" lon="4.49845">
        <ele>329.079</ele>
        <time>2022-09-25T13:24:23Z</time>
      </trkpt>
      <trkpt lat="46.46921" lon="4.49836">
        <ele>329.279</ele>
        <time>2022-09-25T13:24:40Z</time>
      </trkpt>
      <trkpt lat="46.46911" lon="4.49826">
        <ele>330.879</ele>
        <time>2022-09-25T13:24:56Z</time>
      </trkpt>
      <trkpt lat="46.46899" lon="4.49826">
        <ele>332.979</ele>
        <time>2022-09-25T13:25:18Z</time>
      </trkpt>
      <trkpt lat="46.46889" lon="4.49817">
        <ele>333.379</ele>
        <time>2022-09-25T13:25:38Z</time>
      </trkpt>
      <trkpt lat="46.46877" lon="4.49814">
        <ele>333.279</ele>
        <time>2022-09-25T13:26:02Z</time>
      </trkpt>
      <trkpt lat="46.46867" lon="4.49807">
        <ele>333.079</ele>
        <time>2022-09-25T13:26:20Z</time>
      </trkpt>
      <trkpt lat="46.46857" lon="4.49805">
        <ele>332.679</ele>
        <time>2022-09-25T13:26:46Z</time>
      </trkpt>
      <trkpt lat="46.46846" lon="4.49801">
        <ele>331.979</ele>
        <time>2022-09-25T13:27:05Z</time>
      </trkpt>
      <trkpt lat="46.46835" lon="4.49797">
        <ele>331.279</ele>
        <time>2022-09-25T13:27:23Z</time>
      </trkpt>
      <trkpt lat="46.46823" lon="4.49797">
        <ele>330.679</ele>
        <time>2022-09-25T13:27:36Z</time>
      </trkpt>
      <trkpt lat="46.46809" lon="4.49797">
        <ele>330.579</ele>
        <time>2022-09-25T13:27:49Z</time>
      </trkpt>
      <trkpt lat="46.46802" lon="4.49809">
        <ele>332.079</ele>
        <time>2022-09-25T13:28:04Z</time>
      </trkpt>
      <trkpt lat="46.46796" lon="4.49823">
        <ele>334.879</ele>
        <time>2022-09-25T13:28:23Z</time>
      </trkpt>
      <trkpt lat="46.46791" lon="4.49838">
        <ele>339.379</ele>
        <time>2022-09-25T13:28:39Z</time>
      </trkpt>
      <trkpt lat="46.46785" lon="4.49853">
        <ele>347.579</ele>
        <time>2022-09-25T13:28:51Z</time>
      </trkpt>
      <trkpt lat="46.46774" lon="4.49862">
        <ele>360.179</ele>
        <time>2022-09-25T13:29:05Z</time>
      </trkpt>
      <trkpt lat="46.46764" lon="4.4987">
        <ele>370.778</ele>
        <time>2022-09-25T13:29:21Z</time>
      </trkpt>
      <trkpt lat="46.46752" lon="4.49873">
        <ele>378.478</ele>
        <time>2022-09-25T13:29:36Z</time>
      </trkpt>
      <trkpt lat="46.46745" lon="4.49876">
        <ele>381.578</ele>
        <time>2022-09-25T13:29:43Z</time>
      </trkpt>
      <trkpt lat="46.46733" lon="4.49875">
        <ele>382.578</ele>
        <time>2022-09-25T13:30:02Z</time>
      </trkpt>
      <trkpt lat="46.46723" lon="4.49879">
        <ele>383.178</ele>
        <time>2022-09-25T13:30:48Z</time>
      </trkpt>
      <trkpt lat="46.4672" lon="4.4987">
        <ele>382.778</ele>
        <time>2022-09-25T13:31:03Z</time>
      </trkpt>
      <trkpt lat="46.46722" lon="4.49891">
        <ele>385.478</ele>
        <time>2022-09-25T13:33:40Z</time>
      </trkpt>
      <trkpt lat="46.46722" lon="4.49905">
        <ele>384.978</ele>
        <time>2022-09-25T13:34:27Z</time>
      </trkpt>
      <trkpt lat="46.46717" lon="4.49923">
        <ele>385.478</ele>
        <time>2022-09-25T13:34:38Z</time>
      </trkpt>
      <trkpt lat="46.46714" lon="4.49934">
        <ele>385.578</ele>
        <time>2022-09-25T13:34:44Z</time>
      </trkpt>
      <trkpt lat="46.46709" lon="4.49943">
        <ele>386.578</ele>
        <time>2022-09-25T13:34:50Z</time>
      </trkpt>
      <trkpt lat="46.46703" lon="4.49949">
        <ele>388.078</ele>
        <time>2022-09-25T13:34:58Z</time>
      </trkpt>
      <trkpt lat="46.46691" lon="4.49942">
        <ele>387.078</ele>
        <time>2022-09-25T13:35:58Z</time>
      </trkpt>
      <trkpt lat="46.46685" lon="4.49938">
        <ele>385.478</ele>
        <time>2022-09-25T13:36:07Z</time>
      </trkpt>
      <trkpt lat="46.46678" lon="4.49936">
        <ele>383.678</ele>
        <time>2022-09-25T13:36:13Z</time>
      </trkpt>
      <trkpt lat="46.46671" lon="4.49933">
        <ele>383.178</ele>
        <time>2022-09-25T13:36:19Z</time>
      </trkpt>
      <trkpt lat="46.46665" lon="4.49929">
        <ele>381.778</ele>
        <time>2022-09-25T13:36:25Z</time>
      </trkpt>
      <trkpt lat="46.46656" lon="4.49928">
        <ele>380.478</ele>
        <time>2022-09-25T13:36:30Z</time>
      </trkpt>
      <trkpt lat="46.46649" lon="4.49927">
        <ele>379.178</ele>
        <time>2022-09-25T13:36:36Z</time>
      </trkpt>
      <trkpt lat="46.46642" lon="4.49927">
        <ele>378.478</ele>
        <time>2022-09-25T13:36:41Z</time>
      </trkpt>
      <trkpt lat="46.46634" lon="4.49926">
        <ele>377.278</ele>
        <time>2022-09-25T13:36:47Z</time>
      </trkpt>
      <trkpt lat="46.46628" lon="4.49925">
        <ele>375.878</ele>
        <time>2022-09-25T13:36:52Z</time>
      </trkpt>
      <trkpt lat="46.4662" lon="4.49927">
        <ele>376.078</ele>
        <time>2022-09-25T13:37:00Z</time>
      </trkpt>
      <trkpt lat="46.46613" lon="4.49929">
        <ele>375.978</ele>
        <time>2022-09-25T13:37:05Z</time>
      </trkpt>
      <trkpt lat="46.46606" lon="4.49929">
        <ele>374.778</ele>
        <time>2022-09-25T13:37:11Z</time>
      </trkpt>
      <trkpt lat="46.466" lon="4.4993">
        <ele>373.778</ele>
        <time>2022-09-25T13:37:16Z</time>
      </trkpt>
      <trkpt lat="46.46591" lon="4.4993">
        <ele>369.978</ele>
        <time>2022-09-25T13:37:26Z</time>
      </trkpt>
      <trkpt lat="46.46581" lon="4.49932">
        <ele>367.778</ele>
        <time>2022-09-25T13:37:32Z</time>
      </trkpt>
      <trkpt lat="46.46574" lon="4.49933">
        <ele>365.478</ele>
        <time>2022-09-25T13:37:38Z</time>
      </trkpt>
      <trkpt lat="46.46565" lon="4.49937">
        <ele>364.678</ele>
        <time>2022-09-25T13:37:44Z</time>
      </trkpt>
      <trkpt lat="46.46558" lon="4.49941">
        <ele>363.978</ele>
        <time>2022-09-25T13:37:51Z</time>
      </trkpt>
      <trkpt lat="46.46551" lon="4.49944">
        <ele>362.678</ele>
        <time>2022-09-25T13:37:56Z</time>
      </trkpt>
      <trkpt lat="46.46545" lon="4.49948">
        <ele>360.478</ele>
        <time>2022-09-25T13:38:02Z</time>
      </trkpt>
      <trkpt lat="46.46537" lon="4.49954">
        <ele>358.478</ele>
        <time>2022-09-25T13:38:07Z</time>
      </trkpt>
      <trkpt lat="46.46531" lon="4.49959">
        <ele>356.678</ele>
        <time>2022-09-25T13:38:13Z</time>
      </trkpt>
      <trkpt lat="46.46526" lon="4.49966">
        <ele>355.578</ele>
        <time>2022-09-25T13:38:18Z</time>
      </trkpt>
      <trkpt lat="46.4652" lon="4.49975">
        <ele>353.378</ele>
        <time>2022-09-25T13:38:25Z</time>
      </trkpt>
      <trkpt lat="46.46516" lon="4.49984">
        <ele>352.678</ele>
        <time>2022-09-25T13:38:31Z</time>
      </trkpt>
      <trkpt lat="46.46511" lon="4.49992">
        <ele>351.878</ele>
        <time>2022-09-25T13:38:37Z</time>
      </trkpt>
      <trkpt lat="46.46506" lon="4.50002">
        <ele>351.078</ele>
        <time>2022-09-25T13:38:42Z</time>
      </trkpt>
      <trkpt lat="46.46501" lon="4.50009">
        <ele>350.778</ele>
        <time>2022-09-25T13:38:48Z</time>
      </trkpt>
      <trkpt lat="46.46497" lon="4.50018">
        <ele>350.578</ele>
        <time>2022-09-25T13:38:53Z</time>
      </trkpt>
      <trkpt lat="46.46493" lon="4.50028">
        <ele>349.478</ele>
        <time>2022-09-25T13:39:00Z</time>
      </trkpt>
      <trkpt lat="46.46489" lon="4.50037">
        <ele>349.478</ele>
        <time>2022-09-25T13:39:05Z</time>
      </trkpt>
      <trkpt lat="46.46487" lon="4.50046">
        <ele>349.478</ele>
        <time>2022-09-25T13:39:12Z</time>
      </trkpt>
      <trkpt lat="46.46485" lon="4.50056">
        <ele>349.378</ele>
        <time>2022-09-25T13:39:18Z</time>
      </trkpt>
      <trkpt lat="46.46482" lon="4.50065">
        <ele>349.578</ele>
        <time>2022-09-25T13:39:24Z</time>
      </trkpt>
      <trkpt lat="46.46472" lon="4.50069">
        <ele>350.178</ele>
        <time>2022-09-25T13:39:52Z</time>
      </trkpt>
      <trkpt lat="46.46464" lon="4.50066">
        <ele>350.178</ele>
        <time>2022-09-25T13:39:58Z</time>
      </trkpt>
      <trkpt lat="46.46455" lon="4.50063">
        <ele>349.278</ele>
        <time>2022-09-25T13:40:04Z</time>
      </trkpt>
      <trkpt lat="46.46448" lon="4.50059">
        <ele>347.878</ele>
        <time>2022-09-25T13:40:09Z</time>
      </trkpt>
      <trkpt lat="46.46441" lon="4.50055">
        <ele>346.178</ele>
        <time>2022-09-25T13:40:15Z</time>
      </trkpt>
      <trkpt lat="46.46435" lon="4.5005">
        <ele>345.678</ele>
        <time>2022-09-25T13:40:20Z</time>
      </trkpt>
      <trkpt lat="46.46429" lon="4.50046">
        <ele>346.978</ele>
        <time>2022-09-25T13:40:26Z</time>
      </trkpt>
      <trkpt lat="46.46421" lon="4.50044">
        <ele>346.678</ele>
        <time>2022-09-25T13:40:35Z</time>
      </trkpt>
      <trkpt lat="46.46413" lon="4.50042">
        <ele>346.978</ele>
        <time>2022-09-25T13:40:41Z</time>
      </trkpt>
      <trkpt lat="46.46406" lon="4.50039">
        <ele>346.578</ele>
        <time>2022-09-25T13:40:46Z</time>
      </trkpt>
      <trkpt lat="46.46399" lon="4.50042">
        <ele>346.078</ele>
        <time>2022-09-25T13:40:52Z</time>
      </trkpt>
      <trkpt lat="46.46396" lon="4.50051">
        <ele>345.578</ele>
        <time>2022-09-25T13:40:58Z</time>
      </trkpt>
      <trkpt lat="46.46392" lon="4.50058">
        <ele>345.478</ele>
        <time>2022-09-25T13:41:05Z</time>
      </trkpt>
      <trkpt lat="46.46388" lon="4.50068">
        <ele>345.478</ele>
        <time>2022-09-25T13:41:11Z</time>
      </trkpt>
      <trkpt lat="46.46384" lon="4.50075">
        <ele>345.078</ele>
        <time>2022-09-25T13:41:16Z</time>
      </trkpt>
      <trkpt lat="46.4638" lon="4.50084">
        <ele>345.478</ele>
        <time>2022-09-25T13:41:21Z</time>
      </trkpt>
      <trkpt lat="46.46377" lon="4.50093">
        <ele>345.978</ele>
        <time>2022-09-25T13:41:27Z</time>
      </trkpt>
      <trkpt lat="46.46373" lon="4.50103">
        <ele>346.978</ele>
        <time>2022-09-25T13:41:33Z</time>
      </trkpt>
      <trkpt lat="46.46371" lon="4.50112">
        <ele>347.778</ele>
        <time>2022-09-25T13:41:39Z</time>
      </trkpt>
      <trkpt lat="46.46368" lon="4.50121">
        <ele>348.678</ele>
        <time>2022-09-25T13:41:44Z</time>
      </trkpt>
      <trkpt lat="46.46364" lon="4.50135">
        <ele>348.978</ele>
        <time>2022-09-25T13:42:03Z</time>
      </trkpt>
      <trkpt lat="46.46363" lon="4.5015">
        <ele>350.478</ele>
        <time>2022-09-25T13:42:30Z</time>
      </trkpt>
      <trkpt lat="46.46365" lon="4.50166">
        <ele>351.678</ele>
        <time>2022-09-25T13:42:46Z</time>
      </trkpt>
      <trkpt lat="46.46363" lon="4.50182">
        <ele>353.578</ele>
        <time>2022-09-25T13:43:03Z</time>
      </trkpt>
      <trkpt lat="46.46358" lon="4.50196">
        <ele>354.978</ele>
        <time>2022-09-25T13:43:42Z</time>
      </trkpt>
      <trkpt lat="46.46347" lon="4.50195">
        <ele>356.778</ele>
        <time>2022-09-25T13:44:11Z</time>
      </trkpt>
      <trkpt lat="46.4634" lon="4.50206">
        <ele>357.778</ele>
        <time>2022-09-25T13:44:38Z</time>
      </trkpt>
      <trkpt lat="46.46333" lon="4.5022">
        <ele>357.378</ele>
        <time>2022-09-25T13:45:02Z</time>
      </trkpt>
      <trkpt lat="46.46329" lon="4.50235">
        <ele>358.678</ele>
        <time>2022-09-25T13:46:09Z</time>
      </trkpt>
      <trkpt lat="46.46325" lon="4.50253">
        <ele>360.178</ele>
        <time>2022-09-25T13:46:22Z</time>
      </trkpt>
      <trkpt lat="46.4632" lon="4.50269">
        <ele>361.178</ele>
        <time>2022-09-25T13:46:34Z</time>
      </trkpt>
      <trkpt lat="46.46314" lon="4.50284">
        <ele>361.178</ele>
        <time>2022-09-25T13:46:44Z</time>
      </trkpt>
      <trkpt lat="46.46305" lon="4.50299">
        <ele>361.478</ele>
        <time>2022-09-25T13:46:56Z</time>
      </trkpt>
      <trkpt lat="46.463" lon="4.50315">
        <ele>360.878</ele>
        <time>2022-09-25T13:47:07Z</time>
      </trkpt>
      <trkpt lat="46.46293" lon="4.50332">
        <ele>360.878</ele>
        <time>2022-09-25T13:47:19Z</time>
      </trkpt>
      <trkpt lat="46.46286" lon="4.50348">
        <ele>361.878</ele>
        <time>2022-09-25T13:47:30Z</time>
      </trkpt>
      <trkpt lat="46.46278" lon="4.50364">
        <ele>363.278</ele>
        <time>2022-09-25T13:47:41Z</time>
      </trkpt>
      <trkpt lat="46.46271" lon="4.5038">
        <ele>363.078</ele>
        <time>2022-09-25T13:47:52Z</time>
      </trkpt>
      <trkpt lat="46.46266" lon="4.50389">
        <ele>363.578</ele>
        <time>2022-09-25T13:47:57Z</time>
      </trkpt>
      <trkpt lat="46.46261" lon="4.50398">
        <ele>363.978</ele>
        <time>2022-09-25T13:48:04Z</time>
      </trkpt>
      <trkpt lat="46.46256" lon="4.50405">
        <ele>364.478</ele>
        <time>2022-09-25T13:48:09Z</time>
      </trkpt>
      <trkpt lat="46.4625" lon="4.50415">
        <ele>365.178</ele>
        <time>2022-09-25T13:48:18Z</time>
      </trkpt>
      <trkpt lat="46.46242" lon="4.5043">
        <ele>366.377</ele>
        <time>2022-09-25T13:48:32Z</time>
      </trkpt>
      <trkpt lat="46.46236" lon="4.50447">
        <ele>366.677</ele>
        <time>2022-09-25T13:48:43Z</time>
      </trkpt>
      <trkpt lat="46.46231" lon="4.50465">
        <ele>366.777</ele>
        <time>2022-09-25T13:48:55Z</time>
      </trkpt>
      <trkpt lat="46.46225" lon="4.50484">
        <ele>367.677</ele>
        <time>2022-09-25T13:49:06Z</time>
      </trkpt>
      <trkpt lat="46.46223" lon="4.50497">
        <ele>368.777</ele>
        <time>2022-09-25T13:49:12Z</time>
      </trkpt>
      <trkpt lat="46.46222" lon="4.50508">
        <ele>369.577</ele>
        <time>2022-09-25T13:49:19Z</time>
      </trkpt>
      <trkpt lat="46.46221" lon="4.50521">
        <ele>370.078</ele>
        <time>2022-09-25T13:49:26Z</time>
      </trkpt>
      <trkpt lat="46.46218" lon="4.50532">
        <ele>371.578</ele>
        <time>2022-09-25T13:49:32Z</time>
      </trkpt>
      <trkpt lat="46.46215" lon="4.50554">
        <ele>374.678</ele>
        <time>2022-09-25T13:49:47Z</time>
      </trkpt>
      <trkpt lat="46.46212" lon="4.50565">
        <ele>374.878</ele>
        <time>2022-09-25T13:49:52Z</time>
      </trkpt>
      <trkpt lat="46.46211" lon="4.50576">
        <ele>375.778</ele>
        <time>2022-09-25T13:50:01Z</time>
      </trkpt>
      <trkpt lat="46.46207" lon="4.50588">
        <ele>375.978</ele>
        <time>2022-09-25T13:50:10Z</time>
      </trkpt>
      <trkpt lat="46.462" lon="4.50602">
        <ele>375.478</ele>
        <time>2022-09-25T13:50:26Z</time>
      </trkpt>
      <trkpt lat="46.46195" lon="4.50609">
        <ele>375.878</ele>
        <time>2022-09-25T13:50:37Z</time>
      </trkpt>
      <trkpt lat="46.46191" lon="4.50615">
        <ele>376.077</ele>
        <time>2022-09-25T13:50:42Z</time>
      </trkpt>
      <trkpt lat="46.46184" lon="4.50622">
        <ele>376.477</ele>
        <time>2022-09-25T13:50:48Z</time>
      </trkpt>
      <trkpt lat="46.46179" lon="4.50628">
        <ele>376.177</ele>
        <time>2022-09-25T13:50:54Z</time>
      </trkpt>
      <trkpt lat="46.46173" lon="4.50634">
        <ele>376.377</ele>
        <time>2022-09-25T13:51:00Z</time>
      </trkpt>
      <trkpt lat="46.46161" lon="4.50638">
        <ele>377.977</ele>
        <time>2022-09-25T13:52:14Z</time>
      </trkpt>
      <trkpt lat="46.46152" lon="4.50647">
        <ele>378.277</ele>
        <time>2022-09-25T13:52:26Z</time>
      </trkpt>
      <trkpt lat="46.46145" lon="4.5065">
        <ele>378.577</ele>
        <time>2022-09-25T13:52:32Z</time>
      </trkpt>
      <trkpt lat="46.46138" lon="4.50651">
        <ele>378.677</ele>
        <time>2022-09-25T13:52:37Z</time>
      </trkpt>
      <trkpt lat="46.46131" lon="4.50655">
        <ele>379.277</ele>
        <time>2022-09-25T13:52:44Z</time>
      </trkpt>
      <trkpt lat="46.46117" lon="4.5066">
        <ele>378.077</ele>
        <time>2022-09-25T13:52:56Z</time>
      </trkpt>
      <trkpt lat="46.46109" lon="4.50662">
        <ele>377.677</ele>
        <time>2022-09-25T13:53:02Z</time>
      </trkpt>
      <trkpt lat="46.46094" lon="4.50664">
        <ele>373.377</ele>
        <time>2022-09-25T13:53:16Z</time>
      </trkpt>
      <trkpt lat="46.46085" lon="4.50664">
        <ele>370.777</ele>
        <time>2022-09-25T13:53:22Z</time>
      </trkpt>
      <trkpt lat="46.46078" lon="4.50665">
        <ele>368.977</ele>
        <time>2022-09-25T13:53:26Z</time>
      </trkpt>
      <trkpt lat="46.4607" lon="4.50668">
        <ele>367.077</ele>
        <time>2022-09-25T13:53:32Z</time>
      </trkpt>
      <trkpt lat="46.46061" lon="4.50675">
        <ele>365.977</ele>
        <time>2022-09-25T13:53:40Z</time>
      </trkpt>
      <trkpt lat="46.46053" lon="4.5068">
        <ele>366.177</ele>
        <time>2022-09-25T13:53:46Z</time>
      </trkpt>
      <trkpt lat="46.46046" lon="4.50686">
        <ele>364.777</ele>
        <time>2022-09-25T13:53:52Z</time>
      </trkpt>
      <trkpt lat="46.46036" lon="4.50691">
        <ele>365.177</ele>
        <time>2022-09-25T13:54:06Z</time>
      </trkpt>
      <trkpt lat="46.46029" lon="4.50687">
        <ele>364.777</ele>
        <time>2022-09-25T13:54:14Z</time>
      </trkpt>
      <trkpt lat="46.46016" lon="4.50682">
        <ele>368.877</ele>
        <time>2022-09-25T13:54:29Z</time>
      </trkpt>
      <trkpt lat="46.46" lon="4.50685">
        <ele>370.577</ele>
        <time>2022-09-25T13:54:43Z</time>
      </trkpt>
      <trkpt lat="46.45993" lon="4.50691">
        <ele>370.477</ele>
        <time>2022-09-25T13:54:51Z</time>
      </trkpt>
      <trkpt lat="46.45987" lon="4.50696">
        <ele>368.777</ele>
        <time>2022-09-25T13:54:56Z</time>
      </trkpt>
      <trkpt lat="46.4598" lon="4.50696">
        <ele>367.977</ele>
        <time>2022-09-25T13:55:01Z</time>
      </trkpt>
      <trkpt lat="46.45971" lon="4.50697">
        <ele>366.077</ele>
        <time>2022-09-25T13:55:08Z</time>
      </trkpt>
      <trkpt lat="46.45965" lon="4.50697">
        <ele>363.177</ele>
        <time>2022-09-25T13:55:14Z</time>
      </trkpt>
      <trkpt lat="46.45957" lon="4.50697">
        <ele>360.277</ele>
        <time>2022-09-25T13:55:23Z</time>
      </trkpt>
      <trkpt lat="46.4595" lon="4.50696">
        <ele>358.377</ele>
        <time>2022-09-25T13:55:30Z</time>
      </trkpt>
      <trkpt lat="46.45943" lon="4.50697">
        <ele>356.377</ele>
        <time>2022-09-25T13:55:36Z</time>
      </trkpt>
      <trkpt lat="46.45936" lon="4.50697">
        <ele>354.377</ele>
        <time>2022-09-25T13:55:43Z</time>
      </trkpt>
      <trkpt lat="46.45929" lon="4.50695">
        <ele>354.177</ele>
        <time>2022-09-25T13:55:48Z</time>
      </trkpt>
      <trkpt lat="46.45922" lon="4.50693">
        <ele>352.977</ele>
        <time>2022-09-25T13:55:53Z</time>
      </trkpt>
      <trkpt lat="46.45914" lon="4.50692">
        <ele>352.077</ele>
        <time>2022-09-25T13:55:58Z</time>
      </trkpt>
      <trkpt lat="46.45906" lon="4.50689">
        <ele>350.277</ele>
        <time>2022-09-25T13:56:04Z</time>
      </trkpt>
      <trkpt lat="46.45899" lon="4.50686">
        <ele>350.877</ele>
        <time>2022-09-25T13:56:10Z</time>
      </trkpt>
      <trkpt lat="46.45891" lon="4.50685">
        <ele>350.377</ele>
        <time>2022-09-25T13:56:16Z</time>
      </trkpt>
      <trkpt lat="46.45884" lon="4.50688">
        <ele>349.877</ele>
        <time>2022-09-25T13:56:23Z</time>
      </trkpt>
      <trkpt lat="46.45883" lon="4.50701">
        <ele>350.477</ele>
        <time>2022-09-25T13:56:52Z</time>
      </trkpt>
      <trkpt lat="46.4588" lon="4.5071">
        <ele>350.577</ele>
        <time>2022-09-25T13:57:01Z</time>
      </trkpt>
      <trkpt lat="46.45879" lon="4.5072">
        <ele>349.877</ele>
        <time>2022-09-25T13:57:07Z</time>
      </trkpt>
      <trkpt lat="46.45876" lon="4.50733">
        <ele>349.777</ele>
        <time>2022-09-25T13:57:12Z</time>
      </trkpt>
      <trkpt lat="46.45874" lon="4.50743">
        <ele>348.877</ele>
        <time>2022-09-25T13:57:19Z</time>
      </trkpt>
      <trkpt lat="46.4587" lon="4.50753">
        <ele>348.577</ele>
        <time>2022-09-25T13:57:24Z</time>
      </trkpt>
      <trkpt lat="46.45866" lon="4.50764">
        <ele>348.777</ele>
        <time>2022-09-25T13:57:29Z</time>
      </trkpt>
      <trkpt lat="46.45864" lon="4.50776">
        <ele>349.577</ele>
        <time>2022-09-25T13:57:34Z</time>
      </trkpt>
      <trkpt lat="46.4586" lon="4.50785">
        <ele>350.877</ele>
        <time>2022-09-25T13:57:42Z</time>
      </trkpt>
      <trkpt lat="46.45855" lon="4.50798">
        <ele>350.877</ele>
        <time>2022-09-25T13:57:48Z</time>
      </trkpt>
      <trkpt lat="46.45851" lon="4.50811">
        <ele>351.077</ele>
        <time>2022-09-25T13:57:53Z</time>
      </trkpt>
      <trkpt lat="46.45848" lon="4.5082">
        <ele>350.577</ele>
        <time>2022-09-25T13:57:59Z</time>
      </trkpt>
      <trkpt lat="46.45845" lon="4.5083">
        <ele>350.477</ele>
        <time>2022-09-25T13:58:05Z</time>
      </trkpt>
      <trkpt lat="46.45841" lon="4.50841">
        <ele>350.177</ele>
        <time>2022-09-25T13:58:10Z</time>
      </trkpt>
      <trkpt lat="46.45837" lon="4.50856">
        <ele>350.877</ele>
        <time>2022-09-25T13:58:16Z</time>
      </trkpt>
      <trkpt lat="46.45833" lon="4.50866">
        <ele>350.977</ele>
        <time>2022-09-25T13:58:24Z</time>
      </trkpt>
      <trkpt lat="46.4583" lon="4.50876">
        <ele>351.077</ele>
        <time>2022-09-25T13:58:29Z</time>
      </trkpt>
      <trkpt lat="46.45827" lon="4.50886">
        <ele>350.277</ele>
        <time>2022-09-25T13:58:34Z</time>
      </trkpt>
      <trkpt lat="46.45824" lon="4.50895">
        <ele>350.277</ele>
        <time>2022-09-25T13:58:40Z</time>
      </trkpt>
      <trkpt lat="46.4582" lon="4.50906">
        <ele>350.677</ele>
        <time>2022-09-25T13:58:45Z</time>
      </trkpt>
      <trkpt lat="46.45817" lon="4.50915">
        <ele>351.077</ele>
        <time>2022-09-25T13:58:50Z</time>
      </trkpt>
      <trkpt lat="46.45813" lon="4.50924">
        <ele>350.677</ele>
        <time>2022-09-25T13:58:56Z</time>
      </trkpt>
      <trkpt lat="46.4581" lon="4.50934">
        <ele>351.877</ele>
        <time>2022-09-25T13:59:09Z</time>
      </trkpt>
      <trkpt lat="46.45806" lon="4.50946">
        <ele>352.577</ele>
        <time>2022-09-25T13:59:16Z</time>
      </trkpt>
      <trkpt lat="46.45803" lon="4.50957">
        <ele>353.177</ele>
        <time>2022-09-25T13:59:21Z</time>
      </trkpt>
      <trkpt lat="46.45801" lon="4.50966">
        <ele>352.677</ele>
        <time>2022-09-25T13:59:26Z</time>
      </trkpt>
      <trkpt lat="46.45796" lon="4.50976">
        <ele>352.277</ele>
        <time>2022-09-25T13:59:32Z</time>
      </trkpt>
      <trkpt lat="46.45793" lon="4.50985">
        <ele>353.077</ele>
        <time>2022-09-25T13:59:38Z</time>
      </trkpt>
      <trkpt lat="46.45789" lon="4.50996">
        <ele>352.277</ele>
        <time>2022-09-25T13:59:44Z</time>
      </trkpt>
      <trkpt lat="46.45787" lon="4.51006">
        <ele>352.077</ele>
        <time>2022-09-25T13:59:49Z</time>
      </trkpt>
      <trkpt lat="46.45783" lon="4.51014">
        <ele>352.177</ele>
        <time>2022-09-25T13:59:55Z</time>
      </trkpt>
      <trkpt lat="46.4578" lon="4.51023">
        <ele>351.777</ele>
        <time>2022-09-25T14:00:01Z</time>
      </trkpt>
      <trkpt lat="46.45774" lon="4.5103">
        <ele>351.477</ele>
        <time>2022-09-25T14:00:07Z</time>
      </trkpt>
      <trkpt lat="46.45769" lon="4.51038">
        <ele>351.677</ele>
        <time>2022-09-25T14:00:13Z</time>
      </trkpt>
      <trkpt lat="46.45762" lon="4.51046">
        <ele>351.077</ele>
        <time>2022-09-25T14:00:18Z</time>
      </trkpt>
      <trkpt lat="46.45757" lon="4.51052">
        <ele>349.877</ele>
        <time>2022-09-25T14:00:24Z</time>
      </trkpt>
      <trkpt lat="46.45751" lon="4.51059">
        <ele>348.177</ele>
        <time>2022-09-25T14:00:29Z</time>
      </trkpt>
      <trkpt lat="46.45745" lon="4.51064">
        <ele>348.177</ele>
        <time>2022-09-25T14:00:35Z</time>
      </trkpt>
      <trkpt lat="46.45739" lon="4.51069">
        <ele>349.177</ele>
        <time>2022-09-25T14:00:40Z</time>
      </trkpt>
      <trkpt lat="46.45731" lon="4.51075">
        <ele>349.477</ele>
        <time>2022-09-25T14:00:45Z</time>
      </trkpt>
      <trkpt lat="46.45727" lon="4.51083">
        <ele>350.177</ele>
        <time>2022-09-25T14:00:51Z</time>
      </trkpt>
      <trkpt lat="46.45722" lon="4.51091">
        <ele>351.677</ele>
        <time>2022-09-25T14:00:57Z</time>
      </trkpt>
      <trkpt lat="46.45717" lon="4.51098">
        <ele>352.777</ele>
        <time>2022-09-25T14:01:02Z</time>
      </trkpt>
      <trkpt lat="46.45711" lon="4.51107">
        <ele>353.777</ele>
        <time>2022-09-25T14:01:08Z</time>
      </trkpt>
      <trkpt lat="46.45706" lon="4.51114">
        <ele>353.277</ele>
        <time>2022-09-25T14:01:13Z</time>
      </trkpt>
      <trkpt lat="46.457" lon="4.51122">
        <ele>351.477</ele>
        <time>2022-09-25T14:01:19Z</time>
      </trkpt>
      <trkpt lat="46.45695" lon="4.51132">
        <ele>350.277</ele>
        <time>2022-09-25T14:01:24Z</time>
      </trkpt>
      <trkpt lat="46.45691" lon="4.5114">
        <ele>349.077</ele>
        <time>2022-09-25T14:01:30Z</time>
      </trkpt>
      <trkpt lat="46.45686" lon="4.51151">
        <ele>348.477</ele>
        <time>2022-09-25T14:01:36Z</time>
      </trkpt>
      <trkpt lat="46.45682" lon="4.5116">
        <ele>348.577</ele>
        <time>2022-09-25T14:01:43Z</time>
      </trkpt>
      <trkpt lat="46.45677" lon="4.51171">
        <ele>348.177</ele>
        <time>2022-09-25T14:01:48Z</time>
      </trkpt>
      <trkpt lat="46.45674" lon="4.51181">
        <ele>348.877</ele>
        <time>2022-09-25T14:01:53Z</time>
      </trkpt>
      <trkpt lat="46.4567" lon="4.5119">
        <ele>349.777</ele>
        <time>2022-09-25T14:01:59Z</time>
      </trkpt>
      <trkpt lat="46.45667" lon="4.512">
        <ele>349.177</ele>
        <time>2022-09-25T14:02:04Z</time>
      </trkpt>
      <trkpt lat="46.45664" lon="4.5121">
        <ele>350.277</ele>
        <time>2022-09-25T14:02:11Z</time>
      </trkpt>
      <trkpt lat="46.4566" lon="4.51218">
        <ele>351.577</ele>
        <time>2022-09-25T14:02:16Z</time>
      </trkpt>
      <trkpt lat="46.45658" lon="4.51228">
        <ele>352.477</ele>
        <time>2022-09-25T14:02:22Z</time>
      </trkpt>
      <trkpt lat="46.45655" lon="4.51239">
        <ele>353.077</ele>
        <time>2022-09-25T14:02:28Z</time>
      </trkpt>
      <trkpt lat="46.45653" lon="4.51249">
        <ele>353.477</ele>
        <time>2022-09-25T14:02:33Z</time>
      </trkpt>
      <trkpt lat="46.4565" lon="4.51258">
        <ele>354.177</ele>
        <time>2022-09-25T14:02:39Z</time>
      </trkpt>
      <trkpt lat="46.4565" lon="4.51269">
        <ele>355.477</ele>
        <time>2022-09-25T14:02:44Z</time>
      </trkpt>
      <trkpt lat="46.45651" lon="4.51279">
        <ele>354.877</ele>
        <time>2022-09-25T14:02:50Z</time>
      </trkpt>
      <trkpt lat="46.45651" lon="4.51293">
        <ele>354.877</ele>
        <time>2022-09-25T14:02:56Z</time>
      </trkpt>
      <trkpt lat="46.45652" lon="4.51303">
        <ele>354.077</ele>
        <time>2022-09-25T14:03:02Z</time>
      </trkpt>
      <trkpt lat="46.45653" lon="4.51316">
        <ele>353.277</ele>
        <time>2022-09-25T14:03:08Z</time>
      </trkpt>
      <trkpt lat="46.45654" lon="4.51325">
        <ele>352.177</ele>
        <time>2022-09-25T14:03:14Z</time>
      </trkpt>
      <trkpt lat="46.45657" lon="4.51335">
        <ele>351.277</ele>
        <time>2022-09-25T14:03:20Z</time>
      </trkpt>
      <trkpt lat="46.45659" lon="4.51346">
        <ele>350.477</ele>
        <time>2022-09-25T14:03:26Z</time>
      </trkpt>
      <trkpt lat="46.45663" lon="4.51356">
        <ele>350.877</ele>
        <time>2022-09-25T14:03:32Z</time>
      </trkpt>
      <trkpt lat="46.45667" lon="4.51365">
        <ele>349.477</ele>
        <time>2022-09-25T14:03:38Z</time>
      </trkpt>
      <trkpt lat="46.45673" lon="4.51374">
        <ele>349.077</ele>
        <time>2022-09-25T14:03:45Z</time>
      </trkpt>
      <trkpt lat="46.45678" lon="4.51382">
        <ele>349.777</ele>
        <time>2022-09-25T14:03:50Z</time>
      </trkpt>
      <trkpt lat="46.45683" lon="4.51388">
        <ele>349.377</ele>
        <time>2022-09-25T14:03:56Z</time>
      </trkpt>
      <trkpt lat="46.45688" lon="4.51397">
        <ele>348.877</ele>
        <time>2022-09-25T14:04:01Z</time>
      </trkpt>
      <trkpt lat="46.45693" lon="4.51404">
        <ele>348.577</ele>
        <time>2022-09-25T14:04:07Z</time>
      </trkpt>
      <trkpt lat="46.45697" lon="4.51413">
        <ele>347.177</ele>
        <time>2022-09-25T14:04:12Z</time>
      </trkpt>
      <trkpt lat="46.45701" lon="4.51421">
        <ele>347.677</ele>
        <time>2022-09-25T14:04:17Z</time>
      </trkpt>
      <trkpt lat="46.45703" lon="4.51431">
        <ele>347.177</ele>
        <time>2022-09-25T14:04:23Z</time>
      </trkpt>
      <trkpt lat="46.45704" lon="4.5144">
        <ele>347.177</ele>
        <time>2022-09-25T14:04:28Z</time>
      </trkpt>
      <trkpt lat="46.45698" lon="4.51442">
        <ele>346.877</ele>
        <time>2022-09-25T14:04:44Z</time>
      </trkpt>
      <trkpt lat="46.45701" lon="4.51454">
        <ele>346.877</ele>
        <time>2022-09-25T14:05:06Z</time>
      </trkpt>
      <trkpt lat="46.45695" lon="4.51462">
        <ele>347.677</ele>
        <time>2022-09-25T14:05:27Z</time>
      </trkpt>
      <trkpt lat="46.45699" lon="4.51452">
        <ele>347.577</ele>
        <time>2022-09-25T14:05:36Z</time>
      </trkpt>
      <trkpt lat="46.45698" lon="4.51442">
        <ele>347.277</ele>
        <time>2022-09-25T14:05:41Z</time>
      </trkpt>
      <trkpt lat="46.45689" lon="4.51461">
        <ele>347.377</ele>
        <time>2022-09-25T14:05:46Z</time>
      </trkpt>
      <trkpt lat="46.45698" lon="4.51455">
        <ele>347.677</ele>
        <time>2022-09-25T14:06:03Z</time>
      </trkpt>
      <trkpt lat="46.45691" lon="4.51446">
        <ele>348.077</ele>
        <time>2022-09-25T14:06:26Z</time>
      </trkpt>
      <trkpt lat="46.457" lon="4.51443">
        <ele>347.877</ele>
        <time>2022-09-25T14:07:36Z</time>
      </trkpt>
      <trkpt lat="46.45705" lon="4.5145">
        <ele>347.577</ele>
        <time>2022-09-25T14:08:09Z</time>
      </trkpt>
      <trkpt lat="46.45704" lon="4.51462">
        <ele>349.177</ele>
        <time>2022-09-25T14:08:14Z</time>
      </trkpt>
      <trkpt lat="46.45699" lon="4.51471">
        <ele>348.877</ele>
        <time>2022-09-25T14:08:22Z</time>
      </trkpt>
      <trkpt lat="46.45692" lon="4.51477">
        <ele>348.377</ele>
        <time>2022-09-25T14:08:28Z</time>
      </trkpt>
      <trkpt lat="46.45686" lon="4.5148">
        <ele>349.077</ele>
        <time>2022-09-25T14:08:37Z</time>
      </trkpt>
      <trkpt lat="46.45675" lon="4.51481">
        <ele>349.977</ele>
        <time>2022-09-25T14:09:00Z</time>
      </trkpt>
      <trkpt lat="46.45669" lon="4.51484">
        <ele>350.077</ele>
        <time>2022-09-25T14:09:06Z</time>
      </trkpt>
      <trkpt lat="46.45662" lon="4.51487">
        <ele>349.077</ele>
        <time>2022-09-25T14:09:12Z</time>
      </trkpt>
      <trkpt lat="46.45657" lon="4.51493">
        <ele>348.677</ele>
        <time>2022-09-25T14:09:18Z</time>
      </trkpt>
      <trkpt lat="46.45652" lon="4.51502">
        <ele>348.577</ele>
        <time>2022-09-25T14:09:24Z</time>
      </trkpt>
      <trkpt lat="46.45649" lon="4.51511">
        <ele>348.877</ele>
        <time>2022-09-25T14:09:32Z</time>
      </trkpt>
      <trkpt lat="46.45643" lon="4.51518">
        <ele>348.377</ele>
        <time>2022-09-25T14:09:38Z</time>
      </trkpt>
      <trkpt lat="46.45637" lon="4.51527">
        <ele>346.877</ele>
        <time>2022-09-25T14:09:44Z</time>
      </trkpt>
      <trkpt lat="46.45631" lon="4.51532">
        <ele>346.077</ele>
        <time>2022-09-25T14:09:49Z</time>
      </trkpt>
      <trkpt lat="46.45624" lon="4.51536">
        <ele>346.777</ele>
        <time>2022-09-25T14:09:55Z</time>
      </trkpt>
      <trkpt lat="46.45618" lon="4.51541">
        <ele>347.277</ele>
        <time>2022-09-25T14:10:02Z</time>
      </trkpt>
      <trkpt lat="46.4561" lon="4.51545">
        <ele>345.977</ele>
        <time>2022-09-25T14:10:08Z</time>
      </trkpt>
      <trkpt lat="46.45603" lon="4.51547">
        <ele>344.177</ele>
        <time>2022-09-25T14:10:14Z</time>
      </trkpt>
      <trkpt lat="46.45596" lon="4.51551">
        <ele>341.477</ele>
        <time>2022-09-25T14:10:21Z</time>
      </trkpt>
      <trkpt lat="46.45589" lon="4.51554">
        <ele>339.477</ele>
        <time>2022-09-25T14:10:26Z</time>
      </trkpt>
      <trkpt lat="46.45582" lon="4.51557">
        <ele>337.377</ele>
        <time>2022-09-25T14:10:33Z</time>
      </trkpt>
      <trkpt lat="46.45574" lon="4.51559">
        <ele>336.777</ele>
        <time>2022-09-25T14:10:38Z</time>
      </trkpt>
      <trkpt lat="46.45567" lon="4.51561">
        <ele>336.077</ele>
        <time>2022-09-25T14:10:45Z</time>
      </trkpt>
      <trkpt lat="46.4556" lon="4.51565">
        <ele>335.876</ele>
        <time>2022-09-25T14:10:50Z</time>
      </trkpt>
      <trkpt lat="46.45553" lon="4.51571">
        <ele>336.176</ele>
        <time>2022-09-25T14:10:57Z</time>
      </trkpt>
      <trkpt lat="46.45549" lon="4.51579">
        <ele>336.276</ele>
        <time>2022-09-25T14:11:02Z</time>
      </trkpt>
      <trkpt lat="46.45543" lon="4.51586">
        <ele>335.676</ele>
        <time>2022-09-25T14:11:09Z</time>
      </trkpt>
      <trkpt lat="46.45538" lon="4.51595">
        <ele>335.376</ele>
        <time>2022-09-25T14:11:14Z</time>
      </trkpt>
      <trkpt lat="46.45532" lon="4.51601">
        <ele>334.576</ele>
        <time>2022-09-25T14:11:20Z</time>
      </trkpt>
      <trkpt lat="46.45527" lon="4.51609">
        <ele>333.476</ele>
        <time>2022-09-25T14:11:25Z</time>
      </trkpt>
      <trkpt lat="46.45521" lon="4.51615">
        <ele>330.376</ele>
        <time>2022-09-25T14:11:31Z</time>
      </trkpt>
      <trkpt lat="46.45517" lon="4.51623">
        <ele>328.676</ele>
        <time>2022-09-25T14:11:36Z</time>
      </trkpt>
      <trkpt lat="46.45513" lon="4.5163">
        <ele>327.676</ele>
        <time>2022-09-25T14:11:41Z</time>
      </trkpt>
      <trkpt lat="46.45508" lon="4.51638">
        <ele>328.276</ele>
        <time>2022-09-25T14:11:46Z</time>
      </trkpt>
      <trkpt lat="46.45504" lon="4.51646">
        <ele>330.076</ele>
        <time>2022-09-25T14:11:53Z</time>
      </trkpt>
      <trkpt lat="46.45499" lon="4.51654">
        <ele>330.776</ele>
        <time>2022-09-25T14:11:59Z</time>
      </trkpt>
      <trkpt lat="46.45495" lon="4.51662">
        <ele>331.376</ele>
        <time>2022-09-25T14:12:05Z</time>
      </trkpt>
      <trkpt lat="46.45489" lon="4.51669">
        <ele>331.576</ele>
        <time>2022-09-25T14:12:10Z</time>
      </trkpt>
      <trkpt lat="46.45483" lon="4.51676">
        <ele>331.376</ele>
        <time>2022-09-25T14:12:17Z</time>
      </trkpt>
      <trkpt lat="46.45479" lon="4.51685">
        <ele>331.976</ele>
        <time>2022-09-25T14:12:22Z</time>
      </trkpt>
      <trkpt lat="46.45474" lon="4.51691">
        <ele>332.376</ele>
        <time>2022-09-25T14:12:29Z</time>
      </trkpt>
      <trkpt lat="46.45469" lon="4.51699">
        <ele>333.076</ele>
        <time>2022-09-25T14:12:35Z</time>
      </trkpt>
      <trkpt lat="46.45466" lon="4.51709">
        <ele>333.376</ele>
        <time>2022-09-25T14:12:42Z</time>
      </trkpt>
    </trkseg>
  </trk>
</gpx>